<?xml version="1.0" encoding="UTF-8" standalone="no" ?>
<gpx xmlns="http://www.topografix.com/GPX/1/1" xmlns:xsi="http://www.w3.org/2001/XMLSchema-instance" xsi:schemaLocation="http://www.topografix.com/GPX/1/1 http://www.topografix.com/GPX/1/1/gpx.xsd" version="1.1" creator="VisuGPX - https://www.visugpx.com">
  <metadata>
    <name>station Planes Puigmal Nuria en AR</name>
    <desc><![CDATA[rando sportive en raison de la dénivelée et de la pente autour du Puigmal, surtout côté  français, mais qui offre le panorama du Puigmal et le sanctuaire de Nuria en seulement 18km pour 1800m de dénivelée, 8h arrêts compris et possibilité de se restaurer ou de se ravitailler en eau à Nuria, ou même d'y passer la nuit; au niveau des gorges au dessus de Nuria, rester sur la rive gauche:l'itinéraire est balisé par des traits rose fuchsia.]]></desc>
  </metadata>
  <trk>
    <name><![CDATA[Planes Puigmal Nuria ]]></name>
    <cmt><![CDATA[2 sept. 2018 à 08:37:06]]></cmt>
    <trkseg>
      <trkpt lat="42.39067" lon="2.08386">
        <ele>2030</ele>
        <time>2018-09-02T06:37:06Z</time>
      </trkpt>
      <trkpt lat="42.39067" lon="2.08386">
        <ele>2030</ele>
        <time>2018-09-02T06:37:07Z</time>
      </trkpt>
      <trkpt lat="42.39076" lon="2.08408">
        <ele>2030</ele>
        <time>2018-09-02T06:39:34Z</time>
      </trkpt>
      <trkpt lat="42.39074" lon="2.08415">
        <ele>2031</ele>
        <time>2018-09-02T06:39:42Z</time>
      </trkpt>
      <trkpt lat="42.3907" lon="2.08417">
        <ele>2031</ele>
        <time>2018-09-02T06:39:46Z</time>
      </trkpt>
      <trkpt lat="42.39069" lon="2.0841">
        <ele>2031</ele>
        <time>2018-09-02T06:40:03Z</time>
      </trkpt>
      <trkpt lat="42.39075" lon="2.08413">
        <ele>2031</ele>
        <time>2018-09-02T06:40:22Z</time>
      </trkpt>
      <trkpt lat="42.39072" lon="2.08424">
        <ele>2031</ele>
        <time>2018-09-02T06:40:36Z</time>
      </trkpt>
      <trkpt lat="42.39068" lon="2.08426">
        <ele>2032</ele>
        <time>2018-09-02T06:40:40Z</time>
      </trkpt>
      <trkpt lat="42.3905" lon="2.08442">
        <ele>2034</ele>
        <time>2018-09-02T06:41:07Z</time>
      </trkpt>
      <trkpt lat="42.39048" lon="2.08448">
        <ele>2034</ele>
        <time>2018-09-02T06:41:12Z</time>
      </trkpt>
      <trkpt lat="42.39045" lon="2.08452">
        <ele>2034</ele>
        <time>2018-09-02T06:41:15Z</time>
      </trkpt>
      <trkpt lat="42.39043" lon="2.08458">
        <ele>2035</ele>
        <time>2018-09-02T06:41:20Z</time>
      </trkpt>
      <trkpt lat="42.39039" lon="2.08463">
        <ele>2035</ele>
        <time>2018-09-02T06:41:24Z</time>
      </trkpt>
      <trkpt lat="42.39038" lon="2.08477">
        <ele>2036</ele>
        <time>2018-09-02T06:41:32Z</time>
      </trkpt>
      <trkpt lat="42.39036" lon="2.08483">
        <ele>2037</ele>
        <time>2018-09-02T06:41:37Z</time>
      </trkpt>
      <trkpt lat="42.39035" lon="2.08492">
        <ele>2037</ele>
        <time>2018-09-02T06:41:44Z</time>
      </trkpt>
      <trkpt lat="42.39031" lon="2.08497">
        <ele>2038</ele>
        <time>2018-09-02T06:41:49Z</time>
      </trkpt>
      <trkpt lat="42.39011" lon="2.0854">
        <ele>2041</ele>
        <time>2018-09-02T06:42:23Z</time>
      </trkpt>
      <trkpt lat="42.38996" lon="2.08572">
        <ele>2044</ele>
        <time>2018-09-02T06:42:46Z</time>
      </trkpt>
      <trkpt lat="42.3899" lon="2.08582">
        <ele>2044</ele>
        <time>2018-09-02T06:42:54Z</time>
      </trkpt>
      <trkpt lat="42.38976" lon="2.0862">
        <ele>2047</ele>
        <time>2018-09-02T06:43:17Z</time>
      </trkpt>
      <trkpt lat="42.38977" lon="2.08626">
        <ele>2047</ele>
        <time>2018-09-02T06:43:21Z</time>
      </trkpt>
      <trkpt lat="42.38975" lon="2.08634">
        <ele>2047</ele>
        <time>2018-09-02T06:43:44Z</time>
      </trkpt>
      <trkpt lat="42.38972" lon="2.08643">
        <ele>2048</ele>
        <time>2018-09-02T06:44:01Z</time>
      </trkpt>
      <trkpt lat="42.38969" lon="2.08649">
        <ele>2048</ele>
        <time>2018-09-02T06:44:05Z</time>
      </trkpt>
      <trkpt lat="42.38961" lon="2.08658">
        <ele>2049</ele>
        <time>2018-09-02T06:44:11Z</time>
      </trkpt>
      <trkpt lat="42.38954" lon="2.08668">
        <ele>2050</ele>
        <time>2018-09-02T06:44:17Z</time>
      </trkpt>
      <trkpt lat="42.38942" lon="2.0868">
        <ele>2051</ele>
        <time>2018-09-02T06:44:28Z</time>
      </trkpt>
      <trkpt lat="42.3892" lon="2.08717">
        <ele>2054</ele>
        <time>2018-09-02T06:45:00Z</time>
      </trkpt>
      <trkpt lat="42.38912" lon="2.08733">
        <ele>2055</ele>
        <time>2018-09-02T06:45:15Z</time>
      </trkpt>
      <trkpt lat="42.38897" lon="2.08752">
        <ele>2057</ele>
        <time>2018-09-02T06:45:31Z</time>
      </trkpt>
      <trkpt lat="42.38893" lon="2.08755">
        <ele>2057</ele>
        <time>2018-09-02T06:45:35Z</time>
      </trkpt>
      <trkpt lat="42.38886" lon="2.08766">
        <ele>2058</ele>
        <time>2018-09-02T06:45:43Z</time>
      </trkpt>
      <trkpt lat="42.38884" lon="2.08773">
        <ele>2058</ele>
        <time>2018-09-02T06:45:47Z</time>
      </trkpt>
      <trkpt lat="42.3888" lon="2.08777">
        <ele>2058</ele>
        <time>2018-09-02T06:45:51Z</time>
      </trkpt>
      <trkpt lat="42.38875" lon="2.08788">
        <ele>2059</ele>
        <time>2018-09-02T06:45:59Z</time>
      </trkpt>
      <trkpt lat="42.3887" lon="2.08793">
        <ele>2060</ele>
        <time>2018-09-02T06:46:03Z</time>
      </trkpt>
      <trkpt lat="42.38862" lon="2.08809">
        <ele>2061</ele>
        <time>2018-09-02T06:46:18Z</time>
      </trkpt>
      <trkpt lat="42.38838" lon="2.08838">
        <ele>2065</ele>
        <time>2018-09-02T06:46:51Z</time>
      </trkpt>
      <trkpt lat="42.38827" lon="2.08853">
        <ele>2066</ele>
        <time>2018-09-02T06:47:03Z</time>
      </trkpt>
      <trkpt lat="42.38819" lon="2.08872">
        <ele>2067</ele>
        <time>2018-09-02T06:47:18Z</time>
      </trkpt>
      <trkpt lat="42.38811" lon="2.08881">
        <ele>2068</ele>
        <time>2018-09-02T06:47:27Z</time>
      </trkpt>
      <trkpt lat="42.38807" lon="2.08889">
        <ele>2069</ele>
        <time>2018-09-02T06:47:35Z</time>
      </trkpt>
      <trkpt lat="42.38798" lon="2.08899">
        <ele>2070</ele>
        <time>2018-09-02T06:47:48Z</time>
      </trkpt>
      <trkpt lat="42.38796" lon="2.08906">
        <ele>2071</ele>
        <time>2018-09-02T06:47:53Z</time>
      </trkpt>
      <trkpt lat="42.38795" lon="2.08913">
        <ele>2071</ele>
        <time>2018-09-02T06:47:57Z</time>
      </trkpt>
      <trkpt lat="42.38792" lon="2.08919">
        <ele>2071</ele>
        <time>2018-09-02T06:48:02Z</time>
      </trkpt>
      <trkpt lat="42.38782" lon="2.08928">
        <ele>2073</ele>
        <time>2018-09-02T06:48:17Z</time>
      </trkpt>
      <trkpt lat="42.38778" lon="2.08934">
        <ele>2074</ele>
        <time>2018-09-02T06:48:23Z</time>
      </trkpt>
      <trkpt lat="42.38775" lon="2.08941">
        <ele>2076</ele>
        <time>2018-09-02T06:48:35Z</time>
      </trkpt>
      <trkpt lat="42.38761" lon="2.08962">
        <ele>2079</ele>
        <time>2018-09-02T06:49:00Z</time>
      </trkpt>
      <trkpt lat="42.38759" lon="2.08968">
        <ele>2080</ele>
        <time>2018-09-02T06:49:04Z</time>
      </trkpt>
      <trkpt lat="42.38752" lon="2.08977">
        <ele>2081</ele>
        <time>2018-09-02T06:49:13Z</time>
      </trkpt>
      <trkpt lat="42.38739" lon="2.09008">
        <ele>2085</ele>
        <time>2018-09-02T06:49:44Z</time>
      </trkpt>
      <trkpt lat="42.38735" lon="2.0902">
        <ele>2087</ele>
        <time>2018-09-02T06:49:55Z</time>
      </trkpt>
      <trkpt lat="42.38734" lon="2.09033">
        <ele>2088</ele>
        <time>2018-09-02T06:50:10Z</time>
      </trkpt>
      <trkpt lat="42.38728" lon="2.09053">
        <ele>2091</ele>
        <time>2018-09-02T06:50:31Z</time>
      </trkpt>
      <trkpt lat="42.38717" lon="2.0907">
        <ele>2094</ele>
        <time>2018-09-02T06:50:51Z</time>
      </trkpt>
      <trkpt lat="42.38712" lon="2.09072">
        <ele>2095</ele>
        <time>2018-09-02T06:50:59Z</time>
      </trkpt>
      <trkpt lat="42.38704" lon="2.09085">
        <ele>2097</ele>
        <time>2018-09-02T06:51:17Z</time>
      </trkpt>
      <trkpt lat="42.38683" lon="2.09105">
        <ele>2102</ele>
        <time>2018-09-02T06:51:50Z</time>
      </trkpt>
      <trkpt lat="42.38679" lon="2.09114">
        <ele>2103</ele>
        <time>2018-09-02T06:51:58Z</time>
      </trkpt>
      <trkpt lat="42.38676" lon="2.09119">
        <ele>2103</ele>
        <time>2018-09-02T06:52:03Z</time>
      </trkpt>
      <trkpt lat="42.38673" lon="2.09127">
        <ele>2104</ele>
        <time>2018-09-02T06:52:11Z</time>
      </trkpt>
      <trkpt lat="42.38675" lon="2.09134">
        <ele>2105</ele>
        <time>2018-09-02T06:52:43Z</time>
      </trkpt>
      <trkpt lat="42.38668" lon="2.09143">
        <ele>2106</ele>
        <time>2018-09-02T06:52:52Z</time>
      </trkpt>
      <trkpt lat="42.38661" lon="2.09155">
        <ele>2108</ele>
        <time>2018-09-02T06:53:04Z</time>
      </trkpt>
      <trkpt lat="42.38642" lon="2.09177">
        <ele>2111</ele>
        <time>2018-09-02T06:53:29Z</time>
      </trkpt>
      <trkpt lat="42.38636" lon="2.09186">
        <ele>2113</ele>
        <time>2018-09-02T06:53:44Z</time>
      </trkpt>
      <trkpt lat="42.38628" lon="2.09197">
        <ele>2115</ele>
        <time>2018-09-02T06:53:57Z</time>
      </trkpt>
      <trkpt lat="42.38627" lon="2.09204">
        <ele>2116</ele>
        <time>2018-09-02T06:54:05Z</time>
      </trkpt>
      <trkpt lat="42.38623" lon="2.09209">
        <ele>2117</ele>
        <time>2018-09-02T06:54:11Z</time>
      </trkpt>
      <trkpt lat="42.38615" lon="2.09216">
        <ele>2118</ele>
        <time>2018-09-02T06:54:23Z</time>
      </trkpt>
      <trkpt lat="42.38612" lon="2.0922">
        <ele>2119</ele>
        <time>2018-09-02T06:54:28Z</time>
      </trkpt>
      <trkpt lat="42.38606" lon="2.09224">
        <ele>2120</ele>
        <time>2018-09-02T06:54:36Z</time>
      </trkpt>
      <trkpt lat="42.38591" lon="2.09244">
        <ele>2126</ele>
        <time>2018-09-02T06:55:16Z</time>
      </trkpt>
      <trkpt lat="42.38589" lon="2.09253">
        <ele>2128</ele>
        <time>2018-09-02T06:55:28Z</time>
      </trkpt>
      <trkpt lat="42.38586" lon="2.09258">
        <ele>2129</ele>
        <time>2018-09-02T06:55:34Z</time>
      </trkpt>
      <trkpt lat="42.3858" lon="2.09264">
        <ele>2131</ele>
        <time>2018-09-02T06:55:47Z</time>
      </trkpt>
      <trkpt lat="42.38579" lon="2.09271">
        <ele>2132</ele>
        <time>2018-09-02T06:55:54Z</time>
      </trkpt>
      <trkpt lat="42.38575" lon="2.09275">
        <ele>2133</ele>
        <time>2018-09-02T06:55:59Z</time>
      </trkpt>
      <trkpt lat="42.38571" lon="2.09279">
        <ele>2134</ele>
        <time>2018-09-02T06:56:07Z</time>
      </trkpt>
      <trkpt lat="42.38569" lon="2.09288">
        <ele>2135</ele>
        <time>2018-09-02T06:56:19Z</time>
      </trkpt>
      <trkpt lat="42.38564" lon="2.09296">
        <ele>2137</ele>
        <time>2018-09-02T06:56:31Z</time>
      </trkpt>
      <trkpt lat="42.3856" lon="2.09306">
        <ele>2139</ele>
        <time>2018-09-02T06:56:43Z</time>
      </trkpt>
      <trkpt lat="42.38559" lon="2.09312">
        <ele>2139</ele>
        <time>2018-09-02T06:56:49Z</time>
      </trkpt>
      <trkpt lat="42.38558" lon="2.09318">
        <ele>2140</ele>
        <time>2018-09-02T06:56:55Z</time>
      </trkpt>
      <trkpt lat="42.38555" lon="2.09326">
        <ele>2142</ele>
        <time>2018-09-02T06:57:07Z</time>
      </trkpt>
      <trkpt lat="42.38553" lon="2.09333">
        <ele>2143</ele>
        <time>2018-09-02T06:57:18Z</time>
      </trkpt>
      <trkpt lat="42.38554" lon="2.09341">
        <ele>2145</ele>
        <time>2018-09-02T06:57:29Z</time>
      </trkpt>
      <trkpt lat="42.38547" lon="2.09362">
        <ele>2150</ele>
        <time>2018-09-02T06:58:07Z</time>
      </trkpt>
      <trkpt lat="42.38542" lon="2.09368">
        <ele>2152</ele>
        <time>2018-09-02T06:58:19Z</time>
      </trkpt>
      <trkpt lat="42.38542" lon="2.09376">
        <ele>2153</ele>
        <time>2018-09-02T06:58:25Z</time>
      </trkpt>
      <trkpt lat="42.38543" lon="2.09382">
        <ele>2154</ele>
        <time>2018-09-02T06:58:33Z</time>
      </trkpt>
      <trkpt lat="42.38543" lon="2.09389">
        <ele>2155</ele>
        <time>2018-09-02T06:58:39Z</time>
      </trkpt>
      <trkpt lat="42.38546" lon="2.09412">
        <ele>2157</ele>
        <time>2018-09-02T06:59:00Z</time>
      </trkpt>
      <trkpt lat="42.38546" lon="2.09421">
        <ele>2159</ele>
        <time>2018-09-02T06:59:12Z</time>
      </trkpt>
      <trkpt lat="42.38545" lon="2.09431">
        <ele>2160</ele>
        <time>2018-09-02T06:59:23Z</time>
      </trkpt>
      <trkpt lat="42.38538" lon="2.09452">
        <ele>2165</ele>
        <time>2018-09-02T06:59:56Z</time>
      </trkpt>
      <trkpt lat="42.38538" lon="2.0946">
        <ele>2166</ele>
        <time>2018-09-02T07:00:06Z</time>
      </trkpt>
      <trkpt lat="42.38535" lon="2.0947">
        <ele>2168</ele>
        <time>2018-09-02T07:00:18Z</time>
      </trkpt>
      <trkpt lat="42.38537" lon="2.09481">
        <ele>2170</ele>
        <time>2018-09-02T07:00:34Z</time>
      </trkpt>
      <trkpt lat="42.38535" lon="2.09491">
        <ele>2171</ele>
        <time>2018-09-02T07:01:09Z</time>
      </trkpt>
      <trkpt lat="42.38528" lon="2.09507">
        <ele>2175</ele>
        <time>2018-09-02T07:01:32Z</time>
      </trkpt>
      <trkpt lat="42.38526" lon="2.09517">
        <ele>2177</ele>
        <time>2018-09-02T07:01:43Z</time>
      </trkpt>
      <trkpt lat="42.38526" lon="2.09524">
        <ele>2178</ele>
        <time>2018-09-02T07:01:51Z</time>
      </trkpt>
      <trkpt lat="42.38521" lon="2.09548">
        <ele>2183</ele>
        <time>2018-09-02T07:02:24Z</time>
      </trkpt>
      <trkpt lat="42.38519" lon="2.09573">
        <ele>2187</ele>
        <time>2018-09-02T07:02:56Z</time>
      </trkpt>
      <trkpt lat="42.38515" lon="2.09582">
        <ele>2190</ele>
        <time>2018-09-02T07:03:18Z</time>
      </trkpt>
      <trkpt lat="42.38505" lon="2.09593">
        <ele>2194</ele>
        <time>2018-09-02T07:03:42Z</time>
      </trkpt>
      <trkpt lat="42.38502" lon="2.09599">
        <ele>2196</ele>
        <time>2018-09-02T07:03:54Z</time>
      </trkpt>
      <trkpt lat="42.38497" lon="2.09604">
        <ele>2197</ele>
        <time>2018-09-02T07:04:13Z</time>
      </trkpt>
      <trkpt lat="42.38492" lon="2.09613">
        <ele>2199</ele>
        <time>2018-09-02T07:04:30Z</time>
      </trkpt>
      <trkpt lat="42.38486" lon="2.09614">
        <ele>2201</ele>
        <time>2018-09-02T07:04:40Z</time>
      </trkpt>
      <trkpt lat="42.38481" lon="2.09617">
        <ele>2203</ele>
        <time>2018-09-02T07:04:50Z</time>
      </trkpt>
      <trkpt lat="42.38476" lon="2.09609">
        <ele>2204</ele>
        <time>2018-09-02T07:05:01Z</time>
      </trkpt>
      <trkpt lat="42.38475" lon="2.09598">
        <ele>2205</ele>
        <time>2018-09-02T07:05:10Z</time>
      </trkpt>
      <trkpt lat="42.38472" lon="2.0959">
        <ele>2205</ele>
        <time>2018-09-02T07:05:17Z</time>
      </trkpt>
      <trkpt lat="42.38467" lon="2.09589">
        <ele>2205</ele>
        <time>2018-09-02T07:05:23Z</time>
      </trkpt>
      <trkpt lat="42.38458" lon="2.09588">
        <ele>2206</ele>
        <time>2018-09-02T07:05:37Z</time>
      </trkpt>
      <trkpt lat="42.38453" lon="2.09589">
        <ele>2210</ele>
        <time>2018-09-02T07:07:01Z</time>
      </trkpt>
      <trkpt lat="42.38451" lon="2.09597">
        <ele>2210</ele>
        <time>2018-09-02T07:07:43Z</time>
      </trkpt>
      <trkpt lat="42.38448" lon="2.09601">
        <ele>2211</ele>
        <time>2018-09-02T07:07:49Z</time>
      </trkpt>
      <trkpt lat="42.38443" lon="2.09604">
        <ele>2213</ele>
        <time>2018-09-02T07:08:13Z</time>
      </trkpt>
      <trkpt lat="42.38443" lon="2.09616">
        <ele>2215</ele>
        <time>2018-09-02T07:08:23Z</time>
      </trkpt>
      <trkpt lat="42.3844" lon="2.09628">
        <ele>2218</ele>
        <time>2018-09-02T07:08:43Z</time>
      </trkpt>
      <trkpt lat="42.38431" lon="2.0964">
        <ele>2222</ele>
        <time>2018-09-02T07:09:07Z</time>
      </trkpt>
      <trkpt lat="42.38433" lon="2.09647">
        <ele>2224</ele>
        <time>2018-09-02T07:10:19Z</time>
      </trkpt>
      <trkpt lat="42.38428" lon="2.09655">
        <ele>2230</ele>
        <time>2018-09-02T07:11:07Z</time>
      </trkpt>
      <trkpt lat="42.38423" lon="2.09659">
        <ele>2233</ele>
        <time>2018-09-02T07:11:26Z</time>
      </trkpt>
      <trkpt lat="42.38418" lon="2.09665">
        <ele>2236</ele>
        <time>2018-09-02T07:11:45Z</time>
      </trkpt>
      <trkpt lat="42.38406" lon="2.09674">
        <ele>2239</ele>
        <time>2018-09-02T07:12:13Z</time>
      </trkpt>
      <trkpt lat="42.38407" lon="2.09682">
        <ele>2241</ele>
        <time>2018-09-02T07:12:25Z</time>
      </trkpt>
      <trkpt lat="42.38403" lon="2.09686">
        <ele>2248</ele>
        <time>2018-09-02T07:13:08Z</time>
      </trkpt>
      <trkpt lat="42.38402" lon="2.09693">
        <ele>2253</ele>
        <time>2018-09-02T07:13:45Z</time>
      </trkpt>
      <trkpt lat="42.38398" lon="2.09697">
        <ele>2255</ele>
        <time>2018-09-02T07:14:03Z</time>
      </trkpt>
      <trkpt lat="42.38396" lon="2.09712">
        <ele>2257</ele>
        <time>2018-09-02T07:14:21Z</time>
      </trkpt>
      <trkpt lat="42.38391" lon="2.09712">
        <ele>2258</ele>
        <time>2018-09-02T07:14:25Z</time>
      </trkpt>
      <trkpt lat="42.38386" lon="2.09714">
        <ele>2259</ele>
        <time>2018-09-02T07:14:35Z</time>
      </trkpt>
      <trkpt lat="42.38382" lon="2.09719">
        <ele>2264</ele>
        <time>2018-09-02T07:15:11Z</time>
      </trkpt>
      <trkpt lat="42.38373" lon="2.09724">
        <ele>2272</ele>
        <time>2018-09-02T07:16:00Z</time>
      </trkpt>
      <trkpt lat="42.38367" lon="2.09725">
        <ele>2276</ele>
        <time>2018-09-02T07:16:24Z</time>
      </trkpt>
      <trkpt lat="42.38364" lon="2.09733">
        <ele>2280</ele>
        <time>2018-09-02T07:16:48Z</time>
      </trkpt>
      <trkpt lat="42.38363" lon="2.0974">
        <ele>2282</ele>
        <time>2018-09-02T07:17:30Z</time>
      </trkpt>
      <trkpt lat="42.38362" lon="2.09748">
        <ele>2284</ele>
        <time>2018-09-02T07:17:42Z</time>
      </trkpt>
      <trkpt lat="42.38363" lon="2.09754">
        <ele>2286</ele>
        <time>2018-09-02T07:17:54Z</time>
      </trkpt>
      <trkpt lat="42.38363" lon="2.09762">
        <ele>2291</ele>
        <time>2018-09-02T07:18:18Z</time>
      </trkpt>
      <trkpt lat="42.38366" lon="2.09768">
        <ele>2296</ele>
        <time>2018-09-02T07:18:48Z</time>
      </trkpt>
      <trkpt lat="42.38363" lon="2.09775">
        <ele>2298</ele>
        <time>2018-09-02T07:19:00Z</time>
      </trkpt>
      <trkpt lat="42.38358" lon="2.09779">
        <ele>2300</ele>
        <time>2018-09-02T07:19:10Z</time>
      </trkpt>
      <trkpt lat="42.38355" lon="2.09784">
        <ele>2304</ele>
        <time>2018-09-02T07:19:33Z</time>
      </trkpt>
      <trkpt lat="42.3835" lon="2.09788">
        <ele>2305</ele>
        <time>2018-09-02T07:19:43Z</time>
      </trkpt>
      <trkpt lat="42.38349" lon="2.09794">
        <ele>2307</ele>
        <time>2018-09-02T07:19:53Z</time>
      </trkpt>
      <trkpt lat="42.38348" lon="2.09802">
        <ele>2313</ele>
        <time>2018-09-02T07:20:38Z</time>
      </trkpt>
      <trkpt lat="42.38349" lon="2.09809">
        <ele>2314</ele>
        <time>2018-09-02T07:20:43Z</time>
      </trkpt>
      <trkpt lat="42.38346" lon="2.09826">
        <ele>2317</ele>
        <time>2018-09-02T07:21:06Z</time>
      </trkpt>
      <trkpt lat="42.38347" lon="2.09844">
        <ele>2320</ele>
        <time>2018-09-02T07:21:44Z</time>
      </trkpt>
      <trkpt lat="42.38345" lon="2.09864">
        <ele>2324</ele>
        <time>2018-09-02T07:22:08Z</time>
      </trkpt>
      <trkpt lat="42.38344" lon="2.09873">
        <ele>2327</ele>
        <time>2018-09-02T07:22:26Z</time>
      </trkpt>
      <trkpt lat="42.38339" lon="2.09875">
        <ele>2329</ele>
        <time>2018-09-02T07:22:38Z</time>
      </trkpt>
      <trkpt lat="42.38342" lon="2.09882">
        <ele>2332</ele>
        <time>2018-09-02T07:22:56Z</time>
      </trkpt>
      <trkpt lat="42.38343" lon="2.09888">
        <ele>2338</ele>
        <time>2018-09-02T07:23:26Z</time>
      </trkpt>
      <trkpt lat="42.38348" lon="2.09891">
        <ele>2341</ele>
        <time>2018-09-02T07:23:44Z</time>
      </trkpt>
      <trkpt lat="42.38346" lon="2.09898">
        <ele>2344</ele>
        <time>2018-09-02T07:24:04Z</time>
      </trkpt>
      <trkpt lat="42.38338" lon="2.09908">
        <ele>2346</ele>
        <time>2018-09-02T07:24:21Z</time>
      </trkpt>
      <trkpt lat="42.38335" lon="2.09913">
        <ele>2348</ele>
        <time>2018-09-02T07:24:33Z</time>
      </trkpt>
      <trkpt lat="42.38337" lon="2.09921">
        <ele>2350</ele>
        <time>2018-09-02T07:24:45Z</time>
      </trkpt>
      <trkpt lat="42.38336" lon="2.09929">
        <ele>2353</ele>
        <time>2018-09-02T07:25:03Z</time>
      </trkpt>
      <trkpt lat="42.38333" lon="2.09944">
        <ele>2360</ele>
        <time>2018-09-02T07:25:45Z</time>
      </trkpt>
      <trkpt lat="42.38337" lon="2.09949">
        <ele>2363</ele>
        <time>2018-09-02T07:26:03Z</time>
      </trkpt>
      <trkpt lat="42.38335" lon="2.09955">
        <ele>2365</ele>
        <time>2018-09-02T07:26:15Z</time>
      </trkpt>
      <trkpt lat="42.38339" lon="2.09958">
        <ele>2367</ele>
        <time>2018-09-02T07:26:33Z</time>
      </trkpt>
      <trkpt lat="42.38342" lon="2.09963">
        <ele>2369</ele>
        <time>2018-09-02T07:26:57Z</time>
      </trkpt>
      <trkpt lat="42.38346" lon="2.09968">
        <ele>2371</ele>
        <time>2018-09-02T07:27:15Z</time>
      </trkpt>
      <trkpt lat="42.3835" lon="2.09971">
        <ele>2373</ele>
        <time>2018-09-02T07:27:27Z</time>
      </trkpt>
      <trkpt lat="42.38352" lon="2.09978">
        <ele>2376</ele>
        <time>2018-09-02T07:27:45Z</time>
      </trkpt>
      <trkpt lat="42.3835" lon="2.09984">
        <ele>2379</ele>
        <time>2018-09-02T07:28:03Z</time>
      </trkpt>
      <trkpt lat="42.38358" lon="2.09986">
        <ele>2382</ele>
        <time>2018-09-02T07:28:20Z</time>
      </trkpt>
      <trkpt lat="42.38361" lon="2.09998">
        <ele>2387</ele>
        <time>2018-09-02T07:28:58Z</time>
      </trkpt>
      <trkpt lat="42.3837" lon="2.1">
        <ele>2391</ele>
        <time>2018-09-02T07:29:18Z</time>
      </trkpt>
      <trkpt lat="42.38362" lon="2.10009">
        <ele>2398</ele>
        <time>2018-09-02T07:30:04Z</time>
      </trkpt>
      <trkpt lat="42.3836" lon="2.10014">
        <ele>2400</ele>
        <time>2018-09-02T07:30:22Z</time>
      </trkpt>
      <trkpt lat="42.38354" lon="2.10014">
        <ele>2402</ele>
        <time>2018-09-02T07:30:34Z</time>
      </trkpt>
      <trkpt lat="42.38358" lon="2.1002">
        <ele>2405</ele>
        <time>2018-09-02T07:30:46Z</time>
      </trkpt>
      <trkpt lat="42.38362" lon="2.10022">
        <ele>2405</ele>
        <time>2018-09-02T07:30:51Z</time>
      </trkpt>
      <trkpt lat="42.38365" lon="2.10029">
        <ele>2408</ele>
        <time>2018-09-02T07:31:06Z</time>
      </trkpt>
      <trkpt lat="42.38364" lon="2.10048">
        <ele>2415</ele>
        <time>2018-09-02T07:31:54Z</time>
      </trkpt>
      <trkpt lat="42.38361" lon="2.10054">
        <ele>2416</ele>
        <time>2018-09-02T07:32:05Z</time>
      </trkpt>
      <trkpt lat="42.38365" lon="2.10063">
        <ele>2419</ele>
        <time>2018-09-02T07:32:19Z</time>
      </trkpt>
      <trkpt lat="42.38357" lon="2.10068">
        <ele>2422</ele>
        <time>2018-09-02T07:32:38Z</time>
      </trkpt>
      <trkpt lat="42.38355" lon="2.10075">
        <ele>2424</ele>
        <time>2018-09-02T07:32:44Z</time>
      </trkpt>
      <trkpt lat="42.38356" lon="2.10082">
        <ele>2425</ele>
        <time>2018-09-02T07:32:58Z</time>
      </trkpt>
      <trkpt lat="42.38352" lon="2.10087">
        <ele>2426</ele>
        <time>2018-09-02T07:33:46Z</time>
      </trkpt>
      <trkpt lat="42.38357" lon="2.10103">
        <ele>2430</ele>
        <time>2018-09-02T07:34:11Z</time>
      </trkpt>
      <trkpt lat="42.38354" lon="2.10111">
        <ele>2432</ele>
        <time>2018-09-02T07:34:38Z</time>
      </trkpt>
      <trkpt lat="42.38355" lon="2.10117">
        <ele>2433</ele>
        <time>2018-09-02T07:34:46Z</time>
      </trkpt>
      <trkpt lat="42.38349" lon="2.10122">
        <ele>2436</ele>
        <time>2018-09-02T07:34:58Z</time>
      </trkpt>
      <trkpt lat="42.38351" lon="2.1013">
        <ele>2439</ele>
        <time>2018-09-02T07:35:16Z</time>
      </trkpt>
      <trkpt lat="42.38351" lon="2.10138">
        <ele>2442</ele>
        <time>2018-09-02T07:35:28Z</time>
      </trkpt>
      <trkpt lat="42.38349" lon="2.10146">
        <ele>2444</ele>
        <time>2018-09-02T07:35:40Z</time>
      </trkpt>
      <trkpt lat="42.38349" lon="2.10153">
        <ele>2446</ele>
        <time>2018-09-02T07:35:51Z</time>
      </trkpt>
      <trkpt lat="42.38349" lon="2.1016">
        <ele>2449</ele>
        <time>2018-09-02T07:36:06Z</time>
      </trkpt>
      <trkpt lat="42.38347" lon="2.10166">
        <ele>2450</ele>
        <time>2018-09-02T07:36:16Z</time>
      </trkpt>
      <trkpt lat="42.3835" lon="2.10172">
        <ele>2452</ele>
        <time>2018-09-02T07:36:26Z</time>
      </trkpt>
      <trkpt lat="42.3835" lon="2.10179">
        <ele>2457</ele>
        <time>2018-09-02T07:37:00Z</time>
      </trkpt>
      <trkpt lat="42.38347" lon="2.10185">
        <ele>2459</ele>
        <time>2018-09-02T07:37:13Z</time>
      </trkpt>
      <trkpt lat="42.38342" lon="2.10202">
        <ele>2463</ele>
        <time>2018-09-02T07:37:34Z</time>
      </trkpt>
      <trkpt lat="42.38343" lon="2.10208">
        <ele>2466</ele>
        <time>2018-09-02T07:37:53Z</time>
      </trkpt>
      <trkpt lat="42.38343" lon="2.10214">
        <ele>2468</ele>
        <time>2018-09-02T07:38:05Z</time>
      </trkpt>
      <trkpt lat="42.3834" lon="2.10219">
        <ele>2470</ele>
        <time>2018-09-02T07:38:17Z</time>
      </trkpt>
      <trkpt lat="42.38343" lon="2.10227">
        <ele>2472</ele>
        <time>2018-09-02T07:38:30Z</time>
      </trkpt>
      <trkpt lat="42.38342" lon="2.1024">
        <ele>2473</ele>
        <time>2018-09-02T07:38:40Z</time>
      </trkpt>
      <trkpt lat="42.38338" lon="2.10251">
        <ele>2475</ele>
        <time>2018-09-02T07:38:51Z</time>
      </trkpt>
      <trkpt lat="42.38337" lon="2.10273">
        <ele>2479</ele>
        <time>2018-09-02T07:39:11Z</time>
      </trkpt>
      <trkpt lat="42.38333" lon="2.10278">
        <ele>2482</ele>
        <time>2018-09-02T07:39:29Z</time>
      </trkpt>
      <trkpt lat="42.38328" lon="2.10281">
        <ele>2486</ele>
        <time>2018-09-02T07:39:53Z</time>
      </trkpt>
      <trkpt lat="42.38326" lon="2.10292">
        <ele>2490</ele>
        <time>2018-09-02T07:40:19Z</time>
      </trkpt>
      <trkpt lat="42.38322" lon="2.10296">
        <ele>2492</ele>
        <time>2018-09-02T07:40:31Z</time>
      </trkpt>
      <trkpt lat="42.38325" lon="2.10302">
        <ele>2497</ele>
        <time>2018-09-02T07:41:01Z</time>
      </trkpt>
      <trkpt lat="42.3832" lon="2.10328">
        <ele>2503</ele>
        <time>2018-09-02T07:41:43Z</time>
      </trkpt>
      <trkpt lat="42.38323" lon="2.10335">
        <ele>2506</ele>
        <time>2018-09-02T07:42:01Z</time>
      </trkpt>
      <trkpt lat="42.38322" lon="2.10341">
        <ele>2508</ele>
        <time>2018-09-02T07:42:13Z</time>
      </trkpt>
      <trkpt lat="42.38325" lon="2.10346">
        <ele>2511</ele>
        <time>2018-09-02T07:42:31Z</time>
      </trkpt>
      <trkpt lat="42.38325" lon="2.10354">
        <ele>2514</ele>
        <time>2018-09-02T07:42:49Z</time>
      </trkpt>
      <trkpt lat="42.38327" lon="2.10359">
        <ele>2516</ele>
        <time>2018-09-02T07:43:01Z</time>
      </trkpt>
      <trkpt lat="42.38324" lon="2.10364">
        <ele>2517</ele>
        <time>2018-09-02T07:43:17Z</time>
      </trkpt>
      <trkpt lat="42.38325" lon="2.10373">
        <ele>2525</ele>
        <time>2018-09-02T07:44:04Z</time>
      </trkpt>
      <trkpt lat="42.38324" lon="2.1038">
        <ele>2527</ele>
        <time>2018-09-02T07:44:22Z</time>
      </trkpt>
      <trkpt lat="42.38328" lon="2.10386">
        <ele>2531</ele>
        <time>2018-09-02T07:44:46Z</time>
      </trkpt>
      <trkpt lat="42.38329" lon="2.10392">
        <ele>2533</ele>
        <time>2018-09-02T07:44:58Z</time>
      </trkpt>
      <trkpt lat="42.38334" lon="2.10395">
        <ele>2534</ele>
        <time>2018-09-02T07:45:10Z</time>
      </trkpt>
      <trkpt lat="42.38327" lon="2.104">
        <ele>2538</ele>
        <time>2018-09-02T07:45:31Z</time>
      </trkpt>
      <trkpt lat="42.38325" lon="2.10408">
        <ele>2540</ele>
        <time>2018-09-02T07:45:56Z</time>
      </trkpt>
      <trkpt lat="42.38322" lon="2.10417">
        <ele>2543</ele>
        <time>2018-09-02T07:46:16Z</time>
      </trkpt>
      <trkpt lat="42.38322" lon="2.10423">
        <ele>2544</ele>
        <time>2018-09-02T07:46:22Z</time>
      </trkpt>
      <trkpt lat="42.38324" lon="2.10439">
        <ele>2547</ele>
        <time>2018-09-02T07:46:40Z</time>
      </trkpt>
      <trkpt lat="42.38324" lon="2.10447">
        <ele>2549</ele>
        <time>2018-09-02T07:46:52Z</time>
      </trkpt>
      <trkpt lat="42.3832" lon="2.10443">
        <ele>2551</ele>
        <time>2018-09-02T07:47:04Z</time>
      </trkpt>
      <trkpt lat="42.38315" lon="2.10456">
        <ele>2553</ele>
        <time>2018-09-02T07:47:18Z</time>
      </trkpt>
      <trkpt lat="42.38312" lon="2.1046">
        <ele>2554</ele>
        <time>2018-09-02T07:47:25Z</time>
      </trkpt>
      <trkpt lat="42.38306" lon="2.10464">
        <ele>2555</ele>
        <time>2018-09-02T07:47:36Z</time>
      </trkpt>
      <trkpt lat="42.38302" lon="2.10469">
        <ele>2555</ele>
        <time>2018-09-02T07:47:56Z</time>
      </trkpt>
      <trkpt lat="42.38297" lon="2.10469">
        <ele>2558</ele>
        <time>2018-09-02T07:48:08Z</time>
      </trkpt>
      <trkpt lat="42.38293" lon="2.10476">
        <ele>2561</ele>
        <time>2018-09-02T07:48:26Z</time>
      </trkpt>
      <trkpt lat="42.3829" lon="2.1049">
        <ele>2563</ele>
        <time>2018-09-02T07:48:39Z</time>
      </trkpt>
      <trkpt lat="42.38287" lon="2.10495">
        <ele>2564</ele>
        <time>2018-09-02T07:48:47Z</time>
      </trkpt>
      <trkpt lat="42.38283" lon="2.10498">
        <ele>2565</ele>
        <time>2018-09-02T07:48:59Z</time>
      </trkpt>
      <trkpt lat="42.38285" lon="2.10507">
        <ele>2567</ele>
        <time>2018-09-02T07:49:12Z</time>
      </trkpt>
      <trkpt lat="42.3828" lon="2.1051">
        <ele>2569</ele>
        <time>2018-09-02T07:49:24Z</time>
      </trkpt>
      <trkpt lat="42.38283" lon="2.10516">
        <ele>2571</ele>
        <time>2018-09-02T07:49:36Z</time>
      </trkpt>
      <trkpt lat="42.38275" lon="2.10525">
        <ele>2575</ele>
        <time>2018-09-02T07:50:00Z</time>
      </trkpt>
      <trkpt lat="42.38272" lon="2.10532">
        <ele>2577</ele>
        <time>2018-09-02T07:50:08Z</time>
      </trkpt>
      <trkpt lat="42.38269" lon="2.10535">
        <ele>2578</ele>
        <time>2018-09-02T07:50:20Z</time>
      </trkpt>
      <trkpt lat="42.38269" lon="2.10555">
        <ele>2585</ele>
        <time>2018-09-02T07:51:02Z</time>
      </trkpt>
      <trkpt lat="42.38267" lon="2.10563">
        <ele>2588</ele>
        <time>2018-09-02T07:51:18Z</time>
      </trkpt>
      <trkpt lat="42.38267" lon="2.10575">
        <ele>2589</ele>
        <time>2018-09-02T07:51:28Z</time>
      </trkpt>
      <trkpt lat="42.3826" lon="2.10584">
        <ele>2592</ele>
        <time>2018-09-02T07:51:45Z</time>
      </trkpt>
      <trkpt lat="42.38258" lon="2.1059">
        <ele>2595</ele>
        <time>2018-09-02T07:52:00Z</time>
      </trkpt>
      <trkpt lat="42.38253" lon="2.10598">
        <ele>2598</ele>
        <time>2018-09-02T07:52:18Z</time>
      </trkpt>
      <trkpt lat="42.38252" lon="2.10607">
        <ele>2602</ele>
        <time>2018-09-02T07:52:42Z</time>
      </trkpt>
      <trkpt lat="42.38247" lon="2.10616">
        <ele>2603</ele>
        <time>2018-09-02T07:52:54Z</time>
      </trkpt>
      <trkpt lat="42.38243" lon="2.10619">
        <ele>2606</ele>
        <time>2018-09-02T07:53:06Z</time>
      </trkpt>
      <trkpt lat="42.38243" lon="2.10629">
        <ele>2608</ele>
        <time>2018-09-02T07:53:18Z</time>
      </trkpt>
      <trkpt lat="42.38239" lon="2.10636">
        <ele>2610</ele>
        <time>2018-09-02T07:53:30Z</time>
      </trkpt>
      <trkpt lat="42.38238" lon="2.10643">
        <ele>2612</ele>
        <time>2018-09-02T07:53:42Z</time>
      </trkpt>
      <trkpt lat="42.38234" lon="2.10646">
        <ele>2614</ele>
        <time>2018-09-02T07:53:54Z</time>
      </trkpt>
      <trkpt lat="42.38231" lon="2.10652">
        <ele>2616</ele>
        <time>2018-09-02T07:54:06Z</time>
      </trkpt>
      <trkpt lat="42.3823" lon="2.1066">
        <ele>2618</ele>
        <time>2018-09-02T07:54:18Z</time>
      </trkpt>
      <trkpt lat="42.38226" lon="2.10664">
        <ele>2620</ele>
        <time>2018-09-02T07:54:30Z</time>
      </trkpt>
      <trkpt lat="42.38227" lon="2.10673">
        <ele>2622</ele>
        <time>2018-09-02T07:54:42Z</time>
      </trkpt>
      <trkpt lat="42.38223" lon="2.10679">
        <ele>2624</ele>
        <time>2018-09-02T07:54:54Z</time>
      </trkpt>
      <trkpt lat="42.3822" lon="2.10686">
        <ele>2626</ele>
        <time>2018-09-02T07:55:06Z</time>
      </trkpt>
      <trkpt lat="42.38212" lon="2.10701">
        <ele>2628</ele>
        <time>2018-09-02T07:55:24Z</time>
      </trkpt>
      <trkpt lat="42.38202" lon="2.1072">
        <ele>2631</ele>
        <time>2018-09-02T07:55:44Z</time>
      </trkpt>
      <trkpt lat="42.382" lon="2.10732">
        <ele>2633</ele>
        <time>2018-09-02T07:55:55Z</time>
      </trkpt>
      <trkpt lat="42.38197" lon="2.1074">
        <ele>2633</ele>
        <time>2018-09-02T07:56:04Z</time>
      </trkpt>
      <trkpt lat="42.38197" lon="2.10748">
        <ele>2635</ele>
        <time>2018-09-02T07:56:16Z</time>
      </trkpt>
      <trkpt lat="42.38196" lon="2.10765">
        <ele>2640</ele>
        <time>2018-09-02T07:56:48Z</time>
      </trkpt>
      <trkpt lat="42.38195" lon="2.10773">
        <ele>2642</ele>
        <time>2018-09-02T07:57:00Z</time>
      </trkpt>
      <trkpt lat="42.38194" lon="2.10782">
        <ele>2645</ele>
        <time>2018-09-02T07:57:18Z</time>
      </trkpt>
      <trkpt lat="42.38195" lon="2.10789">
        <ele>2648</ele>
        <time>2018-09-02T07:57:36Z</time>
      </trkpt>
      <trkpt lat="42.38192" lon="2.10796">
        <ele>2650</ele>
        <time>2018-09-02T07:57:54Z</time>
      </trkpt>
      <trkpt lat="42.38194" lon="2.10807">
        <ele>2654</ele>
        <time>2018-09-02T07:58:18Z</time>
      </trkpt>
      <trkpt lat="42.38197" lon="2.10813">
        <ele>2656</ele>
        <time>2018-09-02T07:58:30Z</time>
      </trkpt>
      <trkpt lat="42.38201" lon="2.10817">
        <ele>2659</ele>
        <time>2018-09-02T07:58:48Z</time>
      </trkpt>
      <trkpt lat="42.382" lon="2.10831">
        <ele>2665</ele>
        <time>2018-09-02T07:59:30Z</time>
      </trkpt>
      <trkpt lat="42.382" lon="2.10839">
        <ele>2668</ele>
        <time>2018-09-02T07:59:54Z</time>
      </trkpt>
      <trkpt lat="42.38204" lon="2.10844">
        <ele>2669</ele>
        <time>2018-09-02T08:00:00Z</time>
      </trkpt>
      <trkpt lat="42.38203" lon="2.10851">
        <ele>2672</ele>
        <time>2018-09-02T08:00:14Z</time>
      </trkpt>
      <trkpt lat="42.38203" lon="2.10858">
        <ele>2676</ele>
        <time>2018-09-02T08:00:44Z</time>
      </trkpt>
      <trkpt lat="42.38202" lon="2.10874">
        <ele>2680</ele>
        <time>2018-09-02T08:01:14Z</time>
      </trkpt>
      <trkpt lat="42.38197" lon="2.10882">
        <ele>2683</ele>
        <time>2018-09-02T08:01:33Z</time>
      </trkpt>
      <trkpt lat="42.38195" lon="2.10891">
        <ele>2685</ele>
        <time>2018-09-02T08:01:51Z</time>
      </trkpt>
      <trkpt lat="42.38193" lon="2.10897">
        <ele>2688</ele>
        <time>2018-09-02T08:02:09Z</time>
      </trkpt>
      <trkpt lat="42.38192" lon="2.10904">
        <ele>2690</ele>
        <time>2018-09-02T08:02:27Z</time>
      </trkpt>
      <trkpt lat="42.38191" lon="2.10913">
        <ele>2692</ele>
        <time>2018-09-02T08:02:43Z</time>
      </trkpt>
      <trkpt lat="42.38184" lon="2.1092">
        <ele>2694</ele>
        <time>2018-09-02T08:03:03Z</time>
      </trkpt>
      <trkpt lat="42.38185" lon="2.10926">
        <ele>2696</ele>
        <time>2018-09-02T08:03:13Z</time>
      </trkpt>
      <trkpt lat="42.38186" lon="2.10935">
        <ele>2699</ele>
        <time>2018-09-02T08:03:40Z</time>
      </trkpt>
      <trkpt lat="42.38192" lon="2.10949">
        <ele>2704</ele>
        <time>2018-09-02T08:04:10Z</time>
      </trkpt>
      <trkpt lat="42.38191" lon="2.10956">
        <ele>2707</ele>
        <time>2018-09-02T08:04:28Z</time>
      </trkpt>
      <trkpt lat="42.38195" lon="2.10959">
        <ele>2709</ele>
        <time>2018-09-02T08:04:40Z</time>
      </trkpt>
      <trkpt lat="42.38193" lon="2.10969">
        <ele>2711</ele>
        <time>2018-09-02T08:04:52Z</time>
      </trkpt>
      <trkpt lat="42.38194" lon="2.10977">
        <ele>2713</ele>
        <time>2018-09-02T08:05:10Z</time>
      </trkpt>
      <trkpt lat="42.38196" lon="2.10984">
        <ele>2714</ele>
        <time>2018-09-02T08:05:16Z</time>
      </trkpt>
      <trkpt lat="42.38197" lon="2.1099">
        <ele>2716</ele>
        <time>2018-09-02T08:05:28Z</time>
      </trkpt>
      <trkpt lat="42.382" lon="2.10999">
        <ele>2718</ele>
        <time>2018-09-02T08:05:40Z</time>
      </trkpt>
      <trkpt lat="42.38213" lon="2.11016">
        <ele>2722</ele>
        <time>2018-09-02T08:06:13Z</time>
      </trkpt>
      <trkpt lat="42.38216" lon="2.11025">
        <ele>2724</ele>
        <time>2018-09-02T08:06:25Z</time>
      </trkpt>
      <trkpt lat="42.38218" lon="2.11034">
        <ele>2726</ele>
        <time>2018-09-02T08:06:37Z</time>
      </trkpt>
      <trkpt lat="42.38219" lon="2.11046">
        <ele>2728</ele>
        <time>2018-09-02T08:06:49Z</time>
      </trkpt>
      <trkpt lat="42.38222" lon="2.11055">
        <ele>2729</ele>
        <time>2018-09-02T08:07:02Z</time>
      </trkpt>
      <trkpt lat="42.38219" lon="2.1107">
        <ele>2732</ele>
        <time>2018-09-02T08:07:21Z</time>
      </trkpt>
      <trkpt lat="42.38218" lon="2.11086">
        <ele>2737</ele>
        <time>2018-09-02T08:07:46Z</time>
      </trkpt>
      <trkpt lat="42.38221" lon="2.11093">
        <ele>2738</ele>
        <time>2018-09-02T08:07:58Z</time>
      </trkpt>
      <trkpt lat="42.38221" lon="2.11102">
        <ele>2740</ele>
        <time>2018-09-02T08:08:10Z</time>
      </trkpt>
      <trkpt lat="42.38226" lon="2.11111">
        <ele>2743</ele>
        <time>2018-09-02T08:08:34Z</time>
      </trkpt>
      <trkpt lat="42.38227" lon="2.1112">
        <ele>2745</ele>
        <time>2018-09-02T08:08:46Z</time>
      </trkpt>
      <trkpt lat="42.38224" lon="2.11128">
        <ele>2748</ele>
        <time>2018-09-02T08:09:04Z</time>
      </trkpt>
      <trkpt lat="42.38226" lon="2.11138">
        <ele>2750</ele>
        <time>2018-09-02T08:09:22Z</time>
      </trkpt>
      <trkpt lat="42.38227" lon="2.11151">
        <ele>2754</ele>
        <time>2018-09-02T08:09:46Z</time>
      </trkpt>
      <trkpt lat="42.38226" lon="2.11167">
        <ele>2758</ele>
        <time>2018-09-02T08:10:16Z</time>
      </trkpt>
      <trkpt lat="42.38226" lon="2.11174">
        <ele>2759</ele>
        <time>2018-09-02T08:10:22Z</time>
      </trkpt>
      <trkpt lat="42.38233" lon="2.11193">
        <ele>2763</ele>
        <time>2018-09-02T08:10:52Z</time>
      </trkpt>
      <trkpt lat="42.38234" lon="2.11216">
        <ele>2768</ele>
        <time>2018-09-02T08:11:22Z</time>
      </trkpt>
      <trkpt lat="42.38238" lon="2.11228">
        <ele>2772</ele>
        <time>2018-09-02T08:11:49Z</time>
      </trkpt>
      <trkpt lat="42.38235" lon="2.11233">
        <ele>2775</ele>
        <time>2018-09-02T08:12:07Z</time>
      </trkpt>
      <trkpt lat="42.38234" lon="2.11243">
        <ele>2778</ele>
        <time>2018-09-02T08:12:25Z</time>
      </trkpt>
      <trkpt lat="42.38229" lon="2.11249">
        <ele>2782</ele>
        <time>2018-09-02T08:12:55Z</time>
      </trkpt>
      <trkpt lat="42.38224" lon="2.11253">
        <ele>2784</ele>
        <time>2018-09-02T08:13:13Z</time>
      </trkpt>
      <trkpt lat="42.38226" lon="2.11264">
        <ele>2786</ele>
        <time>2018-09-02T08:13:31Z</time>
      </trkpt>
      <trkpt lat="42.38224" lon="2.11271">
        <ele>2788</ele>
        <time>2018-09-02T08:13:43Z</time>
      </trkpt>
      <trkpt lat="42.38228" lon="2.1128">
        <ele>2790</ele>
        <time>2018-09-02T08:13:55Z</time>
      </trkpt>
      <trkpt lat="42.38231" lon="2.11286">
        <ele>2790</ele>
        <time>2018-09-02T08:14:01Z</time>
      </trkpt>
      <trkpt lat="42.38233" lon="2.11292">
        <ele>2791</ele>
        <time>2018-09-02T08:14:15Z</time>
      </trkpt>
      <trkpt lat="42.38231" lon="2.113">
        <ele>2793</ele>
        <time>2018-09-02T08:14:27Z</time>
      </trkpt>
      <trkpt lat="42.38232" lon="2.11309">
        <ele>2796</ele>
        <time>2018-09-02T08:14:45Z</time>
      </trkpt>
      <trkpt lat="42.38235" lon="2.11325">
        <ele>2799</ele>
        <time>2018-09-02T08:15:09Z</time>
      </trkpt>
      <trkpt lat="42.38232" lon="2.11332">
        <ele>2801</ele>
        <time>2018-09-02T08:15:27Z</time>
      </trkpt>
      <trkpt lat="42.38235" lon="2.11345">
        <ele>2805</ele>
        <time>2018-09-02T08:16:03Z</time>
      </trkpt>
      <trkpt lat="42.38236" lon="2.11351">
        <ele>2806</ele>
        <time>2018-09-02T08:16:08Z</time>
      </trkpt>
      <trkpt lat="42.38234" lon="2.11357">
        <ele>2808</ele>
        <time>2018-09-02T08:16:16Z</time>
      </trkpt>
      <trkpt lat="42.38233" lon="2.11364">
        <ele>2809</ele>
        <time>2018-09-02T08:16:28Z</time>
      </trkpt>
      <trkpt lat="42.38243" lon="2.11375">
        <ele>2811</ele>
        <time>2018-09-02T08:16:52Z</time>
      </trkpt>
      <trkpt lat="42.38241" lon="2.11383">
        <ele>2812</ele>
        <time>2018-09-02T08:17:02Z</time>
      </trkpt>
      <trkpt lat="42.38238" lon="2.11388">
        <ele>2813</ele>
        <time>2018-09-02T08:17:08Z</time>
      </trkpt>
      <trkpt lat="42.38232" lon="2.11391">
        <ele>2815</ele>
        <time>2018-09-02T08:17:20Z</time>
      </trkpt>
      <trkpt lat="42.38228" lon="2.11397">
        <ele>2818</ele>
        <time>2018-09-02T08:17:38Z</time>
      </trkpt>
      <trkpt lat="42.38224" lon="2.11402">
        <ele>2821</ele>
        <time>2018-09-02T08:17:56Z</time>
      </trkpt>
      <trkpt lat="42.3822" lon="2.11407">
        <ele>2824</ele>
        <time>2018-09-02T08:18:17Z</time>
      </trkpt>
      <trkpt lat="42.38221" lon="2.11414">
        <ele>2826</ele>
        <time>2018-09-02T08:18:27Z</time>
      </trkpt>
      <trkpt lat="42.38219" lon="2.11424">
        <ele>2832</ele>
        <time>2018-09-02T08:19:05Z</time>
      </trkpt>
      <trkpt lat="42.38215" lon="2.11427">
        <ele>2834</ele>
        <time>2018-09-02T08:19:17Z</time>
      </trkpt>
      <trkpt lat="42.38211" lon="2.11434">
        <ele>2837</ele>
        <time>2018-09-02T08:19:29Z</time>
      </trkpt>
      <trkpt lat="42.38204" lon="2.1143">
        <ele>2839</ele>
        <time>2018-09-02T08:19:41Z</time>
      </trkpt>
      <trkpt lat="42.38204" lon="2.11439">
        <ele>2841</ele>
        <time>2018-09-02T08:20:00Z</time>
      </trkpt>
      <trkpt lat="42.3821" lon="2.11461">
        <ele>2848</ele>
        <time>2018-09-02T08:20:34Z</time>
      </trkpt>
      <trkpt lat="42.3821" lon="2.11467">
        <ele>2850</ele>
        <time>2018-09-02T08:20:46Z</time>
      </trkpt>
      <trkpt lat="42.38209" lon="2.11474">
        <ele>2854</ele>
        <time>2018-09-02T08:21:10Z</time>
      </trkpt>
      <trkpt lat="42.38208" lon="2.1148">
        <ele>2856</ele>
        <time>2018-09-02T08:21:22Z</time>
      </trkpt>
      <trkpt lat="42.38212" lon="2.11486">
        <ele>2859</ele>
        <time>2018-09-02T08:21:40Z</time>
      </trkpt>
      <trkpt lat="42.38212" lon="2.11492">
        <ele>2862</ele>
        <time>2018-09-02T08:21:58Z</time>
      </trkpt>
      <trkpt lat="42.38217" lon="2.11498">
        <ele>2866</ele>
        <time>2018-09-02T08:22:23Z</time>
      </trkpt>
      <trkpt lat="42.38222" lon="2.11502">
        <ele>2869</ele>
        <time>2018-09-02T08:22:37Z</time>
      </trkpt>
      <trkpt lat="42.38224" lon="2.11511">
        <ele>2871</ele>
        <time>2018-09-02T08:22:55Z</time>
      </trkpt>
      <trkpt lat="42.38228" lon="2.11515">
        <ele>2873</ele>
        <time>2018-09-02T08:23:13Z</time>
      </trkpt>
      <trkpt lat="42.38233" lon="2.11522">
        <ele>2875</ele>
        <time>2018-09-02T08:23:25Z</time>
      </trkpt>
      <trkpt lat="42.38237" lon="2.1154">
        <ele>2879</ele>
        <time>2018-09-02T08:23:55Z</time>
      </trkpt>
      <trkpt lat="42.38243" lon="2.11558">
        <ele>2880</ele>
        <time>2018-09-02T08:24:13Z</time>
      </trkpt>
      <trkpt lat="42.38247" lon="2.11565">
        <ele>2881</ele>
        <time>2018-09-02T08:24:20Z</time>
      </trkpt>
      <trkpt lat="42.38249" lon="2.11571">
        <ele>2881</ele>
        <time>2018-09-02T08:24:25Z</time>
      </trkpt>
      <trkpt lat="42.38263" lon="2.11589">
        <ele>2883</ele>
        <time>2018-09-02T08:24:45Z</time>
      </trkpt>
      <trkpt lat="42.38266" lon="2.11612">
        <ele>2888</ele>
        <time>2018-09-02T08:25:09Z</time>
      </trkpt>
      <trkpt lat="42.38274" lon="2.11616">
        <ele>2889</ele>
        <time>2018-09-02T08:25:21Z</time>
      </trkpt>
      <trkpt lat="42.38293" lon="2.11626">
        <ele>2895</ele>
        <time>2018-09-02T08:25:54Z</time>
      </trkpt>
      <trkpt lat="42.38297" lon="2.11626">
        <ele>2897</ele>
        <time>2018-09-02T08:26:04Z</time>
      </trkpt>
      <trkpt lat="42.38302" lon="2.11635">
        <ele>2900</ele>
        <time>2018-09-02T08:26:19Z</time>
      </trkpt>
      <trkpt lat="42.38307" lon="2.1164">
        <ele>2901</ele>
        <time>2018-09-02T08:26:31Z</time>
      </trkpt>
      <trkpt lat="42.38311" lon="2.11646">
        <ele>2902</ele>
        <time>2018-09-02T08:26:43Z</time>
      </trkpt>
      <trkpt lat="42.38321" lon="2.11652">
        <ele>2903</ele>
        <time>2018-09-02T08:27:00Z</time>
      </trkpt>
      <trkpt lat="42.3832" lon="2.11665">
        <ele>2907</ele>
        <time>2018-09-02T08:27:14Z</time>
      </trkpt>
      <trkpt lat="42.3832" lon="2.11674">
        <ele>2908</ele>
        <time>2018-09-02T08:27:26Z</time>
      </trkpt>
      <trkpt lat="42.38325" lon="2.1168">
        <ele>2909</ele>
        <time>2018-09-02T08:27:38Z</time>
      </trkpt>
      <trkpt lat="42.38327" lon="2.11686">
        <ele>2908</ele>
        <time>2018-09-02T08:27:44Z</time>
      </trkpt>
      <trkpt lat="42.38331" lon="2.11691">
        <ele>2910</ele>
        <time>2018-09-02T08:31:21Z</time>
      </trkpt>
      <trkpt lat="42.38326" lon="2.11697">
        <ele>2909</ele>
        <time>2018-09-02T08:31:39Z</time>
      </trkpt>
      <trkpt lat="42.38326" lon="2.11704">
        <ele>2907</ele>
        <time>2018-09-02T08:33:10Z</time>
      </trkpt>
      <trkpt lat="42.38329" lon="2.11708">
        <ele>2908</ele>
        <time>2018-09-02T08:35:05Z</time>
      </trkpt>
      <trkpt lat="42.38331" lon="2.11718">
        <ele>2908</ele>
        <time>2018-09-02T08:35:16Z</time>
      </trkpt>
      <trkpt lat="42.38334" lon="2.11723">
        <ele>2906</ele>
        <time>2018-09-02T08:35:22Z</time>
      </trkpt>
      <trkpt lat="42.38332" lon="2.11733">
        <ele>2905</ele>
        <time>2018-09-02T08:35:30Z</time>
      </trkpt>
      <trkpt lat="42.38337" lon="2.11736">
        <ele>2904</ele>
        <time>2018-09-02T08:35:35Z</time>
      </trkpt>
      <trkpt lat="42.38342" lon="2.11746">
        <ele>2902</ele>
        <time>2018-09-02T08:35:48Z</time>
      </trkpt>
      <trkpt lat="42.38347" lon="2.11751">
        <ele>2899</ele>
        <time>2018-09-02T08:36:30Z</time>
      </trkpt>
      <trkpt lat="42.38347" lon="2.11761">
        <ele>2895</ele>
        <time>2018-09-02T08:37:18Z</time>
      </trkpt>
      <trkpt lat="42.38346" lon="2.11769">
        <ele>2892</ele>
        <time>2018-09-02T08:37:30Z</time>
      </trkpt>
      <trkpt lat="42.38348" lon="2.11775">
        <ele>2890</ele>
        <time>2018-09-02T08:37:36Z</time>
      </trkpt>
      <trkpt lat="42.38357" lon="2.11785">
        <ele>2887</ele>
        <time>2018-09-02T08:37:47Z</time>
      </trkpt>
      <trkpt lat="42.38363" lon="2.11796">
        <ele>2888</ele>
        <time>2018-09-02T08:37:54Z</time>
      </trkpt>
      <trkpt lat="42.38365" lon="2.11803">
        <ele>2888</ele>
        <time>2018-09-02T08:37:58Z</time>
      </trkpt>
      <trkpt lat="42.38368" lon="2.11808">
        <ele>2888</ele>
        <time>2018-09-02T08:38:01Z</time>
      </trkpt>
      <trkpt lat="42.38372" lon="2.11813">
        <ele>2887</ele>
        <time>2018-09-02T08:38:05Z</time>
      </trkpt>
      <trkpt lat="42.38374" lon="2.1182">
        <ele>2887</ele>
        <time>2018-09-02T08:38:10Z</time>
      </trkpt>
      <trkpt lat="42.38375" lon="2.11826">
        <ele>2887</ele>
        <time>2018-09-02T08:38:14Z</time>
      </trkpt>
      <trkpt lat="42.38378" lon="2.11833">
        <ele>2887</ele>
        <time>2018-09-02T08:38:18Z</time>
      </trkpt>
      <trkpt lat="42.3838" lon="2.1184">
        <ele>2887</ele>
        <time>2018-09-02T08:38:22Z</time>
      </trkpt>
      <trkpt lat="42.38381" lon="2.11847">
        <ele>2887</ele>
        <time>2018-09-02T08:38:26Z</time>
      </trkpt>
      <trkpt lat="42.38381" lon="2.11854">
        <ele>2886</ele>
        <time>2018-09-02T08:38:31Z</time>
      </trkpt>
      <trkpt lat="42.38383" lon="2.1186">
        <ele>2886</ele>
        <time>2018-09-02T08:38:34Z</time>
      </trkpt>
      <trkpt lat="42.38386" lon="2.11866">
        <ele>2886</ele>
        <time>2018-09-02T08:38:38Z</time>
      </trkpt>
      <trkpt lat="42.38389" lon="2.11871">
        <ele>2886</ele>
        <time>2018-09-02T08:38:42Z</time>
      </trkpt>
      <trkpt lat="42.3839" lon="2.11877">
        <ele>2886</ele>
        <time>2018-09-02T08:38:46Z</time>
      </trkpt>
      <trkpt lat="42.38393" lon="2.11883">
        <ele>2886</ele>
        <time>2018-09-02T08:38:50Z</time>
      </trkpt>
      <trkpt lat="42.38397" lon="2.11887">
        <ele>2885</ele>
        <time>2018-09-02T08:38:55Z</time>
      </trkpt>
      <trkpt lat="42.38402" lon="2.11888">
        <ele>2883</ele>
        <time>2018-09-02T08:39:06Z</time>
      </trkpt>
      <trkpt lat="42.38405" lon="2.11892">
        <ele>2882</ele>
        <time>2018-09-02T08:39:16Z</time>
      </trkpt>
      <trkpt lat="42.38409" lon="2.11896">
        <ele>2879</ele>
        <time>2018-09-02T08:39:40Z</time>
      </trkpt>
      <trkpt lat="42.38415" lon="2.11897">
        <ele>2879</ele>
        <time>2018-09-02T08:39:46Z</time>
      </trkpt>
      <trkpt lat="42.38419" lon="2.11898">
        <ele>2877</ele>
        <time>2018-09-02T08:39:54Z</time>
      </trkpt>
      <trkpt lat="42.38424" lon="2.11905">
        <ele>2874</ele>
        <time>2018-09-02T08:40:12Z</time>
      </trkpt>
      <trkpt lat="42.38428" lon="2.11905">
        <ele>2871</ele>
        <time>2018-09-02T08:40:24Z</time>
      </trkpt>
      <trkpt lat="42.38433" lon="2.11913">
        <ele>2868</ele>
        <time>2018-09-02T08:41:00Z</time>
      </trkpt>
      <trkpt lat="42.38435" lon="2.11918">
        <ele>2866</ele>
        <time>2018-09-02T08:41:12Z</time>
      </trkpt>
      <trkpt lat="42.3843" lon="2.11922">
        <ele>2865</ele>
        <time>2018-09-02T08:41:15Z</time>
      </trkpt>
      <trkpt lat="42.38433" lon="2.11927">
        <ele>2864</ele>
        <time>2018-09-02T08:41:23Z</time>
      </trkpt>
      <trkpt lat="42.38438" lon="2.11929">
        <ele>2862</ele>
        <time>2018-09-02T08:41:35Z</time>
      </trkpt>
      <trkpt lat="42.3844" lon="2.11938">
        <ele>2858</ele>
        <time>2018-09-02T08:41:59Z</time>
      </trkpt>
      <trkpt lat="42.38453" lon="2.1193">
        <ele>2853</ele>
        <time>2018-09-02T08:42:23Z</time>
      </trkpt>
      <trkpt lat="42.38457" lon="2.11939">
        <ele>2852</ele>
        <time>2018-09-02T08:42:52Z</time>
      </trkpt>
      <trkpt lat="42.38459" lon="2.11945">
        <ele>2849</ele>
        <time>2018-09-02T08:43:00Z</time>
      </trkpt>
      <trkpt lat="42.38464" lon="2.11949">
        <ele>2845</ele>
        <time>2018-09-02T08:43:12Z</time>
      </trkpt>
      <trkpt lat="42.38466" lon="2.11955">
        <ele>2844</ele>
        <time>2018-09-02T08:43:17Z</time>
      </trkpt>
      <trkpt lat="42.38465" lon="2.1197">
        <ele>2840</ele>
        <time>2018-09-02T08:43:31Z</time>
      </trkpt>
      <trkpt lat="42.38478" lon="2.11986">
        <ele>2833</ele>
        <time>2018-09-02T08:44:05Z</time>
      </trkpt>
      <trkpt lat="42.38482" lon="2.1199">
        <ele>2832</ele>
        <time>2018-09-02T08:44:09Z</time>
      </trkpt>
      <trkpt lat="42.38489" lon="2.1199">
        <ele>2831</ele>
        <time>2018-09-02T08:44:16Z</time>
      </trkpt>
      <trkpt lat="42.38494" lon="2.1199">
        <ele>2830</ele>
        <time>2018-09-02T08:44:21Z</time>
      </trkpt>
      <trkpt lat="42.38499" lon="2.11998">
        <ele>2829</ele>
        <time>2018-09-02T08:44:30Z</time>
      </trkpt>
      <trkpt lat="42.38501" lon="2.12004">
        <ele>2826</ele>
        <time>2018-09-02T08:44:45Z</time>
      </trkpt>
      <trkpt lat="42.385" lon="2.12013">
        <ele>2827</ele>
        <time>2018-09-02T08:45:45Z</time>
      </trkpt>
      <trkpt lat="42.38505" lon="2.12015">
        <ele>2825</ele>
        <time>2018-09-02T08:45:51Z</time>
      </trkpt>
      <trkpt lat="42.38509" lon="2.12011">
        <ele>2824</ele>
        <time>2018-09-02T08:45:57Z</time>
      </trkpt>
      <trkpt lat="42.38516" lon="2.12015">
        <ele>2821</ele>
        <time>2018-09-02T08:46:09Z</time>
      </trkpt>
      <trkpt lat="42.38522" lon="2.12012">
        <ele>2818</ele>
        <time>2018-09-02T08:46:20Z</time>
      </trkpt>
      <trkpt lat="42.38528" lon="2.12017">
        <ele>2818</ele>
        <time>2018-09-02T08:46:33Z</time>
      </trkpt>
      <trkpt lat="42.38527" lon="2.12024">
        <ele>2816</ele>
        <time>2018-09-02T08:46:41Z</time>
      </trkpt>
      <trkpt lat="42.38536" lon="2.12022">
        <ele>2810</ele>
        <time>2018-09-02T08:46:59Z</time>
      </trkpt>
      <trkpt lat="42.3854" lon="2.12019">
        <ele>2808</ele>
        <time>2018-09-02T08:47:09Z</time>
      </trkpt>
      <trkpt lat="42.38547" lon="2.12018">
        <ele>2806</ele>
        <time>2018-09-02T08:47:19Z</time>
      </trkpt>
      <trkpt lat="42.38554" lon="2.12019">
        <ele>2804</ele>
        <time>2018-09-02T08:47:29Z</time>
      </trkpt>
      <trkpt lat="42.3856" lon="2.12013">
        <ele>2801</ele>
        <time>2018-09-02T08:47:39Z</time>
      </trkpt>
      <trkpt lat="42.38562" lon="2.12005">
        <ele>2800</ele>
        <time>2018-09-02T08:47:46Z</time>
      </trkpt>
      <trkpt lat="42.38569" lon="2.12004">
        <ele>2798</ele>
        <time>2018-09-02T08:48:00Z</time>
      </trkpt>
      <trkpt lat="42.38574" lon="2.12">
        <ele>2797</ele>
        <time>2018-09-02T08:48:05Z</time>
      </trkpt>
      <trkpt lat="42.38578" lon="2.12003">
        <ele>2795</ele>
        <time>2018-09-02T08:48:13Z</time>
      </trkpt>
      <trkpt lat="42.38588" lon="2.12007">
        <ele>2792</ele>
        <time>2018-09-02T08:48:24Z</time>
      </trkpt>
      <trkpt lat="42.38589" lon="2.12013">
        <ele>2791</ele>
        <time>2018-09-02T08:48:29Z</time>
      </trkpt>
      <trkpt lat="42.38592" lon="2.12018">
        <ele>2789</ele>
        <time>2018-09-02T08:48:34Z</time>
      </trkpt>
      <trkpt lat="42.386" lon="2.12017">
        <ele>2787</ele>
        <time>2018-09-02T08:48:42Z</time>
      </trkpt>
      <trkpt lat="42.38603" lon="2.12024">
        <ele>2785</ele>
        <time>2018-09-02T08:48:51Z</time>
      </trkpt>
      <trkpt lat="42.38608" lon="2.12025">
        <ele>2783</ele>
        <time>2018-09-02T08:48:57Z</time>
      </trkpt>
      <trkpt lat="42.38614" lon="2.12023">
        <ele>2782</ele>
        <time>2018-09-02T08:49:05Z</time>
      </trkpt>
      <trkpt lat="42.38623" lon="2.12022">
        <ele>2779</ele>
        <time>2018-09-02T08:49:18Z</time>
      </trkpt>
      <trkpt lat="42.38626" lon="2.12026">
        <ele>2778</ele>
        <time>2018-09-02T08:49:23Z</time>
      </trkpt>
      <trkpt lat="42.38632" lon="2.12029">
        <ele>2775</ele>
        <time>2018-09-02T08:49:37Z</time>
      </trkpt>
      <trkpt lat="42.38636" lon="2.12034">
        <ele>2772</ele>
        <time>2018-09-02T08:49:49Z</time>
      </trkpt>
      <trkpt lat="42.3864" lon="2.12042">
        <ele>2767</ele>
        <time>2018-09-02T08:50:13Z</time>
      </trkpt>
      <trkpt lat="42.38645" lon="2.12047">
        <ele>2764</ele>
        <time>2018-09-02T08:50:25Z</time>
      </trkpt>
      <trkpt lat="42.3865" lon="2.12046">
        <ele>2762</ele>
        <time>2018-09-02T08:50:37Z</time>
      </trkpt>
      <trkpt lat="42.38653" lon="2.12053">
        <ele>2759</ele>
        <time>2018-09-02T08:50:49Z</time>
      </trkpt>
      <trkpt lat="42.38653" lon="2.12061">
        <ele>2756</ele>
        <time>2018-09-02T08:51:01Z</time>
      </trkpt>
      <trkpt lat="42.38653" lon="2.12068">
        <ele>2755</ele>
        <time>2018-09-02T08:51:07Z</time>
      </trkpt>
      <trkpt lat="42.38657" lon="2.12077">
        <ele>2752</ele>
        <time>2018-09-02T08:52:25Z</time>
      </trkpt>
      <trkpt lat="42.38661" lon="2.12084">
        <ele>2749</ele>
        <time>2018-09-02T08:52:37Z</time>
      </trkpt>
      <trkpt lat="42.38664" lon="2.12089">
        <ele>2748</ele>
        <time>2018-09-02T08:52:43Z</time>
      </trkpt>
      <trkpt lat="42.3867" lon="2.12095">
        <ele>2744</ele>
        <time>2018-09-02T08:52:58Z</time>
      </trkpt>
      <trkpt lat="42.38677" lon="2.12089">
        <ele>2741</ele>
        <time>2018-09-02T08:53:10Z</time>
      </trkpt>
      <trkpt lat="42.38681" lon="2.12092">
        <ele>2739</ele>
        <time>2018-09-02T08:53:16Z</time>
      </trkpt>
      <trkpt lat="42.38685" lon="2.12096">
        <ele>2738</ele>
        <time>2018-09-02T08:53:22Z</time>
      </trkpt>
      <trkpt lat="42.38689" lon="2.12094">
        <ele>2736</ele>
        <time>2018-09-02T08:53:27Z</time>
      </trkpt>
      <trkpt lat="42.38694" lon="2.12104">
        <ele>2733</ele>
        <time>2018-09-02T08:53:41Z</time>
      </trkpt>
      <trkpt lat="42.38698" lon="2.12105">
        <ele>2729</ele>
        <time>2018-09-02T08:53:53Z</time>
      </trkpt>
      <trkpt lat="42.38704" lon="2.12111">
        <ele>2726</ele>
        <time>2018-09-02T08:54:05Z</time>
      </trkpt>
      <trkpt lat="42.38711" lon="2.12106">
        <ele>2722</ele>
        <time>2018-09-02T08:54:16Z</time>
      </trkpt>
      <trkpt lat="42.38717" lon="2.12114">
        <ele>2720</ele>
        <time>2018-09-02T08:54:27Z</time>
      </trkpt>
      <trkpt lat="42.38718" lon="2.12133">
        <ele>2715</ele>
        <time>2018-09-02T08:54:42Z</time>
      </trkpt>
      <trkpt lat="42.38724" lon="2.12141">
        <ele>2712</ele>
        <time>2018-09-02T08:54:56Z</time>
      </trkpt>
      <trkpt lat="42.38729" lon="2.12148">
        <ele>2709</ele>
        <time>2018-09-02T08:55:08Z</time>
      </trkpt>
      <trkpt lat="42.38731" lon="2.12156">
        <ele>2705</ele>
        <time>2018-09-02T08:55:23Z</time>
      </trkpt>
      <trkpt lat="42.3873" lon="2.12169">
        <ele>2701</ele>
        <time>2018-09-02T08:55:35Z</time>
      </trkpt>
      <trkpt lat="42.38731" lon="2.12175">
        <ele>2699</ele>
        <time>2018-09-02T08:55:41Z</time>
      </trkpt>
      <trkpt lat="42.3874" lon="2.1217">
        <ele>2694</ele>
        <time>2018-09-02T08:55:56Z</time>
      </trkpt>
      <trkpt lat="42.38743" lon="2.12177">
        <ele>2692</ele>
        <time>2018-09-02T08:56:09Z</time>
      </trkpt>
      <trkpt lat="42.38747" lon="2.12181">
        <ele>2689</ele>
        <time>2018-09-02T08:56:17Z</time>
      </trkpt>
      <trkpt lat="42.38751" lon="2.1219">
        <ele>2685</ele>
        <time>2018-09-02T08:56:29Z</time>
      </trkpt>
      <trkpt lat="42.38752" lon="2.12196">
        <ele>2682</ele>
        <time>2018-09-02T08:56:35Z</time>
      </trkpt>
      <trkpt lat="42.38752" lon="2.12203">
        <ele>2681</ele>
        <time>2018-09-02T08:56:40Z</time>
      </trkpt>
      <trkpt lat="42.38755" lon="2.12208">
        <ele>2679</ele>
        <time>2018-09-02T08:56:48Z</time>
      </trkpt>
      <trkpt lat="42.38756" lon="2.12214">
        <ele>2676</ele>
        <time>2018-09-02T08:57:00Z</time>
      </trkpt>
      <trkpt lat="42.3876" lon="2.12227">
        <ele>2674</ele>
        <time>2018-09-02T08:57:08Z</time>
      </trkpt>
      <trkpt lat="42.38761" lon="2.1224">
        <ele>2670</ele>
        <time>2018-09-02T08:57:19Z</time>
      </trkpt>
      <trkpt lat="42.38767" lon="2.12247">
        <ele>2667</ele>
        <time>2018-09-02T08:57:29Z</time>
      </trkpt>
      <trkpt lat="42.38775" lon="2.12252">
        <ele>2665</ele>
        <time>2018-09-02T08:57:39Z</time>
      </trkpt>
      <trkpt lat="42.3878" lon="2.12259">
        <ele>2664</ele>
        <time>2018-09-02T08:57:46Z</time>
      </trkpt>
      <trkpt lat="42.38781" lon="2.12264">
        <ele>2663</ele>
        <time>2018-09-02T08:57:50Z</time>
      </trkpt>
      <trkpt lat="42.3879" lon="2.12278">
        <ele>2659</ele>
        <time>2018-09-02T08:58:10Z</time>
      </trkpt>
      <trkpt lat="42.38797" lon="2.12286">
        <ele>2655</ele>
        <time>2018-09-02T08:58:21Z</time>
      </trkpt>
      <trkpt lat="42.38804" lon="2.12285">
        <ele>2653</ele>
        <time>2018-09-02T08:58:30Z</time>
      </trkpt>
      <trkpt lat="42.38809" lon="2.12283">
        <ele>2651</ele>
        <time>2018-09-02T08:58:36Z</time>
      </trkpt>
      <trkpt lat="42.38811" lon="2.12289">
        <ele>2650</ele>
        <time>2018-09-02T08:58:42Z</time>
      </trkpt>
      <trkpt lat="42.38815" lon="2.12293">
        <ele>2646</ele>
        <time>2018-09-02T08:58:54Z</time>
      </trkpt>
      <trkpt lat="42.38826" lon="2.12311">
        <ele>2640</ele>
        <time>2018-09-02T08:59:16Z</time>
      </trkpt>
      <trkpt lat="42.38831" lon="2.12328">
        <ele>2637</ele>
        <time>2018-09-02T08:59:30Z</time>
      </trkpt>
      <trkpt lat="42.38835" lon="2.12333">
        <ele>2636</ele>
        <time>2018-09-02T08:59:35Z</time>
      </trkpt>
      <trkpt lat="42.38846" lon="2.12355">
        <ele>2632</ele>
        <time>2018-09-02T08:59:55Z</time>
      </trkpt>
      <trkpt lat="42.3885" lon="2.12356">
        <ele>2630</ele>
        <time>2018-09-02T09:00:01Z</time>
      </trkpt>
      <trkpt lat="42.38854" lon="2.12364">
        <ele>2628</ele>
        <time>2018-09-02T09:00:13Z</time>
      </trkpt>
      <trkpt lat="42.38858" lon="2.12374">
        <ele>2625</ele>
        <time>2018-09-02T09:00:25Z</time>
      </trkpt>
      <trkpt lat="42.38867" lon="2.1238">
        <ele>2621</ele>
        <time>2018-09-02T09:00:37Z</time>
      </trkpt>
      <trkpt lat="42.38871" lon="2.12384">
        <ele>2619</ele>
        <time>2018-09-02T09:00:42Z</time>
      </trkpt>
      <trkpt lat="42.38875" lon="2.12401">
        <ele>2614</ele>
        <time>2018-09-02T09:00:58Z</time>
      </trkpt>
      <trkpt lat="42.38877" lon="2.12407">
        <ele>2611</ele>
        <time>2018-09-02T09:01:06Z</time>
      </trkpt>
      <trkpt lat="42.38882" lon="2.12409">
        <ele>2609</ele>
        <time>2018-09-02T09:01:11Z</time>
      </trkpt>
      <trkpt lat="42.38886" lon="2.12417">
        <ele>2607</ele>
        <time>2018-09-02T09:01:18Z</time>
      </trkpt>
      <trkpt lat="42.38891" lon="2.12419">
        <ele>2605</ele>
        <time>2018-09-02T09:01:23Z</time>
      </trkpt>
      <trkpt lat="42.38896" lon="2.12428">
        <ele>2602</ele>
        <time>2018-09-02T09:01:39Z</time>
      </trkpt>
      <trkpt lat="42.389" lon="2.12433">
        <ele>2601</ele>
        <time>2018-09-02T09:01:44Z</time>
      </trkpt>
      <trkpt lat="42.38908" lon="2.12431">
        <ele>2597</ele>
        <time>2018-09-02T09:01:58Z</time>
      </trkpt>
      <trkpt lat="42.38912" lon="2.12441">
        <ele>2594</ele>
        <time>2018-09-02T09:02:10Z</time>
      </trkpt>
      <trkpt lat="42.38915" lon="2.12446">
        <ele>2592</ele>
        <time>2018-09-02T09:02:16Z</time>
      </trkpt>
      <trkpt lat="42.38919" lon="2.12448">
        <ele>2590</ele>
        <time>2018-09-02T09:02:22Z</time>
      </trkpt>
      <trkpt lat="42.38925" lon="2.12448">
        <ele>2588</ele>
        <time>2018-09-02T09:02:32Z</time>
      </trkpt>
      <trkpt lat="42.38932" lon="2.12446">
        <ele>2583</ele>
        <time>2018-09-02T09:02:52Z</time>
      </trkpt>
      <trkpt lat="42.38937" lon="2.12443">
        <ele>2581</ele>
        <time>2018-09-02T09:03:03Z</time>
      </trkpt>
      <trkpt lat="42.38947" lon="2.12446">
        <ele>2579</ele>
        <time>2018-09-02T09:03:13Z</time>
      </trkpt>
      <trkpt lat="42.38951" lon="2.12449">
        <ele>2577</ele>
        <time>2018-09-02T09:03:17Z</time>
      </trkpt>
      <trkpt lat="42.38963" lon="2.12446">
        <ele>2572</ele>
        <time>2018-09-02T09:03:42Z</time>
      </trkpt>
      <trkpt lat="42.38968" lon="2.12445">
        <ele>2570</ele>
        <time>2018-09-02T09:03:48Z</time>
      </trkpt>
      <trkpt lat="42.38978" lon="2.12463">
        <ele>2564</ele>
        <time>2018-09-02T09:04:13Z</time>
      </trkpt>
      <trkpt lat="42.38979" lon="2.12471">
        <ele>2562</ele>
        <time>2018-09-02T09:04:19Z</time>
      </trkpt>
      <trkpt lat="42.38986" lon="2.12475">
        <ele>2560</ele>
        <time>2018-09-02T09:04:30Z</time>
      </trkpt>
      <trkpt lat="42.38993" lon="2.1248">
        <ele>2557</ele>
        <time>2018-09-02T09:04:42Z</time>
      </trkpt>
      <trkpt lat="42.38998" lon="2.12478">
        <ele>2557</ele>
        <time>2018-09-02T09:04:47Z</time>
      </trkpt>
      <trkpt lat="42.39005" lon="2.1248">
        <ele>2557</ele>
        <time>2018-09-02T09:04:55Z</time>
      </trkpt>
      <trkpt lat="42.39011" lon="2.12486">
        <ele>2555</ele>
        <time>2018-09-02T09:05:06Z</time>
      </trkpt>
      <trkpt lat="42.39013" lon="2.12492">
        <ele>2555</ele>
        <time>2018-09-02T09:05:10Z</time>
      </trkpt>
      <trkpt lat="42.39017" lon="2.12495">
        <ele>2554</ele>
        <time>2018-09-02T09:05:15Z</time>
      </trkpt>
      <trkpt lat="42.39024" lon="2.12496">
        <ele>2552</ele>
        <time>2018-09-02T09:05:24Z</time>
      </trkpt>
      <trkpt lat="42.39028" lon="2.12499">
        <ele>2551</ele>
        <time>2018-09-02T09:05:28Z</time>
      </trkpt>
      <trkpt lat="42.39033" lon="2.125">
        <ele>2551</ele>
        <time>2018-09-02T09:05:32Z</time>
      </trkpt>
      <trkpt lat="42.39037" lon="2.12504">
        <ele>2550</ele>
        <time>2018-09-02T09:05:40Z</time>
      </trkpt>
      <trkpt lat="42.39044" lon="2.1251">
        <ele>2547</ele>
        <time>2018-09-02T09:05:52Z</time>
      </trkpt>
      <trkpt lat="42.39046" lon="2.12517">
        <ele>2544</ele>
        <time>2018-09-02T09:06:04Z</time>
      </trkpt>
      <trkpt lat="42.39049" lon="2.12509">
        <ele>2541</ele>
        <time>2018-09-02T09:06:17Z</time>
      </trkpt>
      <trkpt lat="42.39053" lon="2.12514">
        <ele>2539</ele>
        <time>2018-09-02T09:06:26Z</time>
      </trkpt>
      <trkpt lat="42.39056" lon="2.12518">
        <ele>2537</ele>
        <time>2018-09-02T09:06:32Z</time>
      </trkpt>
      <trkpt lat="42.39065" lon="2.1251">
        <ele>2534</ele>
        <time>2018-09-02T09:06:43Z</time>
      </trkpt>
      <trkpt lat="42.3907" lon="2.12514">
        <ele>2533</ele>
        <time>2018-09-02T09:06:47Z</time>
      </trkpt>
      <trkpt lat="42.39077" lon="2.12521">
        <ele>2533</ele>
        <time>2018-09-02T09:06:58Z</time>
      </trkpt>
      <trkpt lat="42.3909" lon="2.12528">
        <ele>2531</ele>
        <time>2018-09-02T09:07:14Z</time>
      </trkpt>
      <trkpt lat="42.39098" lon="2.12533">
        <ele>2529</ele>
        <time>2018-09-02T09:07:28Z</time>
      </trkpt>
      <trkpt lat="42.39104" lon="2.12527">
        <ele>2527</ele>
        <time>2018-09-02T09:07:46Z</time>
      </trkpt>
      <trkpt lat="42.39109" lon="2.12529">
        <ele>2527</ele>
        <time>2018-09-02T09:07:50Z</time>
      </trkpt>
      <trkpt lat="42.39116" lon="2.12539">
        <ele>2527</ele>
        <time>2018-09-02T09:08:10Z</time>
      </trkpt>
      <trkpt lat="42.39117" lon="2.12547">
        <ele>2526</ele>
        <time>2018-09-02T09:08:15Z</time>
      </trkpt>
      <trkpt lat="42.39116" lon="2.12557">
        <ele>2526</ele>
        <time>2018-09-02T09:08:30Z</time>
      </trkpt>
      <trkpt lat="42.39113" lon="2.12564">
        <ele>2526</ele>
        <time>2018-09-02T09:08:38Z</time>
      </trkpt>
      <trkpt lat="42.39111" lon="2.12574">
        <ele>2526</ele>
        <time>2018-09-02T09:08:46Z</time>
      </trkpt>
      <trkpt lat="42.39112" lon="2.12581">
        <ele>2526</ele>
        <time>2018-09-02T09:08:51Z</time>
      </trkpt>
      <trkpt lat="42.39113" lon="2.12587">
        <ele>2525</ele>
        <time>2018-09-02T09:08:55Z</time>
      </trkpt>
      <trkpt lat="42.3912" lon="2.12601">
        <ele>2522</ele>
        <time>2018-09-02T09:09:08Z</time>
      </trkpt>
      <trkpt lat="42.39123" lon="2.12614">
        <ele>2519</ele>
        <time>2018-09-02T09:09:18Z</time>
      </trkpt>
      <trkpt lat="42.39127" lon="2.1262">
        <ele>2517</ele>
        <time>2018-09-02T09:09:25Z</time>
      </trkpt>
      <trkpt lat="42.39135" lon="2.12628">
        <ele>2515</ele>
        <time>2018-09-02T09:09:36Z</time>
      </trkpt>
      <trkpt lat="42.39148" lon="2.1265">
        <ele>2511</ele>
        <time>2018-09-02T09:09:56Z</time>
      </trkpt>
      <trkpt lat="42.39153" lon="2.12653">
        <ele>2510</ele>
        <time>2018-09-02T09:10:01Z</time>
      </trkpt>
      <trkpt lat="42.39156" lon="2.12671">
        <ele>2507</ele>
        <time>2018-09-02T09:10:16Z</time>
      </trkpt>
      <trkpt lat="42.39168" lon="2.1269">
        <ele>2503</ele>
        <time>2018-09-02T09:10:39Z</time>
      </trkpt>
      <trkpt lat="42.39174" lon="2.12696">
        <ele>2500</ele>
        <time>2018-09-02T09:10:51Z</time>
      </trkpt>
      <trkpt lat="42.39184" lon="2.12709">
        <ele>2498</ele>
        <time>2018-09-02T09:11:13Z</time>
      </trkpt>
      <trkpt lat="42.39204" lon="2.12741">
        <ele>2492</ele>
        <time>2018-09-02T09:11:44Z</time>
      </trkpt>
      <trkpt lat="42.39208" lon="2.12746">
        <ele>2490</ele>
        <time>2018-09-02T09:11:49Z</time>
      </trkpt>
      <trkpt lat="42.39219" lon="2.12762">
        <ele>2487</ele>
        <time>2018-09-02T09:12:06Z</time>
      </trkpt>
      <trkpt lat="42.39221" lon="2.12768">
        <ele>2486</ele>
        <time>2018-09-02T09:12:10Z</time>
      </trkpt>
      <trkpt lat="42.39245" lon="2.12803">
        <ele>2478</ele>
        <time>2018-09-02T09:12:45Z</time>
      </trkpt>
      <trkpt lat="42.39248" lon="2.12808">
        <ele>2477</ele>
        <time>2018-09-02T09:12:50Z</time>
      </trkpt>
      <trkpt lat="42.3925" lon="2.12815">
        <ele>2476</ele>
        <time>2018-09-02T09:12:55Z</time>
      </trkpt>
      <trkpt lat="42.39251" lon="2.12821">
        <ele>2476</ele>
        <time>2018-09-02T09:12:58Z</time>
      </trkpt>
      <trkpt lat="42.39264" lon="2.12868">
        <ele>2467</ele>
        <time>2018-09-02T09:13:38Z</time>
      </trkpt>
      <trkpt lat="42.39273" lon="2.12884">
        <ele>2464</ele>
        <time>2018-09-02T09:13:50Z</time>
      </trkpt>
      <trkpt lat="42.39274" lon="2.12893">
        <ele>2464</ele>
        <time>2018-09-02T09:13:56Z</time>
      </trkpt>
      <trkpt lat="42.39275" lon="2.12899">
        <ele>2463</ele>
        <time>2018-09-02T09:14:00Z</time>
      </trkpt>
      <trkpt lat="42.39278" lon="2.12904">
        <ele>2462</ele>
        <time>2018-09-02T09:14:06Z</time>
      </trkpt>
      <trkpt lat="42.39277" lon="2.12913">
        <ele>2461</ele>
        <time>2018-09-02T09:14:12Z</time>
      </trkpt>
      <trkpt lat="42.3928" lon="2.12928">
        <ele>2459</ele>
        <time>2018-09-02T09:14:25Z</time>
      </trkpt>
      <trkpt lat="42.39284" lon="2.12935">
        <ele>2457</ele>
        <time>2018-09-02T09:14:31Z</time>
      </trkpt>
      <trkpt lat="42.39287" lon="2.12939">
        <ele>2456</ele>
        <time>2018-09-02T09:14:35Z</time>
      </trkpt>
      <trkpt lat="42.39293" lon="2.12964">
        <ele>2451</ele>
        <time>2018-09-02T09:14:53Z</time>
      </trkpt>
      <trkpt lat="42.39297" lon="2.1297">
        <ele>2450</ele>
        <time>2018-09-02T09:14:57Z</time>
      </trkpt>
      <trkpt lat="42.39304" lon="2.12981">
        <ele>2448</ele>
        <time>2018-09-02T09:15:06Z</time>
      </trkpt>
      <trkpt lat="42.39305" lon="2.12987">
        <ele>2446</ele>
        <time>2018-09-02T09:15:14Z</time>
      </trkpt>
      <trkpt lat="42.39308" lon="2.12996">
        <ele>2443</ele>
        <time>2018-09-02T09:15:26Z</time>
      </trkpt>
      <trkpt lat="42.39313" lon="2.13005">
        <ele>2441</ele>
        <time>2018-09-02T09:15:36Z</time>
      </trkpt>
      <trkpt lat="42.39319" lon="2.13014">
        <ele>2438</ele>
        <time>2018-09-02T09:15:48Z</time>
      </trkpt>
      <trkpt lat="42.39329" lon="2.13023">
        <ele>2436</ele>
        <time>2018-09-02T09:16:00Z</time>
      </trkpt>
      <trkpt lat="42.39348" lon="2.13036">
        <ele>2431</ele>
        <time>2018-09-02T09:16:18Z</time>
      </trkpt>
      <trkpt lat="42.39359" lon="2.13034">
        <ele>2429</ele>
        <time>2018-09-02T09:16:27Z</time>
      </trkpt>
      <trkpt lat="42.39363" lon="2.13037">
        <ele>2429</ele>
        <time>2018-09-02T09:16:31Z</time>
      </trkpt>
      <trkpt lat="42.39367" lon="2.13042">
        <ele>2428</ele>
        <time>2018-09-02T09:16:35Z</time>
      </trkpt>
      <trkpt lat="42.39376" lon="2.13047">
        <ele>2426</ele>
        <time>2018-09-02T09:16:44Z</time>
      </trkpt>
      <trkpt lat="42.39381" lon="2.13048">
        <ele>2425</ele>
        <time>2018-09-02T09:16:49Z</time>
      </trkpt>
      <trkpt lat="42.39391" lon="2.13053">
        <ele>2423</ele>
        <time>2018-09-02T09:17:02Z</time>
      </trkpt>
      <trkpt lat="42.39406" lon="2.13076">
        <ele>2417</ele>
        <time>2018-09-02T09:17:33Z</time>
      </trkpt>
      <trkpt lat="42.39413" lon="2.13088">
        <ele>2413</ele>
        <time>2018-09-02T09:17:54Z</time>
      </trkpt>
      <trkpt lat="42.39419" lon="2.13091">
        <ele>2412</ele>
        <time>2018-09-02T09:18:00Z</time>
      </trkpt>
      <trkpt lat="42.39422" lon="2.13096">
        <ele>2411</ele>
        <time>2018-09-02T09:18:05Z</time>
      </trkpt>
      <trkpt lat="42.39424" lon="2.1311">
        <ele>2408</ele>
        <time>2018-09-02T09:18:19Z</time>
      </trkpt>
      <trkpt lat="42.39428" lon="2.13123">
        <ele>2406</ele>
        <time>2018-09-02T09:18:28Z</time>
      </trkpt>
      <trkpt lat="42.39433" lon="2.13129">
        <ele>2403</ele>
        <time>2018-09-02T09:18:36Z</time>
      </trkpt>
      <trkpt lat="42.39436" lon="2.13133">
        <ele>2403</ele>
        <time>2018-09-02T09:18:40Z</time>
      </trkpt>
      <trkpt lat="42.39447" lon="2.13137">
        <ele>2401</ele>
        <time>2018-09-02T09:18:49Z</time>
      </trkpt>
      <trkpt lat="42.39459" lon="2.1315">
        <ele>2400</ele>
        <time>2018-09-02T09:19:00Z</time>
      </trkpt>
      <trkpt lat="42.39464" lon="2.13152">
        <ele>2399</ele>
        <time>2018-09-02T09:19:04Z</time>
      </trkpt>
      <trkpt lat="42.39473" lon="2.13153">
        <ele>2397</ele>
        <time>2018-09-02T09:19:14Z</time>
      </trkpt>
      <trkpt lat="42.39478" lon="2.13156">
        <ele>2396</ele>
        <time>2018-09-02T09:19:21Z</time>
      </trkpt>
      <trkpt lat="42.39487" lon="2.13157">
        <ele>2394</ele>
        <time>2018-09-02T09:19:31Z</time>
      </trkpt>
      <trkpt lat="42.39497" lon="2.13164">
        <ele>2391</ele>
        <time>2018-09-02T09:19:44Z</time>
      </trkpt>
      <trkpt lat="42.39502" lon="2.13164">
        <ele>2388</ele>
        <time>2018-09-02T09:20:08Z</time>
      </trkpt>
      <trkpt lat="42.39504" lon="2.13169">
        <ele>2386</ele>
        <time>2018-09-02T09:20:20Z</time>
      </trkpt>
      <trkpt lat="42.39508" lon="2.13162">
        <ele>2384</ele>
        <time>2018-09-02T09:20:34Z</time>
      </trkpt>
      <trkpt lat="42.39523" lon="2.13163">
        <ele>2381</ele>
        <time>2018-09-02T09:20:47Z</time>
      </trkpt>
      <trkpt lat="42.39528" lon="2.13162">
        <ele>2380</ele>
        <time>2018-09-02T09:20:50Z</time>
      </trkpt>
      <trkpt lat="42.39538" lon="2.13174">
        <ele>2375</ele>
        <time>2018-09-02T09:21:13Z</time>
      </trkpt>
      <trkpt lat="42.39535" lon="2.13199">
        <ele>2369</ele>
        <time>2018-09-02T09:21:33Z</time>
      </trkpt>
      <trkpt lat="42.39541" lon="2.13209">
        <ele>2366</ele>
        <time>2018-09-02T09:21:44Z</time>
      </trkpt>
      <trkpt lat="42.3954" lon="2.13219">
        <ele>2364</ele>
        <time>2018-09-02T09:21:52Z</time>
      </trkpt>
      <trkpt lat="42.39538" lon="2.13225">
        <ele>2363</ele>
        <time>2018-09-02T09:21:57Z</time>
      </trkpt>
      <trkpt lat="42.39527" lon="2.13234">
        <ele>2358</ele>
        <time>2018-09-02T09:22:31Z</time>
      </trkpt>
      <trkpt lat="42.39524" lon="2.13243">
        <ele>2358</ele>
        <time>2018-09-02T09:22:43Z</time>
      </trkpt>
      <trkpt lat="42.39529" lon="2.13251">
        <ele>2357</ele>
        <time>2018-09-02T09:22:53Z</time>
      </trkpt>
      <trkpt lat="42.39532" lon="2.13257">
        <ele>2357</ele>
        <time>2018-09-02T09:22:57Z</time>
      </trkpt>
      <trkpt lat="42.39535" lon="2.13261">
        <ele>2358</ele>
        <time>2018-09-02T09:23:02Z</time>
      </trkpt>
      <trkpt lat="42.39542" lon="2.13263">
        <ele>2359</ele>
        <time>2018-09-02T09:23:09Z</time>
      </trkpt>
      <trkpt lat="42.39567" lon="2.13278">
        <ele>2357</ele>
        <time>2018-09-02T09:23:31Z</time>
      </trkpt>
      <trkpt lat="42.39571" lon="2.13279">
        <ele>2357</ele>
        <time>2018-09-02T09:23:36Z</time>
      </trkpt>
      <trkpt lat="42.3958" lon="2.13283">
        <ele>2357</ele>
        <time>2018-09-02T09:23:44Z</time>
      </trkpt>
      <trkpt lat="42.39585" lon="2.13287">
        <ele>2356</ele>
        <time>2018-09-02T09:23:49Z</time>
      </trkpt>
      <trkpt lat="42.39601" lon="2.1329">
        <ele>2355</ele>
        <time>2018-09-02T09:24:02Z</time>
      </trkpt>
      <trkpt lat="42.39605" lon="2.13294">
        <ele>2355</ele>
        <time>2018-09-02T09:24:06Z</time>
      </trkpt>
      <trkpt lat="42.39608" lon="2.13302">
        <ele>2353</ele>
        <time>2018-09-02T09:24:13Z</time>
      </trkpt>
      <trkpt lat="42.39614" lon="2.13305">
        <ele>2351</ele>
        <time>2018-09-02T09:24:22Z</time>
      </trkpt>
      <trkpt lat="42.39619" lon="2.13305">
        <ele>2350</ele>
        <time>2018-09-02T09:24:28Z</time>
      </trkpt>
      <trkpt lat="42.39628" lon="2.13317">
        <ele>2346</ele>
        <time>2018-09-02T09:24:49Z</time>
      </trkpt>
      <trkpt lat="42.39639" lon="2.13324">
        <ele>2342</ele>
        <time>2018-09-02T09:25:04Z</time>
      </trkpt>
      <trkpt lat="42.39642" lon="2.13329">
        <ele>2341</ele>
        <time>2018-09-02T09:25:08Z</time>
      </trkpt>
      <trkpt lat="42.39648" lon="2.13335">
        <ele>2339</ele>
        <time>2018-09-02T09:25:19Z</time>
      </trkpt>
      <trkpt lat="42.39655" lon="2.13331">
        <ele>2337</ele>
        <time>2018-09-02T09:25:31Z</time>
      </trkpt>
      <trkpt lat="42.39659" lon="2.13328">
        <ele>2334</ele>
        <time>2018-09-02T09:25:44Z</time>
      </trkpt>
      <trkpt lat="42.39677" lon="2.13326">
        <ele>2329</ele>
        <time>2018-09-02T09:26:08Z</time>
      </trkpt>
      <trkpt lat="42.39688" lon="2.13333">
        <ele>2326</ele>
        <time>2018-09-02T09:26:21Z</time>
      </trkpt>
      <trkpt lat="42.39686" lon="2.13339">
        <ele>2323</ele>
        <time>2018-09-02T09:28:59Z</time>
      </trkpt>
      <trkpt lat="42.3969" lon="2.13347">
        <ele>2322</ele>
        <time>2018-09-02T09:29:11Z</time>
      </trkpt>
      <trkpt lat="42.39694" lon="2.13349">
        <ele>2321</ele>
        <time>2018-09-02T09:29:17Z</time>
      </trkpt>
      <trkpt lat="42.39697" lon="2.13355">
        <ele>2319</ele>
        <time>2018-09-02T09:29:25Z</time>
      </trkpt>
      <trkpt lat="42.39704" lon="2.13361">
        <ele>2318</ele>
        <time>2018-09-02T09:29:37Z</time>
      </trkpt>
      <trkpt lat="42.39708" lon="2.13369">
        <ele>2316</ele>
        <time>2018-09-02T09:29:49Z</time>
      </trkpt>
      <trkpt lat="42.39713" lon="2.13372">
        <ele>2315</ele>
        <time>2018-09-02T09:29:56Z</time>
      </trkpt>
      <trkpt lat="42.39717" lon="2.13384">
        <ele>2312</ele>
        <time>2018-09-02T09:30:16Z</time>
      </trkpt>
      <trkpt lat="42.39718" lon="2.13391">
        <ele>2311</ele>
        <time>2018-09-02T09:30:24Z</time>
      </trkpt>
      <trkpt lat="42.39721" lon="2.13397">
        <ele>2310</ele>
        <time>2018-09-02T09:30:36Z</time>
      </trkpt>
      <trkpt lat="42.39724" lon="2.13402">
        <ele>2308</ele>
        <time>2018-09-02T09:31:06Z</time>
      </trkpt>
      <trkpt lat="42.39732" lon="2.13424">
        <ele>2304</ele>
        <time>2018-09-02T09:31:34Z</time>
      </trkpt>
      <trkpt lat="42.39726" lon="2.13432">
        <ele>2302</ele>
        <time>2018-09-02T09:31:46Z</time>
      </trkpt>
      <trkpt lat="42.39725" lon="2.13442">
        <ele>2300</ele>
        <time>2018-09-02T09:32:04Z</time>
      </trkpt>
      <trkpt lat="42.39726" lon="2.13455">
        <ele>2297</ele>
        <time>2018-09-02T09:32:19Z</time>
      </trkpt>
      <trkpt lat="42.39731" lon="2.13462">
        <ele>2294</ele>
        <time>2018-09-02T09:32:39Z</time>
      </trkpt>
      <trkpt lat="42.39739" lon="2.13465">
        <ele>2292</ele>
        <time>2018-09-02T09:32:50Z</time>
      </trkpt>
      <trkpt lat="42.39743" lon="2.13467">
        <ele>2289</ele>
        <time>2018-09-02T09:33:04Z</time>
      </trkpt>
      <trkpt lat="42.39741" lon="2.13474">
        <ele>2286</ele>
        <time>2018-09-02T09:33:22Z</time>
      </trkpt>
      <trkpt lat="42.39742" lon="2.13494">
        <ele>2282</ele>
        <time>2018-09-02T09:33:41Z</time>
      </trkpt>
      <trkpt lat="42.39743" lon="2.13505">
        <ele>2279</ele>
        <time>2018-09-02T09:33:54Z</time>
      </trkpt>
      <trkpt lat="42.3974" lon="2.13511">
        <ele>2277</ele>
        <time>2018-09-02T09:34:00Z</time>
      </trkpt>
      <trkpt lat="42.3974" lon="2.13525">
        <ele>2275</ele>
        <time>2018-09-02T09:34:11Z</time>
      </trkpt>
      <trkpt lat="42.39743" lon="2.13547">
        <ele>2273</ele>
        <time>2018-09-02T09:34:23Z</time>
      </trkpt>
      <trkpt lat="42.3974" lon="2.13553">
        <ele>2272</ele>
        <time>2018-09-02T09:34:28Z</time>
      </trkpt>
      <trkpt lat="42.39739" lon="2.1356">
        <ele>2271</ele>
        <time>2018-09-02T09:34:37Z</time>
      </trkpt>
      <trkpt lat="42.39737" lon="2.13567">
        <ele>2271</ele>
        <time>2018-09-02T09:34:41Z</time>
      </trkpt>
      <trkpt lat="42.39736" lon="2.1358">
        <ele>2270</ele>
        <time>2018-09-02T09:34:47Z</time>
      </trkpt>
      <trkpt lat="42.39737" lon="2.13586">
        <ele>2270</ele>
        <time>2018-09-02T09:34:51Z</time>
      </trkpt>
      <trkpt lat="42.39738" lon="2.136">
        <ele>2269</ele>
        <time>2018-09-02T09:35:05Z</time>
      </trkpt>
      <trkpt lat="42.39743" lon="2.13614">
        <ele>2267</ele>
        <time>2018-09-02T09:35:14Z</time>
      </trkpt>
      <trkpt lat="42.39747" lon="2.13622">
        <ele>2264</ele>
        <time>2018-09-02T09:35:38Z</time>
      </trkpt>
      <trkpt lat="42.39751" lon="2.13627">
        <ele>2264</ele>
        <time>2018-09-02T09:35:43Z</time>
      </trkpt>
      <trkpt lat="42.39757" lon="2.13631">
        <ele>2261</ele>
        <time>2018-09-02T09:35:57Z</time>
      </trkpt>
      <trkpt lat="42.39761" lon="2.13633">
        <ele>2261</ele>
        <time>2018-09-02T09:36:01Z</time>
      </trkpt>
      <trkpt lat="42.39762" lon="2.13641">
        <ele>2260</ele>
        <time>2018-09-02T09:36:44Z</time>
      </trkpt>
      <trkpt lat="42.39764" lon="2.13647">
        <ele>2260</ele>
        <time>2018-09-02T09:36:52Z</time>
      </trkpt>
      <trkpt lat="42.39769" lon="2.13651">
        <ele>2260</ele>
        <time>2018-09-02T09:37:02Z</time>
      </trkpt>
      <trkpt lat="42.39778" lon="2.13655">
        <ele>2258</ele>
        <time>2018-09-02T09:37:20Z</time>
      </trkpt>
      <trkpt lat="42.39786" lon="2.13666">
        <ele>2256</ele>
        <time>2018-09-02T09:37:37Z</time>
      </trkpt>
      <trkpt lat="42.39787" lon="2.13674">
        <ele>2254</ele>
        <time>2018-09-02T09:37:55Z</time>
      </trkpt>
      <trkpt lat="42.3979" lon="2.13677">
        <ele>2253</ele>
        <time>2018-09-02T09:38:01Z</time>
      </trkpt>
      <trkpt lat="42.39793" lon="2.13683">
        <ele>2251</ele>
        <time>2018-09-02T09:38:13Z</time>
      </trkpt>
      <trkpt lat="42.39794" lon="2.13694">
        <ele>2250</ele>
        <time>2018-09-02T09:38:24Z</time>
      </trkpt>
      <trkpt lat="42.39794" lon="2.13709">
        <ele>2249</ele>
        <time>2018-09-02T09:38:32Z</time>
      </trkpt>
      <trkpt lat="42.3979" lon="2.1372">
        <ele>2247</ele>
        <time>2018-09-02T09:38:40Z</time>
      </trkpt>
      <trkpt lat="42.39788" lon="2.13734">
        <ele>2245</ele>
        <time>2018-09-02T09:38:55Z</time>
      </trkpt>
      <trkpt lat="42.39786" lon="2.13739">
        <ele>2243</ele>
        <time>2018-09-02T09:39:03Z</time>
      </trkpt>
      <trkpt lat="42.39782" lon="2.13743">
        <ele>2242</ele>
        <time>2018-09-02T09:39:08Z</time>
      </trkpt>
      <trkpt lat="42.39781" lon="2.13749">
        <ele>2241</ele>
        <time>2018-09-02T09:40:44Z</time>
      </trkpt>
      <trkpt lat="42.39785" lon="2.13753">
        <ele>2240</ele>
        <time>2018-09-02T09:41:39Z</time>
      </trkpt>
      <trkpt lat="42.39791" lon="2.13758">
        <ele>2239</ele>
        <time>2018-09-02T09:42:20Z</time>
      </trkpt>
      <trkpt lat="42.39795" lon="2.13764">
        <ele>2239</ele>
        <time>2018-09-02T09:42:30Z</time>
      </trkpt>
      <trkpt lat="42.39797" lon="2.13771">
        <ele>2238</ele>
        <time>2018-09-02T09:42:40Z</time>
      </trkpt>
      <trkpt lat="42.39802" lon="2.13774">
        <ele>2237</ele>
        <time>2018-09-02T09:42:50Z</time>
      </trkpt>
      <trkpt lat="42.39807" lon="2.13794">
        <ele>2232</ele>
        <time>2018-09-02T09:43:14Z</time>
      </trkpt>
      <trkpt lat="42.39813" lon="2.13804">
        <ele>2231</ele>
        <time>2018-09-02T09:43:23Z</time>
      </trkpt>
      <trkpt lat="42.39817" lon="2.1381">
        <ele>2231</ele>
        <time>2018-09-02T09:43:31Z</time>
      </trkpt>
      <trkpt lat="42.39817" lon="2.13818">
        <ele>2231</ele>
        <time>2018-09-02T09:44:01Z</time>
      </trkpt>
      <trkpt lat="42.39822" lon="2.13829">
        <ele>2229</ele>
        <time>2018-09-02T09:44:16Z</time>
      </trkpt>
      <trkpt lat="42.39825" lon="2.13835">
        <ele>2229</ele>
        <time>2018-09-02T09:44:20Z</time>
      </trkpt>
      <trkpt lat="42.39829" lon="2.13838">
        <ele>2229</ele>
        <time>2018-09-02T09:44:27Z</time>
      </trkpt>
      <trkpt lat="42.39841" lon="2.13854">
        <ele>2226</ele>
        <time>2018-09-02T09:44:41Z</time>
      </trkpt>
      <trkpt lat="42.39843" lon="2.13867">
        <ele>2225</ele>
        <time>2018-09-02T09:44:51Z</time>
      </trkpt>
      <trkpt lat="42.39841" lon="2.13876">
        <ele>2224</ele>
        <time>2018-09-02T09:45:07Z</time>
      </trkpt>
      <trkpt lat="42.39841" lon="2.13883">
        <ele>2221</ele>
        <time>2018-09-02T09:45:26Z</time>
      </trkpt>
      <trkpt lat="42.39844" lon="2.13896">
        <ele>2218</ele>
        <time>2018-09-02T09:45:48Z</time>
      </trkpt>
      <trkpt lat="42.39847" lon="2.13904">
        <ele>2217</ele>
        <time>2018-09-02T09:45:55Z</time>
      </trkpt>
      <trkpt lat="42.3985" lon="2.13909">
        <ele>2216</ele>
        <time>2018-09-02T09:45:59Z</time>
      </trkpt>
      <trkpt lat="42.39855" lon="2.13918">
        <ele>2215</ele>
        <time>2018-09-02T09:46:06Z</time>
      </trkpt>
      <trkpt lat="42.39855" lon="2.13925">
        <ele>2214</ele>
        <time>2018-09-02T09:46:10Z</time>
      </trkpt>
      <trkpt lat="42.39859" lon="2.13934">
        <ele>2213</ele>
        <time>2018-09-02T09:46:19Z</time>
      </trkpt>
      <trkpt lat="42.39863" lon="2.13934">
        <ele>2211</ele>
        <time>2018-09-02T09:46:27Z</time>
      </trkpt>
      <trkpt lat="42.39867" lon="2.13939">
        <ele>2210</ele>
        <time>2018-09-02T09:46:33Z</time>
      </trkpt>
      <trkpt lat="42.39871" lon="2.13941">
        <ele>2210</ele>
        <time>2018-09-02T09:46:37Z</time>
      </trkpt>
      <trkpt lat="42.39875" lon="2.13947">
        <ele>2210</ele>
        <time>2018-09-02T09:46:42Z</time>
      </trkpt>
      <trkpt lat="42.39879" lon="2.13951">
        <ele>2209</ele>
        <time>2018-09-02T09:46:46Z</time>
      </trkpt>
      <trkpt lat="42.39882" lon="2.13955">
        <ele>2209</ele>
        <time>2018-09-02T09:46:50Z</time>
      </trkpt>
      <trkpt lat="42.39892" lon="2.13955">
        <ele>2208</ele>
        <time>2018-09-02T09:47:06Z</time>
      </trkpt>
      <trkpt lat="42.39897" lon="2.13967">
        <ele>2207</ele>
        <time>2018-09-02T09:47:14Z</time>
      </trkpt>
      <trkpt lat="42.39903" lon="2.13967">
        <ele>2205</ele>
        <time>2018-09-02T09:47:22Z</time>
      </trkpt>
      <trkpt lat="42.39912" lon="2.13972">
        <ele>2203</ele>
        <time>2018-09-02T09:47:31Z</time>
      </trkpt>
      <trkpt lat="42.39916" lon="2.13975">
        <ele>2201</ele>
        <time>2018-09-02T09:47:41Z</time>
      </trkpt>
      <trkpt lat="42.39921" lon="2.13978">
        <ele>2199</ele>
        <time>2018-09-02T09:47:53Z</time>
      </trkpt>
      <trkpt lat="42.39934" lon="2.13985">
        <ele>2195</ele>
        <time>2018-09-02T09:48:20Z</time>
      </trkpt>
      <trkpt lat="42.39938" lon="2.13994">
        <ele>2193</ele>
        <time>2018-09-02T09:48:33Z</time>
      </trkpt>
      <trkpt lat="42.39945" lon="2.13994">
        <ele>2190</ele>
        <time>2018-09-02T09:48:45Z</time>
      </trkpt>
      <trkpt lat="42.39956" lon="2.13997">
        <ele>2186</ele>
        <time>2018-09-02T09:49:09Z</time>
      </trkpt>
      <trkpt lat="42.3996" lon="2.14001">
        <ele>2180</ele>
        <time>2018-09-02T09:49:39Z</time>
      </trkpt>
      <trkpt lat="42.39955" lon="2.14004">
        <ele>2178</ele>
        <time>2018-09-02T09:49:57Z</time>
      </trkpt>
      <trkpt lat="42.39961" lon="2.14013">
        <ele>2175</ele>
        <time>2018-09-02T09:50:36Z</time>
      </trkpt>
      <trkpt lat="42.39968" lon="2.1402">
        <ele>2173</ele>
        <time>2018-09-02T09:50:46Z</time>
      </trkpt>
      <trkpt lat="42.39973" lon="2.14023">
        <ele>2171</ele>
        <time>2018-09-02T09:50:55Z</time>
      </trkpt>
      <trkpt lat="42.39979" lon="2.14025">
        <ele>2170</ele>
        <time>2018-09-02T09:50:59Z</time>
      </trkpt>
      <trkpt lat="42.39983" lon="2.14029">
        <ele>2169</ele>
        <time>2018-09-02T09:51:06Z</time>
      </trkpt>
      <trkpt lat="42.3999" lon="2.14032">
        <ele>2167</ele>
        <time>2018-09-02T09:51:17Z</time>
      </trkpt>
      <trkpt lat="42.39997" lon="2.1404">
        <ele>2165</ele>
        <time>2018-09-02T09:51:28Z</time>
      </trkpt>
      <trkpt lat="42.39989" lon="2.14041">
        <ele>2161</ele>
        <time>2018-09-02T09:51:52Z</time>
      </trkpt>
      <trkpt lat="42.39991" lon="2.14048">
        <ele>2158</ele>
        <time>2018-09-02T09:52:09Z</time>
      </trkpt>
      <trkpt lat="42.39995" lon="2.14052">
        <ele>2157</ele>
        <time>2018-09-02T09:52:14Z</time>
      </trkpt>
      <trkpt lat="42.4" lon="2.14053">
        <ele>2156</ele>
        <time>2018-09-02T09:52:18Z</time>
      </trkpt>
      <trkpt lat="42.40011" lon="2.14051">
        <ele>2154</ele>
        <time>2018-09-02T09:52:27Z</time>
      </trkpt>
      <trkpt lat="42.40016" lon="2.14056">
        <ele>2152</ele>
        <time>2018-09-02T09:52:33Z</time>
      </trkpt>
      <trkpt lat="42.40029" lon="2.14077">
        <ele>2149</ele>
        <time>2018-09-02T09:52:55Z</time>
      </trkpt>
      <trkpt lat="42.40033" lon="2.14081">
        <ele>2147</ele>
        <time>2018-09-02T09:53:01Z</time>
      </trkpt>
      <trkpt lat="42.40037" lon="2.14087">
        <ele>2145</ele>
        <time>2018-09-02T09:53:09Z</time>
      </trkpt>
      <trkpt lat="42.40032" lon="2.14103">
        <ele>2141</ele>
        <time>2018-09-02T09:53:31Z</time>
      </trkpt>
      <trkpt lat="42.40031" lon="2.14111">
        <ele>2138</ele>
        <time>2018-09-02T09:53:50Z</time>
      </trkpt>
      <trkpt lat="42.40031" lon="2.14119">
        <ele>2137</ele>
        <time>2018-09-02T09:53:55Z</time>
      </trkpt>
      <trkpt lat="42.40032" lon="2.14125">
        <ele>2137</ele>
        <time>2018-09-02T09:53:58Z</time>
      </trkpt>
      <trkpt lat="42.40034" lon="2.14131">
        <ele>2136</ele>
        <time>2018-09-02T09:54:02Z</time>
      </trkpt>
      <trkpt lat="42.40039" lon="2.14136">
        <ele>2135</ele>
        <time>2018-09-02T09:54:10Z</time>
      </trkpt>
      <trkpt lat="42.40046" lon="2.14146">
        <ele>2134</ele>
        <time>2018-09-02T09:54:20Z</time>
      </trkpt>
      <trkpt lat="42.40051" lon="2.14161">
        <ele>2132</ele>
        <time>2018-09-02T09:54:33Z</time>
      </trkpt>
      <trkpt lat="42.40067" lon="2.14174">
        <ele>2129</ele>
        <time>2018-09-02T09:54:53Z</time>
      </trkpt>
      <trkpt lat="42.40072" lon="2.14189">
        <ele>2126</ele>
        <time>2018-09-02T09:55:07Z</time>
      </trkpt>
      <trkpt lat="42.40075" lon="2.14194">
        <ele>2126</ele>
        <time>2018-09-02T09:55:12Z</time>
      </trkpt>
      <trkpt lat="42.40077" lon="2.14201">
        <ele>2126</ele>
        <time>2018-09-02T09:55:17Z</time>
      </trkpt>
      <trkpt lat="42.40081" lon="2.14214">
        <ele>2125</ele>
        <time>2018-09-02T09:55:26Z</time>
      </trkpt>
      <trkpt lat="42.40083" lon="2.14219">
        <ele>2124</ele>
        <time>2018-09-02T09:55:29Z</time>
      </trkpt>
      <trkpt lat="42.40087" lon="2.14224">
        <ele>2124</ele>
        <time>2018-09-02T09:55:33Z</time>
      </trkpt>
      <trkpt lat="42.40091" lon="2.14227">
        <ele>2124</ele>
        <time>2018-09-02T09:55:38Z</time>
      </trkpt>
      <trkpt lat="42.40106" lon="2.14235">
        <ele>2120</ele>
        <time>2018-09-02T09:56:00Z</time>
      </trkpt>
      <trkpt lat="42.40111" lon="2.1424">
        <ele>2120</ele>
        <time>2018-09-02T09:56:05Z</time>
      </trkpt>
      <trkpt lat="42.40114" lon="2.14249">
        <ele>2120</ele>
        <time>2018-09-02T09:56:11Z</time>
      </trkpt>
      <trkpt lat="42.40114" lon="2.14262">
        <ele>2119</ele>
        <time>2018-09-02T09:56:29Z</time>
      </trkpt>
      <trkpt lat="42.40116" lon="2.14273">
        <ele>2118</ele>
        <time>2018-09-02T09:56:42Z</time>
      </trkpt>
      <trkpt lat="42.40124" lon="2.14281">
        <ele>2115</ele>
        <time>2018-09-02T09:56:55Z</time>
      </trkpt>
      <trkpt lat="42.40129" lon="2.1429">
        <ele>2113</ele>
        <time>2018-09-02T09:57:07Z</time>
      </trkpt>
      <trkpt lat="42.40132" lon="2.14294">
        <ele>2112</ele>
        <time>2018-09-02T09:57:12Z</time>
      </trkpt>
      <trkpt lat="42.40134" lon="2.143">
        <ele>2111</ele>
        <time>2018-09-02T09:57:16Z</time>
      </trkpt>
      <trkpt lat="42.40138" lon="2.14302">
        <ele>2110</ele>
        <time>2018-09-02T09:57:23Z</time>
      </trkpt>
      <trkpt lat="42.40143" lon="2.14315">
        <ele>2107</ele>
        <time>2018-09-02T09:57:39Z</time>
      </trkpt>
      <trkpt lat="42.40143" lon="2.14321">
        <ele>2107</ele>
        <time>2018-09-02T09:57:43Z</time>
      </trkpt>
      <trkpt lat="42.40146" lon="2.14326">
        <ele>2106</ele>
        <time>2018-09-02T09:57:47Z</time>
      </trkpt>
      <trkpt lat="42.40157" lon="2.14337">
        <ele>2105</ele>
        <time>2018-09-02T09:57:57Z</time>
      </trkpt>
      <trkpt lat="42.40161" lon="2.1434">
        <ele>2104</ele>
        <time>2018-09-02T09:58:02Z</time>
      </trkpt>
      <trkpt lat="42.40163" lon="2.14346">
        <ele>2103</ele>
        <time>2018-09-02T09:58:09Z</time>
      </trkpt>
      <trkpt lat="42.40174" lon="2.14355">
        <ele>2101</ele>
        <time>2018-09-02T09:58:24Z</time>
      </trkpt>
      <trkpt lat="42.40177" lon="2.14359">
        <ele>2101</ele>
        <time>2018-09-02T09:58:28Z</time>
      </trkpt>
      <trkpt lat="42.40181" lon="2.14363">
        <ele>2100</ele>
        <time>2018-09-02T09:58:33Z</time>
      </trkpt>
      <trkpt lat="42.40194" lon="2.14376">
        <ele>2097</ele>
        <time>2018-09-02T09:59:02Z</time>
      </trkpt>
      <trkpt lat="42.40206" lon="2.14376">
        <ele>2094</ele>
        <time>2018-09-02T09:59:30Z</time>
      </trkpt>
      <trkpt lat="42.40209" lon="2.14382">
        <ele>2092</ele>
        <time>2018-09-02T09:59:50Z</time>
      </trkpt>
      <trkpt lat="42.40195" lon="2.14395">
        <ele>2087</ele>
        <time>2018-09-02T10:00:21Z</time>
      </trkpt>
      <trkpt lat="42.40195" lon="2.14402">
        <ele>2085</ele>
        <time>2018-09-02T10:00:45Z</time>
      </trkpt>
      <trkpt lat="42.40192" lon="2.14414">
        <ele>2083</ele>
        <time>2018-09-02T10:00:57Z</time>
      </trkpt>
      <trkpt lat="42.40181" lon="2.14437">
        <ele>2079</ele>
        <time>2018-09-02T10:01:20Z</time>
      </trkpt>
      <trkpt lat="42.40179" lon="2.14443">
        <ele>2075</ele>
        <time>2018-09-02T10:01:32Z</time>
      </trkpt>
      <trkpt lat="42.40182" lon="2.14449">
        <ele>2073</ele>
        <time>2018-09-02T10:01:39Z</time>
      </trkpt>
      <trkpt lat="42.40161" lon="2.14466">
        <ele>2066</ele>
        <time>2018-09-02T10:02:16Z</time>
      </trkpt>
      <trkpt lat="42.40151" lon="2.1447">
        <ele>2065</ele>
        <time>2018-09-02T10:02:25Z</time>
      </trkpt>
      <trkpt lat="42.40142" lon="2.14473">
        <ele>2064</ele>
        <time>2018-09-02T10:02:39Z</time>
      </trkpt>
      <trkpt lat="42.40137" lon="2.14477">
        <ele>2063</ele>
        <time>2018-09-02T10:02:59Z</time>
      </trkpt>
      <trkpt lat="42.40136" lon="2.14483">
        <ele>2064</ele>
        <time>2018-09-02T10:03:06Z</time>
      </trkpt>
      <trkpt lat="42.40135" lon="2.1449">
        <ele>2064</ele>
        <time>2018-09-02T10:03:12Z</time>
      </trkpt>
      <trkpt lat="42.40135" lon="2.14496">
        <ele>2063</ele>
        <time>2018-09-02T10:03:26Z</time>
      </trkpt>
      <trkpt lat="42.40129" lon="2.14518">
        <ele>2058</ele>
        <time>2018-09-02T10:03:46Z</time>
      </trkpt>
      <trkpt lat="42.40125" lon="2.1452">
        <ele>2058</ele>
        <time>2018-09-02T10:03:51Z</time>
      </trkpt>
      <trkpt lat="42.40124" lon="2.14526">
        <ele>2056</ele>
        <time>2018-09-02T10:03:59Z</time>
      </trkpt>
      <trkpt lat="42.40118" lon="2.14546">
        <ele>2053</ele>
        <time>2018-09-02T10:04:14Z</time>
      </trkpt>
      <trkpt lat="42.40115" lon="2.1455">
        <ele>2052</ele>
        <time>2018-09-02T10:04:18Z</time>
      </trkpt>
      <trkpt lat="42.40111" lon="2.14563">
        <ele>2051</ele>
        <time>2018-09-02T10:04:27Z</time>
      </trkpt>
      <trkpt lat="42.40108" lon="2.14568">
        <ele>2050</ele>
        <time>2018-09-02T10:04:34Z</time>
      </trkpt>
      <trkpt lat="42.40104" lon="2.14572">
        <ele>2049</ele>
        <time>2018-09-02T10:04:40Z</time>
      </trkpt>
      <trkpt lat="42.401" lon="2.14574">
        <ele>2049</ele>
        <time>2018-09-02T10:04:45Z</time>
      </trkpt>
      <trkpt lat="42.40094" lon="2.14579">
        <ele>2047</ele>
        <time>2018-09-02T10:04:50Z</time>
      </trkpt>
      <trkpt lat="42.4009" lon="2.14582">
        <ele>2047</ele>
        <time>2018-09-02T10:04:53Z</time>
      </trkpt>
      <trkpt lat="42.40083" lon="2.14584">
        <ele>2045</ele>
        <time>2018-09-02T10:05:01Z</time>
      </trkpt>
      <trkpt lat="42.40067" lon="2.14607">
        <ele>2042</ele>
        <time>2018-09-02T10:05:22Z</time>
      </trkpt>
      <trkpt lat="42.40064" lon="2.14621">
        <ele>2041</ele>
        <time>2018-09-02T10:05:34Z</time>
      </trkpt>
      <trkpt lat="42.40061" lon="2.1463">
        <ele>2039</ele>
        <time>2018-09-02T10:05:46Z</time>
      </trkpt>
      <trkpt lat="42.4005" lon="2.14643">
        <ele>2035</ele>
        <time>2018-09-02T10:06:11Z</time>
      </trkpt>
      <trkpt lat="42.40046" lon="2.14648">
        <ele>2033</ele>
        <time>2018-09-02T10:06:21Z</time>
      </trkpt>
      <trkpt lat="42.40041" lon="2.14652">
        <ele>2030</ele>
        <time>2018-09-02T10:06:33Z</time>
      </trkpt>
      <trkpt lat="42.40039" lon="2.14657">
        <ele>2030</ele>
        <time>2018-09-02T10:06:38Z</time>
      </trkpt>
      <trkpt lat="42.40034" lon="2.14663">
        <ele>2029</ele>
        <time>2018-09-02T10:06:44Z</time>
      </trkpt>
      <trkpt lat="42.4003" lon="2.14668">
        <ele>2029</ele>
        <time>2018-09-02T10:06:47Z</time>
      </trkpt>
      <trkpt lat="42.40026" lon="2.14671">
        <ele>2029</ele>
        <time>2018-09-02T10:06:51Z</time>
      </trkpt>
      <trkpt lat="42.40026" lon="2.14678">
        <ele>2029</ele>
        <time>2018-09-02T10:07:22Z</time>
      </trkpt>
      <trkpt lat="42.40021" lon="2.1468">
        <ele>2028</ele>
        <time>2018-09-02T10:07:32Z</time>
      </trkpt>
      <trkpt lat="42.40028" lon="2.1469">
        <ele>2024</ele>
        <time>2018-09-02T10:07:53Z</time>
      </trkpt>
      <trkpt lat="42.40038" lon="2.14698">
        <ele>2022</ele>
        <time>2018-09-02T10:08:10Z</time>
      </trkpt>
      <trkpt lat="42.40038" lon="2.14704">
        <ele>2020</ele>
        <time>2018-09-02T10:08:18Z</time>
      </trkpt>
      <trkpt lat="42.40039" lon="2.14717">
        <ele>2017</ele>
        <time>2018-09-02T10:08:28Z</time>
      </trkpt>
      <trkpt lat="42.40042" lon="2.14721">
        <ele>2016</ele>
        <time>2018-09-02T10:08:36Z</time>
      </trkpt>
      <trkpt lat="42.40044" lon="2.14731">
        <ele>2014</ele>
        <time>2018-09-02T10:08:46Z</time>
      </trkpt>
      <trkpt lat="42.40043" lon="2.14741">
        <ele>2013</ele>
        <time>2018-09-02T10:08:52Z</time>
      </trkpt>
      <trkpt lat="42.40046" lon="2.1475">
        <ele>2013</ele>
        <time>2018-09-02T10:08:59Z</time>
      </trkpt>
      <trkpt lat="42.40046" lon="2.14756">
        <ele>2012</ele>
        <time>2018-09-02T10:09:04Z</time>
      </trkpt>
      <trkpt lat="42.40039" lon="2.1476">
        <ele>2012</ele>
        <time>2018-09-02T10:09:11Z</time>
      </trkpt>
      <trkpt lat="42.40034" lon="2.14771">
        <ele>2011</ele>
        <time>2018-09-02T10:09:19Z</time>
      </trkpt>
      <trkpt lat="42.40029" lon="2.14776">
        <ele>2010</ele>
        <time>2018-09-02T10:09:23Z</time>
      </trkpt>
      <trkpt lat="42.40024" lon="2.14779">
        <ele>2009</ele>
        <time>2018-09-02T10:09:27Z</time>
      </trkpt>
      <trkpt lat="42.4002" lon="2.14783">
        <ele>2009</ele>
        <time>2018-09-02T10:09:31Z</time>
      </trkpt>
      <trkpt lat="42.40015" lon="2.14786">
        <ele>2008</ele>
        <time>2018-09-02T10:09:35Z</time>
      </trkpt>
      <trkpt lat="42.40012" lon="2.14791">
        <ele>2008</ele>
        <time>2018-09-02T10:09:40Z</time>
      </trkpt>
      <trkpt lat="42.4001" lon="2.14797">
        <ele>2008</ele>
        <time>2018-09-02T10:09:44Z</time>
      </trkpt>
      <trkpt lat="42.3999" lon="2.14816">
        <ele>2005</ele>
        <time>2018-09-02T10:10:05Z</time>
      </trkpt>
      <trkpt lat="42.39985" lon="2.1482">
        <ele>2005</ele>
        <time>2018-09-02T10:10:09Z</time>
      </trkpt>
      <trkpt lat="42.39974" lon="2.14834">
        <ele>2002</ele>
        <time>2018-09-02T10:10:23Z</time>
      </trkpt>
      <trkpt lat="42.39975" lon="2.1484">
        <ele>2002</ele>
        <time>2018-09-02T10:10:28Z</time>
      </trkpt>
      <trkpt lat="42.39974" lon="2.14847">
        <ele>2002</ele>
        <time>2018-09-02T10:10:33Z</time>
      </trkpt>
      <trkpt lat="42.39969" lon="2.1486">
        <ele>2001</ele>
        <time>2018-09-02T10:10:41Z</time>
      </trkpt>
      <trkpt lat="42.39963" lon="2.14874">
        <ele>1999</ele>
        <time>2018-09-02T10:10:53Z</time>
      </trkpt>
      <trkpt lat="42.39961" lon="2.14881">
        <ele>1998</ele>
        <time>2018-09-02T10:10:59Z</time>
      </trkpt>
      <trkpt lat="42.39958" lon="2.14887">
        <ele>1997</ele>
        <time>2018-09-02T10:11:07Z</time>
      </trkpt>
      <trkpt lat="42.39956" lon="2.149">
        <ele>1996</ele>
        <time>2018-09-02T10:11:16Z</time>
      </trkpt>
      <trkpt lat="42.39952" lon="2.14905">
        <ele>1996</ele>
        <time>2018-09-02T10:11:20Z</time>
      </trkpt>
      <trkpt lat="42.39951" lon="2.14911">
        <ele>1995</ele>
        <time>2018-09-02T10:11:25Z</time>
      </trkpt>
      <trkpt lat="42.39949" lon="2.14918">
        <ele>1995</ele>
        <time>2018-09-02T10:11:29Z</time>
      </trkpt>
      <trkpt lat="42.39949" lon="2.14934">
        <ele>1994</ele>
        <time>2018-09-02T10:11:40Z</time>
      </trkpt>
      <trkpt lat="42.39946" lon="2.14948">
        <ele>1993</ele>
        <time>2018-09-02T10:11:47Z</time>
      </trkpt>
      <trkpt lat="42.3994" lon="2.1496">
        <ele>1992</ele>
        <time>2018-09-02T10:11:59Z</time>
      </trkpt>
      <trkpt lat="42.39932" lon="2.14968">
        <ele>1991</ele>
        <time>2018-09-02T10:12:07Z</time>
      </trkpt>
      <trkpt lat="42.39929" lon="2.1498">
        <ele>1991</ele>
        <time>2018-09-02T10:12:16Z</time>
      </trkpt>
      <trkpt lat="42.39926" lon="2.14986">
        <ele>1990</ele>
        <time>2018-09-02T10:12:21Z</time>
      </trkpt>
      <trkpt lat="42.39922" lon="2.14992">
        <ele>1990</ele>
        <time>2018-09-02T10:12:25Z</time>
      </trkpt>
      <trkpt lat="42.39922" lon="2.14999">
        <ele>1990</ele>
        <time>2018-09-02T10:12:29Z</time>
      </trkpt>
      <trkpt lat="42.39909" lon="2.15025">
        <ele>1988</ele>
        <time>2018-09-02T10:12:49Z</time>
      </trkpt>
      <trkpt lat="42.39906" lon="2.15031">
        <ele>1988</ele>
        <time>2018-09-02T10:12:53Z</time>
      </trkpt>
      <trkpt lat="42.39894" lon="2.15074">
        <ele>1983</ele>
        <time>2018-09-02T10:13:42Z</time>
      </trkpt>
      <trkpt lat="42.39887" lon="2.15088">
        <ele>1982</ele>
        <time>2018-09-02T10:13:49Z</time>
      </trkpt>
      <trkpt lat="42.39881" lon="2.15107">
        <ele>1981</ele>
        <time>2018-09-02T10:13:59Z</time>
      </trkpt>
      <trkpt lat="42.39881" lon="2.15113">
        <ele>1980</ele>
        <time>2018-09-02T10:14:07Z</time>
      </trkpt>
      <trkpt lat="42.39877" lon="2.15118">
        <ele>1979</ele>
        <time>2018-09-02T10:14:11Z</time>
      </trkpt>
      <trkpt lat="42.39874" lon="2.15125">
        <ele>1979</ele>
        <time>2018-09-02T10:14:15Z</time>
      </trkpt>
      <trkpt lat="42.39871" lon="2.15135">
        <ele>1979</ele>
        <time>2018-09-02T10:14:23Z</time>
      </trkpt>
      <trkpt lat="42.39874" lon="2.15142">
        <ele>1979</ele>
        <time>2018-09-02T10:14:30Z</time>
      </trkpt>
      <trkpt lat="42.39871" lon="2.15148">
        <ele>1979</ele>
        <time>2018-09-02T10:14:35Z</time>
      </trkpt>
      <trkpt lat="42.39854" lon="2.15176">
        <ele>1976</ele>
        <time>2018-09-02T10:15:00Z</time>
      </trkpt>
      <trkpt lat="42.39843" lon="2.15208">
        <ele>1972</ele>
        <time>2018-09-02T10:15:31Z</time>
      </trkpt>
      <trkpt lat="42.3984" lon="2.15214">
        <ele>1972</ele>
        <time>2018-09-02T10:15:34Z</time>
      </trkpt>
      <trkpt lat="42.39839" lon="2.1522">
        <ele>1972</ele>
        <time>2018-09-02T10:15:39Z</time>
      </trkpt>
      <trkpt lat="42.39832" lon="2.15223">
        <ele>1970</ele>
        <time>2018-09-02T10:15:47Z</time>
      </trkpt>
      <trkpt lat="42.39828" lon="2.15225">
        <ele>1970</ele>
        <time>2018-09-02T10:15:51Z</time>
      </trkpt>
      <trkpt lat="42.3982" lon="2.15226">
        <ele>1969</ele>
        <time>2018-09-02T10:15:59Z</time>
      </trkpt>
      <trkpt lat="42.39812" lon="2.15234">
        <ele>1968</ele>
        <time>2018-09-02T10:16:09Z</time>
      </trkpt>
      <trkpt lat="42.39804" lon="2.15248">
        <ele>1968</ele>
        <time>2018-09-02T10:16:20Z</time>
      </trkpt>
      <trkpt lat="42.39802" lon="2.15263">
        <ele>1967</ele>
        <time>2018-09-02T10:16:27Z</time>
      </trkpt>
      <trkpt lat="42.39807" lon="2.15271">
        <ele>1967</ele>
        <time>2018-09-02T10:16:35Z</time>
      </trkpt>
      <trkpt lat="42.39808" lon="2.15281">
        <ele>1967</ele>
        <time>2018-09-02T10:16:44Z</time>
      </trkpt>
      <trkpt lat="42.39812" lon="2.15284">
        <ele>1967</ele>
        <time>2018-09-02T10:16:49Z</time>
      </trkpt>
      <trkpt lat="42.39818" lon="2.1528">
        <ele>1967</ele>
        <time>2018-09-02T10:16:56Z</time>
      </trkpt>
      <trkpt lat="42.39821" lon="2.15289">
        <ele>1965</ele>
        <time>2018-09-02T10:21:29Z</time>
      </trkpt>
      <trkpt lat="42.39828" lon="2.15292">
        <ele>1965</ele>
        <time>2018-09-02T10:21:50Z</time>
      </trkpt>
      <trkpt lat="42.39823" lon="2.15296">
        <ele>1964</ele>
        <time>2018-09-02T10:22:28Z</time>
      </trkpt>
      <trkpt lat="42.39823" lon="2.15299">
        <ele>1964</ele>
        <time>2018-09-02T10:26:34Z</time>
      </trkpt>
      <trkpt lat="42.39821" lon="2.15297">
        <ele>1964</ele>
        <time>2018-09-02T10:35:05Z</time>
      </trkpt>
      <trkpt lat="42.39816" lon="2.153">
        <ele>1964</ele>
        <time>2018-09-02T10:36:32Z</time>
      </trkpt>
      <trkpt lat="42.39818" lon="2.153">
        <ele>1965</ele>
        <time>2018-09-02T10:38:14Z</time>
      </trkpt>
      <trkpt lat="42.39822" lon="2.15305">
        <ele>1966</ele>
        <time>2018-09-02T10:39:56Z</time>
      </trkpt>
      <trkpt lat="42.39822" lon="2.15297">
        <ele>1966</ele>
        <time>2018-09-02T10:40:20Z</time>
      </trkpt>
      <trkpt lat="42.39823" lon="2.15291">
        <ele>1966</ele>
        <time>2018-09-02T10:40:25Z</time>
      </trkpt>
      <trkpt lat="42.39822" lon="2.15277">
        <ele>1966</ele>
        <time>2018-09-02T10:40:34Z</time>
      </trkpt>
      <trkpt lat="42.39823" lon="2.1527">
        <ele>1965</ele>
        <time>2018-09-02T10:40:39Z</time>
      </trkpt>
      <trkpt lat="42.3982" lon="2.15265">
        <ele>1965</ele>
        <time>2018-09-02T10:40:44Z</time>
      </trkpt>
      <trkpt lat="42.39815" lon="2.15264">
        <ele>1965</ele>
        <time>2018-09-02T10:40:48Z</time>
      </trkpt>
      <trkpt lat="42.39807" lon="2.15255">
        <ele>1965</ele>
        <time>2018-09-02T10:40:58Z</time>
      </trkpt>
      <trkpt lat="42.39808" lon="2.15246">
        <ele>1965</ele>
        <time>2018-09-02T10:41:07Z</time>
      </trkpt>
      <trkpt lat="42.39813" lon="2.15237">
        <ele>1965</ele>
        <time>2018-09-02T10:41:14Z</time>
      </trkpt>
      <trkpt lat="42.39823" lon="2.1523">
        <ele>1966</ele>
        <time>2018-09-02T10:41:26Z</time>
      </trkpt>
      <trkpt lat="42.39828" lon="2.15225">
        <ele>1967</ele>
        <time>2018-09-02T10:41:33Z</time>
      </trkpt>
      <trkpt lat="42.39833" lon="2.15226">
        <ele>1968</ele>
        <time>2018-09-02T10:41:37Z</time>
      </trkpt>
      <trkpt lat="42.39838" lon="2.15222">
        <ele>1968</ele>
        <time>2018-09-02T10:41:42Z</time>
      </trkpt>
      <trkpt lat="42.39843" lon="2.15217">
        <ele>1969</ele>
        <time>2018-09-02T10:41:47Z</time>
      </trkpt>
      <trkpt lat="42.39844" lon="2.15207">
        <ele>1970</ele>
        <time>2018-09-02T10:41:57Z</time>
      </trkpt>
      <trkpt lat="42.39851" lon="2.15196">
        <ele>1971</ele>
        <time>2018-09-02T10:42:05Z</time>
      </trkpt>
      <trkpt lat="42.39856" lon="2.15182">
        <ele>1972</ele>
        <time>2018-09-02T10:42:15Z</time>
      </trkpt>
      <trkpt lat="42.3986" lon="2.15177">
        <ele>1973</ele>
        <time>2018-09-02T10:42:20Z</time>
      </trkpt>
      <trkpt lat="42.39862" lon="2.1517">
        <ele>1974</ele>
        <time>2018-09-02T10:42:25Z</time>
      </trkpt>
      <trkpt lat="42.39862" lon="2.15164">
        <ele>1974</ele>
        <time>2018-09-02T10:42:30Z</time>
      </trkpt>
      <trkpt lat="42.39877" lon="2.15135">
        <ele>1977</ele>
        <time>2018-09-02T10:42:53Z</time>
      </trkpt>
      <trkpt lat="42.39881" lon="2.15117">
        <ele>1978</ele>
        <time>2018-09-02T10:43:07Z</time>
      </trkpt>
      <trkpt lat="42.39884" lon="2.15112">
        <ele>1979</ele>
        <time>2018-09-02T10:43:11Z</time>
      </trkpt>
      <trkpt lat="42.39886" lon="2.15097">
        <ele>1980</ele>
        <time>2018-09-02T10:43:23Z</time>
      </trkpt>
      <trkpt lat="42.39891" lon="2.1509">
        <ele>1981</ele>
        <time>2018-09-02T10:43:30Z</time>
      </trkpt>
      <trkpt lat="42.39891" lon="2.15084">
        <ele>1981</ele>
        <time>2018-09-02T10:43:34Z</time>
      </trkpt>
      <trkpt lat="42.39895" lon="2.15076">
        <ele>1980</ele>
        <time>2018-09-02T10:43:41Z</time>
      </trkpt>
      <trkpt lat="42.39899" lon="2.15071">
        <ele>1981</ele>
        <time>2018-09-02T10:43:46Z</time>
      </trkpt>
      <trkpt lat="42.39902" lon="2.1505">
        <ele>1982</ele>
        <time>2018-09-02T10:44:05Z</time>
      </trkpt>
      <trkpt lat="42.39905" lon="2.15044">
        <ele>1983</ele>
        <time>2018-09-02T10:44:10Z</time>
      </trkpt>
      <trkpt lat="42.39906" lon="2.15037">
        <ele>1983</ele>
        <time>2018-09-02T10:44:14Z</time>
      </trkpt>
      <trkpt lat="42.3991" lon="2.15033">
        <ele>1984</ele>
        <time>2018-09-02T10:44:19Z</time>
      </trkpt>
      <trkpt lat="42.39915" lon="2.15024">
        <ele>1984</ele>
        <time>2018-09-02T10:44:27Z</time>
      </trkpt>
      <trkpt lat="42.39917" lon="2.15002">
        <ele>1986</ele>
        <time>2018-09-02T10:44:43Z</time>
      </trkpt>
      <trkpt lat="42.39921" lon="2.1499">
        <ele>1986</ele>
        <time>2018-09-02T10:44:51Z</time>
      </trkpt>
      <trkpt lat="42.39924" lon="2.14977">
        <ele>1987</ele>
        <time>2018-09-02T10:45:00Z</time>
      </trkpt>
      <trkpt lat="42.39928" lon="2.14973">
        <ele>1987</ele>
        <time>2018-09-02T10:45:04Z</time>
      </trkpt>
      <trkpt lat="42.39942" lon="2.14948">
        <ele>1989</ele>
        <time>2018-09-02T10:45:22Z</time>
      </trkpt>
      <trkpt lat="42.39945" lon="2.14939">
        <ele>1990</ele>
        <time>2018-09-02T10:45:29Z</time>
      </trkpt>
      <trkpt lat="42.39949" lon="2.14927">
        <ele>1990</ele>
        <time>2018-09-02T10:45:37Z</time>
      </trkpt>
      <trkpt lat="42.39952" lon="2.14916">
        <ele>1991</ele>
        <time>2018-09-02T10:45:47Z</time>
      </trkpt>
      <trkpt lat="42.39955" lon="2.1491">
        <ele>1991</ele>
        <time>2018-09-02T10:45:51Z</time>
      </trkpt>
      <trkpt lat="42.39967" lon="2.14896">
        <ele>1992</ele>
        <time>2018-09-02T10:46:04Z</time>
      </trkpt>
      <trkpt lat="42.39968" lon="2.14889">
        <ele>1993</ele>
        <time>2018-09-02T10:46:09Z</time>
      </trkpt>
      <trkpt lat="42.3997" lon="2.14884">
        <ele>1994</ele>
        <time>2018-09-02T10:46:14Z</time>
      </trkpt>
      <trkpt lat="42.39971" lon="2.14875">
        <ele>1996</ele>
        <time>2018-09-02T10:46:22Z</time>
      </trkpt>
      <trkpt lat="42.39976" lon="2.14864">
        <ele>1997</ele>
        <time>2018-09-02T10:46:32Z</time>
      </trkpt>
      <trkpt lat="42.39979" lon="2.14859">
        <ele>1998</ele>
        <time>2018-09-02T10:46:36Z</time>
      </trkpt>
      <trkpt lat="42.39979" lon="2.14852">
        <ele>1999</ele>
        <time>2018-09-02T10:46:41Z</time>
      </trkpt>
      <trkpt lat="42.39978" lon="2.14845">
        <ele>1999</ele>
        <time>2018-09-02T10:46:46Z</time>
      </trkpt>
      <trkpt lat="42.3998" lon="2.14838">
        <ele>1999</ele>
        <time>2018-09-02T10:46:53Z</time>
      </trkpt>
      <trkpt lat="42.39981" lon="2.1483">
        <ele>1999</ele>
        <time>2018-09-02T10:46:58Z</time>
      </trkpt>
      <trkpt lat="42.39985" lon="2.14821">
        <ele>2000</ele>
        <time>2018-09-02T10:47:07Z</time>
      </trkpt>
      <trkpt lat="42.39988" lon="2.14817">
        <ele>2000</ele>
        <time>2018-09-02T10:47:11Z</time>
      </trkpt>
      <trkpt lat="42.39992" lon="2.14813">
        <ele>2001</ele>
        <time>2018-09-02T10:47:15Z</time>
      </trkpt>
      <trkpt lat="42.39996" lon="2.14808">
        <ele>2001</ele>
        <time>2018-09-02T10:47:20Z</time>
      </trkpt>
      <trkpt lat="42.40014" lon="2.14785">
        <ele>2002</ele>
        <time>2018-09-02T10:47:40Z</time>
      </trkpt>
      <trkpt lat="42.40022" lon="2.14776">
        <ele>2004</ele>
        <time>2018-09-02T10:47:52Z</time>
      </trkpt>
      <trkpt lat="42.40031" lon="2.14769">
        <ele>2005</ele>
        <time>2018-09-02T10:47:59Z</time>
      </trkpt>
      <trkpt lat="42.40037" lon="2.1476">
        <ele>2006</ele>
        <time>2018-09-02T10:48:11Z</time>
      </trkpt>
      <trkpt lat="42.40041" lon="2.14755">
        <ele>2007</ele>
        <time>2018-09-02T10:48:16Z</time>
      </trkpt>
      <trkpt lat="42.4004" lon="2.14748">
        <ele>2008</ele>
        <time>2018-09-02T10:48:21Z</time>
      </trkpt>
      <trkpt lat="42.4004" lon="2.14741">
        <ele>2008</ele>
        <time>2018-09-02T10:48:26Z</time>
      </trkpt>
      <trkpt lat="42.40039" lon="2.14734">
        <ele>2008</ele>
        <time>2018-09-02T10:48:30Z</time>
      </trkpt>
      <trkpt lat="42.40039" lon="2.14725">
        <ele>2009</ele>
        <time>2018-09-02T10:48:41Z</time>
      </trkpt>
      <trkpt lat="42.4004" lon="2.14715">
        <ele>2012</ele>
        <time>2018-09-02T10:48:53Z</time>
      </trkpt>
      <trkpt lat="42.40038" lon="2.14707">
        <ele>2014</ele>
        <time>2018-09-02T10:49:05Z</time>
      </trkpt>
      <trkpt lat="42.40033" lon="2.14699">
        <ele>2017</ele>
        <time>2018-09-02T10:49:29Z</time>
      </trkpt>
      <trkpt lat="42.4003" lon="2.14688">
        <ele>2018</ele>
        <time>2018-09-02T10:49:40Z</time>
      </trkpt>
      <trkpt lat="42.40038" lon="2.14683">
        <ele>2020</ele>
        <time>2018-09-02T10:49:52Z</time>
      </trkpt>
      <trkpt lat="42.40037" lon="2.14676">
        <ele>2022</ele>
        <time>2018-09-02T10:50:10Z</time>
      </trkpt>
      <trkpt lat="42.40033" lon="2.14669">
        <ele>2023</ele>
        <time>2018-09-02T10:50:51Z</time>
      </trkpt>
      <trkpt lat="42.40036" lon="2.14664">
        <ele>2023</ele>
        <time>2018-09-02T10:50:57Z</time>
      </trkpt>
      <trkpt lat="42.40046" lon="2.1465">
        <ele>2026</ele>
        <time>2018-09-02T10:51:17Z</time>
      </trkpt>
      <trkpt lat="42.4005" lon="2.14644">
        <ele>2028</ele>
        <time>2018-09-02T10:51:29Z</time>
      </trkpt>
      <trkpt lat="42.40064" lon="2.14629">
        <ele>2031</ele>
        <time>2018-09-02T10:51:52Z</time>
      </trkpt>
      <trkpt lat="42.40066" lon="2.14624">
        <ele>2033</ele>
        <time>2018-09-02T10:52:05Z</time>
      </trkpt>
      <trkpt lat="42.4008" lon="2.14611">
        <ele>2036</ele>
        <time>2018-09-02T10:52:28Z</time>
      </trkpt>
      <trkpt lat="42.40082" lon="2.14606">
        <ele>2037</ele>
        <time>2018-09-02T10:52:36Z</time>
      </trkpt>
      <trkpt lat="42.40086" lon="2.14599">
        <ele>2037</ele>
        <time>2018-09-02T10:52:40Z</time>
      </trkpt>
      <trkpt lat="42.40096" lon="2.14589">
        <ele>2040</ele>
        <time>2018-09-02T10:52:58Z</time>
      </trkpt>
      <trkpt lat="42.40097" lon="2.14582">
        <ele>2040</ele>
        <time>2018-09-02T10:53:05Z</time>
      </trkpt>
      <trkpt lat="42.40105" lon="2.14575">
        <ele>2042</ele>
        <time>2018-09-02T10:53:22Z</time>
      </trkpt>
      <trkpt lat="42.40112" lon="2.14563">
        <ele>2044</ele>
        <time>2018-09-02T10:53:35Z</time>
      </trkpt>
      <trkpt lat="42.40115" lon="2.14554">
        <ele>2046</ele>
        <time>2018-09-02T10:53:44Z</time>
      </trkpt>
      <trkpt lat="42.40118" lon="2.14548">
        <ele>2048</ele>
        <time>2018-09-02T10:53:54Z</time>
      </trkpt>
      <trkpt lat="42.40122" lon="2.14543">
        <ele>2049</ele>
        <time>2018-09-02T10:53:58Z</time>
      </trkpt>
      <trkpt lat="42.40129" lon="2.14526">
        <ele>2051</ele>
        <time>2018-09-02T10:54:19Z</time>
      </trkpt>
      <trkpt lat="42.40129" lon="2.1452">
        <ele>2053</ele>
        <time>2018-09-02T10:54:36Z</time>
      </trkpt>
      <trkpt lat="42.40135" lon="2.14511">
        <ele>2055</ele>
        <time>2018-09-02T10:54:53Z</time>
      </trkpt>
      <trkpt lat="42.40141" lon="2.14497">
        <ele>2056</ele>
        <time>2018-09-02T10:55:12Z</time>
      </trkpt>
      <trkpt lat="42.40143" lon="2.14482">
        <ele>2055</ele>
        <time>2018-09-02T10:55:20Z</time>
      </trkpt>
      <trkpt lat="42.40146" lon="2.14477">
        <ele>2055</ele>
        <time>2018-09-02T10:55:24Z</time>
      </trkpt>
      <trkpt lat="42.40151" lon="2.14474">
        <ele>2055</ele>
        <time>2018-09-02T10:55:29Z</time>
      </trkpt>
      <trkpt lat="42.40157" lon="2.14476">
        <ele>2056</ele>
        <time>2018-09-02T10:55:42Z</time>
      </trkpt>
      <trkpt lat="42.40164" lon="2.14475">
        <ele>2058</ele>
        <time>2018-09-02T10:55:54Z</time>
      </trkpt>
      <trkpt lat="42.40168" lon="2.14471">
        <ele>2060</ele>
        <time>2018-09-02T10:56:08Z</time>
      </trkpt>
      <trkpt lat="42.4018" lon="2.14462">
        <ele>2063</ele>
        <time>2018-09-02T10:56:24Z</time>
      </trkpt>
      <trkpt lat="42.40181" lon="2.14457">
        <ele>2065</ele>
        <time>2018-09-02T10:56:32Z</time>
      </trkpt>
      <trkpt lat="42.40183" lon="2.14449">
        <ele>2066</ele>
        <time>2018-09-02T10:56:44Z</time>
      </trkpt>
      <trkpt lat="42.40179" lon="2.14446">
        <ele>2067</ele>
        <time>2018-09-02T10:56:49Z</time>
      </trkpt>
      <trkpt lat="42.40178" lon="2.1444">
        <ele>2068</ele>
        <time>2018-09-02T10:56:57Z</time>
      </trkpt>
      <trkpt lat="42.40188" lon="2.14428">
        <ele>2071</ele>
        <time>2018-09-02T10:57:20Z</time>
      </trkpt>
      <trkpt lat="42.40194" lon="2.14421">
        <ele>2073</ele>
        <time>2018-09-02T10:57:34Z</time>
      </trkpt>
      <trkpt lat="42.40193" lon="2.14413">
        <ele>2075</ele>
        <time>2018-09-02T10:57:46Z</time>
      </trkpt>
      <trkpt lat="42.40184" lon="2.14402">
        <ele>2078</ele>
        <time>2018-09-02T10:58:14Z</time>
      </trkpt>
      <trkpt lat="42.4018" lon="2.144">
        <ele>2079</ele>
        <time>2018-09-02T10:58:18Z</time>
      </trkpt>
      <trkpt lat="42.40178" lon="2.14394">
        <ele>2081</ele>
        <time>2018-09-02T10:58:32Z</time>
      </trkpt>
      <trkpt lat="42.40173" lon="2.14388">
        <ele>2083</ele>
        <time>2018-09-02T10:58:44Z</time>
      </trkpt>
      <trkpt lat="42.40168" lon="2.14384">
        <ele>2084</ele>
        <time>2018-09-02T10:58:56Z</time>
      </trkpt>
      <trkpt lat="42.40167" lon="2.14377">
        <ele>2086</ele>
        <time>2018-09-02T10:59:08Z</time>
      </trkpt>
      <trkpt lat="42.40164" lon="2.14372">
        <ele>2086</ele>
        <time>2018-09-02T10:59:12Z</time>
      </trkpt>
      <trkpt lat="42.40159" lon="2.14366">
        <ele>2087</ele>
        <time>2018-09-02T10:59:25Z</time>
      </trkpt>
      <trkpt lat="42.40159" lon="2.1436">
        <ele>2088</ele>
        <time>2018-09-02T10:59:33Z</time>
      </trkpt>
      <trkpt lat="42.40157" lon="2.14353">
        <ele>2089</ele>
        <time>2018-09-02T10:59:39Z</time>
      </trkpt>
      <trkpt lat="42.40157" lon="2.14346">
        <ele>2090</ele>
        <time>2018-09-02T10:59:51Z</time>
      </trkpt>
      <trkpt lat="42.40142" lon="2.14313">
        <ele>2095</ele>
        <time>2018-09-02T11:00:33Z</time>
      </trkpt>
      <trkpt lat="42.40137" lon="2.14296">
        <ele>2097</ele>
        <time>2018-09-02T11:00:54Z</time>
      </trkpt>
      <trkpt lat="42.40134" lon="2.1429">
        <ele>2099</ele>
        <time>2018-09-02T11:01:09Z</time>
      </trkpt>
      <trkpt lat="42.40128" lon="2.14285">
        <ele>2101</ele>
        <time>2018-09-02T11:01:29Z</time>
      </trkpt>
      <trkpt lat="42.40124" lon="2.14276">
        <ele>2102</ele>
        <time>2018-09-02T11:01:41Z</time>
      </trkpt>
      <trkpt lat="42.40118" lon="2.14268">
        <ele>2104</ele>
        <time>2018-09-02T11:01:53Z</time>
      </trkpt>
      <trkpt lat="42.4011" lon="2.14255">
        <ele>2107</ele>
        <time>2018-09-02T11:02:17Z</time>
      </trkpt>
      <trkpt lat="42.40103" lon="2.1425">
        <ele>2109</ele>
        <time>2018-09-02T11:02:29Z</time>
      </trkpt>
      <trkpt lat="42.40098" lon="2.14247">
        <ele>2108</ele>
        <time>2018-09-02T11:02:34Z</time>
      </trkpt>
      <trkpt lat="42.40095" lon="2.14242">
        <ele>2109</ele>
        <time>2018-09-02T11:02:39Z</time>
      </trkpt>
      <trkpt lat="42.4009" lon="2.14235">
        <ele>2110</ele>
        <time>2018-09-02T11:02:48Z</time>
      </trkpt>
      <trkpt lat="42.40088" lon="2.14225">
        <ele>2111</ele>
        <time>2018-09-02T11:03:00Z</time>
      </trkpt>
      <trkpt lat="42.4008" lon="2.14219">
        <ele>2112</ele>
        <time>2018-09-02T11:03:11Z</time>
      </trkpt>
      <trkpt lat="42.40073" lon="2.14194">
        <ele>2115</ele>
        <time>2018-09-02T11:03:33Z</time>
      </trkpt>
      <trkpt lat="42.4007" lon="2.14186">
        <ele>2114</ele>
        <time>2018-09-02T11:03:40Z</time>
      </trkpt>
      <trkpt lat="42.40066" lon="2.1418">
        <ele>2115</ele>
        <time>2018-09-02T11:03:48Z</time>
      </trkpt>
      <trkpt lat="42.40059" lon="2.14176">
        <ele>2117</ele>
        <time>2018-09-02T11:04:00Z</time>
      </trkpt>
      <trkpt lat="42.40049" lon="2.14152">
        <ele>2122</ele>
        <time>2018-09-02T11:04:36Z</time>
      </trkpt>
      <trkpt lat="42.40044" lon="2.14146">
        <ele>2122</ele>
        <time>2018-09-02T11:04:48Z</time>
      </trkpt>
      <trkpt lat="42.40029" lon="2.14134">
        <ele>2125</ele>
        <time>2018-09-02T11:05:09Z</time>
      </trkpt>
      <trkpt lat="42.40024" lon="2.14124">
        <ele>2127</ele>
        <time>2018-09-02T11:05:21Z</time>
      </trkpt>
      <trkpt lat="42.40021" lon="2.14115">
        <ele>2128</ele>
        <time>2018-09-02T11:05:33Z</time>
      </trkpt>
      <trkpt lat="42.40025" lon="2.14107">
        <ele>2130</ele>
        <time>2018-09-02T11:05:51Z</time>
      </trkpt>
      <trkpt lat="42.40031" lon="2.14096">
        <ele>2134</ele>
        <time>2018-09-02T11:06:21Z</time>
      </trkpt>
      <trkpt lat="42.40028" lon="2.14088">
        <ele>2137</ele>
        <time>2018-09-02T11:06:39Z</time>
      </trkpt>
      <trkpt lat="42.40025" lon="2.1408">
        <ele>2140</ele>
        <time>2018-09-02T11:06:57Z</time>
      </trkpt>
      <trkpt lat="42.40019" lon="2.14071">
        <ele>2141</ele>
        <time>2018-09-02T11:07:09Z</time>
      </trkpt>
      <trkpt lat="42.40015" lon="2.14066">
        <ele>2142</ele>
        <time>2018-09-02T11:07:15Z</time>
      </trkpt>
      <trkpt lat="42.40002" lon="2.14057">
        <ele>2143</ele>
        <time>2018-09-02T11:07:32Z</time>
      </trkpt>
      <trkpt lat="42.39989" lon="2.14055">
        <ele>2146</ele>
        <time>2018-09-02T11:07:55Z</time>
      </trkpt>
      <trkpt lat="42.39983" lon="2.14052">
        <ele>2148</ele>
        <time>2018-09-02T11:08:05Z</time>
      </trkpt>
      <trkpt lat="42.39999" lon="2.14042">
        <ele>2152</ele>
        <time>2018-09-02T11:08:38Z</time>
      </trkpt>
      <trkpt lat="42.39979" lon="2.14029">
        <ele>2158</ele>
        <time>2018-09-02T11:09:20Z</time>
      </trkpt>
      <trkpt lat="42.39972" lon="2.1403">
        <ele>2159</ele>
        <time>2018-09-02T11:09:32Z</time>
      </trkpt>
      <trkpt lat="42.39967" lon="2.14024">
        <ele>2162</ele>
        <time>2018-09-02T11:09:50Z</time>
      </trkpt>
      <trkpt lat="42.39963" lon="2.14019">
        <ele>2164</ele>
        <time>2018-09-02T11:10:08Z</time>
      </trkpt>
      <trkpt lat="42.39961" lon="2.14012">
        <ele>2166</ele>
        <time>2018-09-02T11:10:20Z</time>
      </trkpt>
      <trkpt lat="42.39962" lon="2.14006">
        <ele>2168</ele>
        <time>2018-09-02T11:10:33Z</time>
      </trkpt>
      <trkpt lat="42.39959" lon="2.14001">
        <ele>2173</ele>
        <time>2018-09-02T11:11:15Z</time>
      </trkpt>
      <trkpt lat="42.39954" lon="2.14003">
        <ele>2174</ele>
        <time>2018-09-02T11:11:21Z</time>
      </trkpt>
      <trkpt lat="42.3995" lon="2.13996">
        <ele>2176</ele>
        <time>2018-09-02T11:11:33Z</time>
      </trkpt>
      <trkpt lat="42.39945" lon="2.13999">
        <ele>2178</ele>
        <time>2018-09-02T11:11:47Z</time>
      </trkpt>
      <trkpt lat="42.39935" lon="2.13989">
        <ele>2183</ele>
        <time>2018-09-02T11:12:25Z</time>
      </trkpt>
      <trkpt lat="42.39931" lon="2.13985">
        <ele>2186</ele>
        <time>2018-09-02T11:12:43Z</time>
      </trkpt>
      <trkpt lat="42.39926" lon="2.13986">
        <ele>2188</ele>
        <time>2018-09-02T11:12:56Z</time>
      </trkpt>
      <trkpt lat="42.39921" lon="2.13984">
        <ele>2189</ele>
        <time>2018-09-02T11:13:03Z</time>
      </trkpt>
      <trkpt lat="42.39911" lon="2.13982">
        <ele>2193</ele>
        <time>2018-09-02T11:13:28Z</time>
      </trkpt>
      <trkpt lat="42.39906" lon="2.13978">
        <ele>2195</ele>
        <time>2018-09-02T11:13:43Z</time>
      </trkpt>
      <trkpt lat="42.39897" lon="2.13978">
        <ele>2198</ele>
        <time>2018-09-02T11:14:01Z</time>
      </trkpt>
      <trkpt lat="42.39893" lon="2.13974">
        <ele>2198</ele>
        <time>2018-09-02T11:14:15Z</time>
      </trkpt>
      <trkpt lat="42.39884" lon="2.13978">
        <ele>2199</ele>
        <time>2018-09-02T11:14:44Z</time>
      </trkpt>
      <trkpt lat="42.39881" lon="2.13972">
        <ele>2199</ele>
        <time>2018-09-02T11:15:18Z</time>
      </trkpt>
      <trkpt lat="42.39878" lon="2.1396">
        <ele>2200</ele>
        <time>2018-09-02T11:15:27Z</time>
      </trkpt>
      <trkpt lat="42.39873" lon="2.13955">
        <ele>2201</ele>
        <time>2018-09-02T11:15:34Z</time>
      </trkpt>
      <trkpt lat="42.39869" lon="2.1395">
        <ele>2201</ele>
        <time>2018-09-02T11:15:39Z</time>
      </trkpt>
      <trkpt lat="42.39866" lon="2.13943">
        <ele>2202</ele>
        <time>2018-09-02T11:15:49Z</time>
      </trkpt>
      <trkpt lat="42.39862" lon="2.13937">
        <ele>2204</ele>
        <time>2018-09-02T11:16:01Z</time>
      </trkpt>
      <trkpt lat="42.39861" lon="2.13931">
        <ele>2205</ele>
        <time>2018-09-02T11:16:06Z</time>
      </trkpt>
      <trkpt lat="42.39855" lon="2.13923">
        <ele>2206</ele>
        <time>2018-09-02T11:16:15Z</time>
      </trkpt>
      <trkpt lat="42.39853" lon="2.13914">
        <ele>2207</ele>
        <time>2018-09-02T11:16:25Z</time>
      </trkpt>
      <trkpt lat="42.39851" lon="2.13908">
        <ele>2208</ele>
        <time>2018-09-02T11:16:31Z</time>
      </trkpt>
      <trkpt lat="42.39847" lon="2.13903">
        <ele>2210</ele>
        <time>2018-09-02T11:16:43Z</time>
      </trkpt>
      <trkpt lat="42.39844" lon="2.13895">
        <ele>2211</ele>
        <time>2018-09-02T11:16:55Z</time>
      </trkpt>
      <trkpt lat="42.3984" lon="2.13889">
        <ele>2214</ele>
        <time>2018-09-02T11:17:13Z</time>
      </trkpt>
      <trkpt lat="42.39837" lon="2.13872">
        <ele>2216</ele>
        <time>2018-09-02T11:17:37Z</time>
      </trkpt>
      <trkpt lat="42.39827" lon="2.13854">
        <ele>2219</ele>
        <time>2018-09-02T11:18:01Z</time>
      </trkpt>
      <trkpt lat="42.39823" lon="2.13845">
        <ele>2220</ele>
        <time>2018-09-02T11:18:10Z</time>
      </trkpt>
      <trkpt lat="42.3982" lon="2.13841">
        <ele>2220</ele>
        <time>2018-09-02T11:18:15Z</time>
      </trkpt>
      <trkpt lat="42.39816" lon="2.13834">
        <ele>2221</ele>
        <time>2018-09-02T11:18:24Z</time>
      </trkpt>
      <trkpt lat="42.39815" lon="2.13825">
        <ele>2222</ele>
        <time>2018-09-02T11:18:36Z</time>
      </trkpt>
      <trkpt lat="42.39813" lon="2.13809">
        <ele>2222</ele>
        <time>2018-09-02T11:18:54Z</time>
      </trkpt>
      <trkpt lat="42.39805" lon="2.13799">
        <ele>2222</ele>
        <time>2018-09-02T11:19:02Z</time>
      </trkpt>
      <trkpt lat="42.39805" lon="2.13788">
        <ele>2224</ele>
        <time>2018-09-02T11:19:16Z</time>
      </trkpt>
      <trkpt lat="42.39802" lon="2.13781">
        <ele>2226</ele>
        <time>2018-09-02T11:19:28Z</time>
      </trkpt>
      <trkpt lat="42.39794" lon="2.13769">
        <ele>2228</ele>
        <time>2018-09-02T11:19:46Z</time>
      </trkpt>
      <trkpt lat="42.39792" lon="2.13762">
        <ele>2229</ele>
        <time>2018-09-02T11:19:58Z</time>
      </trkpt>
      <trkpt lat="42.3979" lon="2.13753">
        <ele>2231</ele>
        <time>2018-09-02T11:20:10Z</time>
      </trkpt>
      <trkpt lat="42.39787" lon="2.13748">
        <ele>2232</ele>
        <time>2018-09-02T11:20:18Z</time>
      </trkpt>
      <trkpt lat="42.39788" lon="2.13733">
        <ele>2235</ele>
        <time>2018-09-02T11:20:42Z</time>
      </trkpt>
      <trkpt lat="42.39789" lon="2.13724">
        <ele>2237</ele>
        <time>2018-09-02T11:20:54Z</time>
      </trkpt>
      <trkpt lat="42.39789" lon="2.13717">
        <ele>2238</ele>
        <time>2018-09-02T11:21:06Z</time>
      </trkpt>
      <trkpt lat="42.39785" lon="2.13708">
        <ele>2239</ele>
        <time>2018-09-02T11:21:18Z</time>
      </trkpt>
      <trkpt lat="42.39786" lon="2.137">
        <ele>2240</ele>
        <time>2018-09-02T11:21:30Z</time>
      </trkpt>
      <trkpt lat="42.39785" lon="2.13692">
        <ele>2241</ele>
        <time>2018-09-02T11:21:42Z</time>
      </trkpt>
      <trkpt lat="42.39782" lon="2.13688">
        <ele>2241</ele>
        <time>2018-09-02T11:21:47Z</time>
      </trkpt>
      <trkpt lat="42.3978" lon="2.13676">
        <ele>2245</ele>
        <time>2018-09-02T11:22:07Z</time>
      </trkpt>
      <trkpt lat="42.39776" lon="2.13673">
        <ele>2245</ele>
        <time>2018-09-02T11:22:13Z</time>
      </trkpt>
      <trkpt lat="42.39769" lon="2.13671">
        <ele>2246</ele>
        <time>2018-09-02T11:22:19Z</time>
      </trkpt>
      <trkpt lat="42.39765" lon="2.13662">
        <ele>2248</ele>
        <time>2018-09-02T11:22:31Z</time>
      </trkpt>
      <trkpt lat="42.3976" lon="2.13655">
        <ele>2249</ele>
        <time>2018-09-02T11:22:41Z</time>
      </trkpt>
      <trkpt lat="42.39761" lon="2.13644">
        <ele>2249</ele>
        <time>2018-09-02T11:22:51Z</time>
      </trkpt>
      <trkpt lat="42.39756" lon="2.1364">
        <ele>2250</ele>
        <time>2018-09-02T11:23:03Z</time>
      </trkpt>
      <trkpt lat="42.39751" lon="2.13642">
        <ele>2251</ele>
        <time>2018-09-02T11:23:06Z</time>
      </trkpt>
      <trkpt lat="42.39747" lon="2.13641">
        <ele>2251</ele>
        <time>2018-09-02T11:23:10Z</time>
      </trkpt>
      <trkpt lat="42.39743" lon="2.13638">
        <ele>2253</ele>
        <time>2018-09-02T11:23:24Z</time>
      </trkpt>
      <trkpt lat="42.39737" lon="2.13625">
        <ele>2255</ele>
        <time>2018-09-02T11:23:35Z</time>
      </trkpt>
      <trkpt lat="42.39735" lon="2.13615">
        <ele>2256</ele>
        <time>2018-09-02T11:23:45Z</time>
      </trkpt>
      <trkpt lat="42.39733" lon="2.13606">
        <ele>2257</ele>
        <time>2018-09-02T11:23:55Z</time>
      </trkpt>
      <trkpt lat="42.39733" lon="2.13598">
        <ele>2258</ele>
        <time>2018-09-02T11:24:07Z</time>
      </trkpt>
      <trkpt lat="42.39736" lon="2.13592">
        <ele>2259</ele>
        <time>2018-09-02T11:24:15Z</time>
      </trkpt>
      <trkpt lat="42.39734" lon="2.13586">
        <ele>2260</ele>
        <time>2018-09-02T11:24:20Z</time>
      </trkpt>
      <trkpt lat="42.39737" lon="2.1358">
        <ele>2260</ele>
        <time>2018-09-02T11:24:25Z</time>
      </trkpt>
      <trkpt lat="42.39733" lon="2.13567">
        <ele>2261</ele>
        <time>2018-09-02T11:24:36Z</time>
      </trkpt>
      <trkpt lat="42.39731" lon="2.13553">
        <ele>2263</ele>
        <time>2018-09-02T11:24:50Z</time>
      </trkpt>
      <trkpt lat="42.39725" lon="2.13539">
        <ele>2265</ele>
        <time>2018-09-02T11:25:07Z</time>
      </trkpt>
      <trkpt lat="42.3973" lon="2.13534">
        <ele>2266</ele>
        <time>2018-09-02T11:25:14Z</time>
      </trkpt>
      <trkpt lat="42.39734" lon="2.13519">
        <ele>2268</ele>
        <time>2018-09-02T11:25:34Z</time>
      </trkpt>
      <trkpt lat="42.39744" lon="2.13505">
        <ele>2272</ele>
        <time>2018-09-02T11:25:53Z</time>
      </trkpt>
      <trkpt lat="42.39744" lon="2.13498">
        <ele>2274</ele>
        <time>2018-09-02T11:26:06Z</time>
      </trkpt>
      <trkpt lat="42.39741" lon="2.13491">
        <ele>2275</ele>
        <time>2018-09-02T11:26:18Z</time>
      </trkpt>
      <trkpt lat="42.3974" lon="2.1348">
        <ele>2278</ele>
        <time>2018-09-02T11:26:42Z</time>
      </trkpt>
      <trkpt lat="42.39737" lon="2.13473">
        <ele>2280</ele>
        <time>2018-09-02T11:26:54Z</time>
      </trkpt>
      <trkpt lat="42.39731" lon="2.13466">
        <ele>2281</ele>
        <time>2018-09-02T11:27:06Z</time>
      </trkpt>
      <trkpt lat="42.39722" lon="2.13464">
        <ele>2286</ele>
        <time>2018-09-02T11:27:41Z</time>
      </trkpt>
      <trkpt lat="42.39715" lon="2.13464">
        <ele>2288</ele>
        <time>2018-09-02T11:27:54Z</time>
      </trkpt>
      <trkpt lat="42.39714" lon="2.13448">
        <ele>2292</ele>
        <time>2018-09-02T11:28:32Z</time>
      </trkpt>
      <trkpt lat="42.3972" lon="2.13438">
        <ele>2294</ele>
        <time>2018-09-02T11:28:44Z</time>
      </trkpt>
      <trkpt lat="42.3972" lon="2.13424">
        <ele>2297</ele>
        <time>2018-09-02T11:29:02Z</time>
      </trkpt>
      <trkpt lat="42.39722" lon="2.13417">
        <ele>2298</ele>
        <time>2018-09-02T11:29:10Z</time>
      </trkpt>
      <trkpt lat="42.39724" lon="2.13411">
        <ele>2299</ele>
        <time>2018-09-02T11:29:22Z</time>
      </trkpt>
      <trkpt lat="42.39722" lon="2.13405">
        <ele>2301</ele>
        <time>2018-09-02T11:29:34Z</time>
      </trkpt>
      <trkpt lat="42.39717" lon="2.13395">
        <ele>2304</ele>
        <time>2018-09-02T11:29:58Z</time>
      </trkpt>
      <trkpt lat="42.39716" lon="2.1338">
        <ele>2306</ele>
        <time>2018-09-02T11:30:16Z</time>
      </trkpt>
      <trkpt lat="42.39713" lon="2.13374">
        <ele>2307</ele>
        <time>2018-09-02T11:30:21Z</time>
      </trkpt>
      <trkpt lat="42.39708" lon="2.13363">
        <ele>2309</ele>
        <time>2018-09-02T11:30:34Z</time>
      </trkpt>
      <trkpt lat="42.39705" lon="2.13359">
        <ele>2310</ele>
        <time>2018-09-02T11:30:45Z</time>
      </trkpt>
      <trkpt lat="42.39701" lon="2.13355">
        <ele>2311</ele>
        <time>2018-09-02T11:30:55Z</time>
      </trkpt>
      <trkpt lat="42.39699" lon="2.13349">
        <ele>2312</ele>
        <time>2018-09-02T11:31:05Z</time>
      </trkpt>
      <trkpt lat="42.39683" lon="2.13339">
        <ele>2317</ele>
        <time>2018-09-02T11:31:43Z</time>
      </trkpt>
      <trkpt lat="42.39676" lon="2.1334">
        <ele>2320</ele>
        <time>2018-09-02T11:32:07Z</time>
      </trkpt>
      <trkpt lat="42.39669" lon="2.13335">
        <ele>2322</ele>
        <time>2018-09-02T11:32:20Z</time>
      </trkpt>
      <trkpt lat="42.39659" lon="2.13333">
        <ele>2325</ele>
        <time>2018-09-02T11:32:45Z</time>
      </trkpt>
      <trkpt lat="42.39655" lon="2.13335">
        <ele>2326</ele>
        <time>2018-09-02T11:32:51Z</time>
      </trkpt>
      <trkpt lat="42.39647" lon="2.13334">
        <ele>2329</ele>
        <time>2018-09-02T11:33:09Z</time>
      </trkpt>
      <trkpt lat="42.39643" lon="2.13329">
        <ele>2331</ele>
        <time>2018-09-02T11:33:21Z</time>
      </trkpt>
      <trkpt lat="42.39639" lon="2.13331">
        <ele>2332</ele>
        <time>2018-09-02T11:33:33Z</time>
      </trkpt>
      <trkpt lat="42.39634" lon="2.13332">
        <ele>2334</ele>
        <time>2018-09-02T11:33:45Z</time>
      </trkpt>
      <trkpt lat="42.39624" lon="2.13324">
        <ele>2337</ele>
        <time>2018-09-02T11:34:09Z</time>
      </trkpt>
      <trkpt lat="42.39616" lon="2.13313">
        <ele>2340</ele>
        <time>2018-09-02T11:34:38Z</time>
      </trkpt>
      <trkpt lat="42.39612" lon="2.13314">
        <ele>2340</ele>
        <time>2018-09-02T11:34:43Z</time>
      </trkpt>
      <trkpt lat="42.39607" lon="2.13311">
        <ele>2341</ele>
        <time>2018-09-02T11:34:51Z</time>
      </trkpt>
      <trkpt lat="42.39606" lon="2.13303">
        <ele>2343</ele>
        <time>2018-09-02T11:35:03Z</time>
      </trkpt>
      <trkpt lat="42.39597" lon="2.1329">
        <ele>2346</ele>
        <time>2018-09-02T11:35:20Z</time>
      </trkpt>
      <trkpt lat="42.39592" lon="2.1329">
        <ele>2346</ele>
        <time>2018-09-02T11:35:24Z</time>
      </trkpt>
      <trkpt lat="42.39577" lon="2.1328">
        <ele>2347</ele>
        <time>2018-09-02T11:35:43Z</time>
      </trkpt>
      <trkpt lat="42.39556" lon="2.1327">
        <ele>2349</ele>
        <time>2018-09-02T11:36:10Z</time>
      </trkpt>
      <trkpt lat="42.39552" lon="2.13266">
        <ele>2349</ele>
        <time>2018-09-02T11:36:15Z</time>
      </trkpt>
      <trkpt lat="42.39546" lon="2.13264">
        <ele>2350</ele>
        <time>2018-09-02T11:36:20Z</time>
      </trkpt>
      <trkpt lat="42.39539" lon="2.13264">
        <ele>2351</ele>
        <time>2018-09-02T11:36:28Z</time>
      </trkpt>
      <trkpt lat="42.39534" lon="2.13263">
        <ele>2350</ele>
        <time>2018-09-02T11:36:36Z</time>
      </trkpt>
      <trkpt lat="42.39527" lon="2.13257">
        <ele>2349</ele>
        <time>2018-09-02T11:36:45Z</time>
      </trkpt>
      <trkpt lat="42.39523" lon="2.13254">
        <ele>2349</ele>
        <time>2018-09-02T11:36:49Z</time>
      </trkpt>
      <trkpt lat="42.39521" lon="2.1324">
        <ele>2349</ele>
        <time>2018-09-02T11:37:03Z</time>
      </trkpt>
      <trkpt lat="42.39521" lon="2.13235">
        <ele>2351</ele>
        <time>2018-09-02T11:37:14Z</time>
      </trkpt>
      <trkpt lat="42.39529" lon="2.13225">
        <ele>2353</ele>
        <time>2018-09-02T11:37:27Z</time>
      </trkpt>
      <trkpt lat="42.39533" lon="2.13217">
        <ele>2355</ele>
        <time>2018-09-02T11:37:38Z</time>
      </trkpt>
      <trkpt lat="42.3953" lon="2.1321">
        <ele>2356</ele>
        <time>2018-09-02T11:37:50Z</time>
      </trkpt>
      <trkpt lat="42.39531" lon="2.13202">
        <ele>2358</ele>
        <time>2018-09-02T11:38:05Z</time>
      </trkpt>
      <trkpt lat="42.39533" lon="2.13192">
        <ele>2360</ele>
        <time>2018-09-02T11:38:17Z</time>
      </trkpt>
      <trkpt lat="42.39536" lon="2.13186">
        <ele>2363</ele>
        <time>2018-09-02T11:38:29Z</time>
      </trkpt>
      <trkpt lat="42.3953" lon="2.13179">
        <ele>2365</ele>
        <time>2018-09-02T11:38:47Z</time>
      </trkpt>
      <trkpt lat="42.39529" lon="2.13172">
        <ele>2366</ele>
        <time>2018-09-02T11:38:57Z</time>
      </trkpt>
      <trkpt lat="42.39526" lon="2.13166">
        <ele>2370</ele>
        <time>2018-09-02T11:39:21Z</time>
      </trkpt>
      <trkpt lat="42.39515" lon="2.13164">
        <ele>2374</ele>
        <time>2018-09-02T11:39:45Z</time>
      </trkpt>
      <trkpt lat="42.3951" lon="2.13169">
        <ele>2376</ele>
        <time>2018-09-02T11:39:57Z</time>
      </trkpt>
      <trkpt lat="42.39505" lon="2.13171">
        <ele>2378</ele>
        <time>2018-09-02T11:40:11Z</time>
      </trkpt>
      <trkpt lat="42.39499" lon="2.13168">
        <ele>2379</ele>
        <time>2018-09-02T11:40:24Z</time>
      </trkpt>
      <trkpt lat="42.39492" lon="2.13168">
        <ele>2381</ele>
        <time>2018-09-02T11:40:40Z</time>
      </trkpt>
      <trkpt lat="42.3948" lon="2.13163">
        <ele>2384</ele>
        <time>2018-09-02T11:41:00Z</time>
      </trkpt>
      <trkpt lat="42.39475" lon="2.1316">
        <ele>2385</ele>
        <time>2018-09-02T11:41:08Z</time>
      </trkpt>
      <trkpt lat="42.39455" lon="2.13154">
        <ele>2388</ele>
        <time>2018-09-02T11:41:37Z</time>
      </trkpt>
      <trkpt lat="42.3945" lon="2.1315">
        <ele>2389</ele>
        <time>2018-09-02T11:41:45Z</time>
      </trkpt>
      <trkpt lat="42.39443" lon="2.13149">
        <ele>2391</ele>
        <time>2018-09-02T11:41:57Z</time>
      </trkpt>
      <trkpt lat="42.39438" lon="2.13149">
        <ele>2392</ele>
        <time>2018-09-02T11:42:09Z</time>
      </trkpt>
      <trkpt lat="42.39436" lon="2.13142">
        <ele>2393</ele>
        <time>2018-09-02T11:42:15Z</time>
      </trkpt>
      <trkpt lat="42.39432" lon="2.13138">
        <ele>2393</ele>
        <time>2018-09-02T11:42:20Z</time>
      </trkpt>
      <trkpt lat="42.39427" lon="2.13121">
        <ele>2396</ele>
        <time>2018-09-02T11:42:45Z</time>
      </trkpt>
      <trkpt lat="42.39426" lon="2.13113">
        <ele>2398</ele>
        <time>2018-09-02T11:42:57Z</time>
      </trkpt>
      <trkpt lat="42.39426" lon="2.13102">
        <ele>2400</ele>
        <time>2018-09-02T11:43:09Z</time>
      </trkpt>
      <trkpt lat="42.3942" lon="2.13095">
        <ele>2403</ele>
        <time>2018-09-02T11:43:26Z</time>
      </trkpt>
      <trkpt lat="42.39411" lon="2.13092">
        <ele>2406</ele>
        <time>2018-09-02T11:43:46Z</time>
      </trkpt>
      <trkpt lat="42.39399" lon="2.13076">
        <ele>2409</ele>
        <time>2018-09-02T11:44:08Z</time>
      </trkpt>
      <trkpt lat="42.39393" lon="2.13073">
        <ele>2410</ele>
        <time>2018-09-02T11:44:19Z</time>
      </trkpt>
      <trkpt lat="42.39385" lon="2.13064">
        <ele>2413</ele>
        <time>2018-09-02T11:44:43Z</time>
      </trkpt>
      <trkpt lat="42.39378" lon="2.13061">
        <ele>2415</ele>
        <time>2018-09-02T11:44:56Z</time>
      </trkpt>
      <trkpt lat="42.39365" lon="2.13051">
        <ele>2419</ele>
        <time>2018-09-02T11:45:30Z</time>
      </trkpt>
      <trkpt lat="42.39358" lon="2.13043">
        <ele>2420</ele>
        <time>2018-09-02T11:45:41Z</time>
      </trkpt>
      <trkpt lat="42.3935" lon="2.1304">
        <ele>2421</ele>
        <time>2018-09-02T11:45:49Z</time>
      </trkpt>
      <trkpt lat="42.39345" lon="2.1304">
        <ele>2421</ele>
        <time>2018-09-02T11:45:53Z</time>
      </trkpt>
      <trkpt lat="42.39339" lon="2.13039">
        <ele>2421</ele>
        <time>2018-09-02T11:45:58Z</time>
      </trkpt>
      <trkpt lat="42.39334" lon="2.13035">
        <ele>2423</ele>
        <time>2018-09-02T11:46:12Z</time>
      </trkpt>
      <trkpt lat="42.39322" lon="2.13031">
        <ele>2426</ele>
        <time>2018-09-02T11:46:29Z</time>
      </trkpt>
      <trkpt lat="42.39318" lon="2.13024">
        <ele>2428</ele>
        <time>2018-09-02T11:46:41Z</time>
      </trkpt>
      <trkpt lat="42.39312" lon="2.13016">
        <ele>2429</ele>
        <time>2018-09-02T11:46:53Z</time>
      </trkpt>
      <trkpt lat="42.39311" lon="2.13007">
        <ele>2432</ele>
        <time>2018-09-02T11:47:10Z</time>
      </trkpt>
      <trkpt lat="42.39309" lon="2.12999">
        <ele>2432</ele>
        <time>2018-09-02T11:47:20Z</time>
      </trkpt>
      <trkpt lat="42.39305" lon="2.12995">
        <ele>2434</ele>
        <time>2018-09-02T11:47:31Z</time>
      </trkpt>
      <trkpt lat="42.39302" lon="2.1299">
        <ele>2434</ele>
        <time>2018-09-02T11:47:37Z</time>
      </trkpt>
      <trkpt lat="42.39299" lon="2.12984">
        <ele>2436</ele>
        <time>2018-09-02T11:47:49Z</time>
      </trkpt>
      <trkpt lat="42.39296" lon="2.12977">
        <ele>2438</ele>
        <time>2018-09-02T11:48:06Z</time>
      </trkpt>
      <trkpt lat="42.39295" lon="2.1297">
        <ele>2440</ele>
        <time>2018-09-02T11:48:20Z</time>
      </trkpt>
      <trkpt lat="42.39292" lon="2.12965">
        <ele>2441</ele>
        <time>2018-09-02T11:48:26Z</time>
      </trkpt>
      <trkpt lat="42.3929" lon="2.12959">
        <ele>2441</ele>
        <time>2018-09-02T11:48:32Z</time>
      </trkpt>
      <trkpt lat="42.39288" lon="2.12951">
        <ele>2442</ele>
        <time>2018-09-02T11:48:40Z</time>
      </trkpt>
      <trkpt lat="42.39283" lon="2.12935">
        <ele>2445</ele>
        <time>2018-09-02T11:49:04Z</time>
      </trkpt>
      <trkpt lat="42.3928" lon="2.12927">
        <ele>2446</ele>
        <time>2018-09-02T11:49:16Z</time>
      </trkpt>
      <trkpt lat="42.39279" lon="2.12921">
        <ele>2448</ele>
        <time>2018-09-02T11:49:28Z</time>
      </trkpt>
      <trkpt lat="42.39273" lon="2.12891">
        <ele>2450</ele>
        <time>2018-09-02T11:49:59Z</time>
      </trkpt>
      <trkpt lat="42.39267" lon="2.12878">
        <ele>2451</ele>
        <time>2018-09-02T11:50:11Z</time>
      </trkpt>
      <trkpt lat="42.39266" lon="2.12868">
        <ele>2453</ele>
        <time>2018-09-02T11:50:26Z</time>
      </trkpt>
      <trkpt lat="42.39254" lon="2.12842">
        <ele>2456</ele>
        <time>2018-09-02T11:50:59Z</time>
      </trkpt>
      <trkpt lat="42.39248" lon="2.12818">
        <ele>2461</ele>
        <time>2018-09-02T11:51:41Z</time>
      </trkpt>
      <trkpt lat="42.39244" lon="2.12801">
        <ele>2464</ele>
        <time>2018-09-02T11:52:05Z</time>
      </trkpt>
      <trkpt lat="42.39242" lon="2.12795">
        <ele>2465</ele>
        <time>2018-09-02T11:52:29Z</time>
      </trkpt>
      <trkpt lat="42.39234" lon="2.12784">
        <ele>2467</ele>
        <time>2018-09-02T11:52:50Z</time>
      </trkpt>
      <trkpt lat="42.39226" lon="2.12781">
        <ele>2469</ele>
        <time>2018-09-02T11:53:00Z</time>
      </trkpt>
      <trkpt lat="42.39211" lon="2.12761">
        <ele>2474</ele>
        <time>2018-09-02T11:53:36Z</time>
      </trkpt>
      <trkpt lat="42.39206" lon="2.12754">
        <ele>2475</ele>
        <time>2018-09-02T11:53:53Z</time>
      </trkpt>
      <trkpt lat="42.39196" lon="2.12737">
        <ele>2479</ele>
        <time>2018-09-02T11:54:24Z</time>
      </trkpt>
      <trkpt lat="42.39192" lon="2.12731">
        <ele>2480</ele>
        <time>2018-09-02T11:54:32Z</time>
      </trkpt>
      <trkpt lat="42.39188" lon="2.12724">
        <ele>2481</ele>
        <time>2018-09-02T11:54:45Z</time>
      </trkpt>
      <trkpt lat="42.3918" lon="2.12708">
        <ele>2485</ele>
        <time>2018-09-02T11:55:09Z</time>
      </trkpt>
      <trkpt lat="42.39171" lon="2.12696">
        <ele>2488</ele>
        <time>2018-09-02T11:55:33Z</time>
      </trkpt>
      <trkpt lat="42.39165" lon="2.12687">
        <ele>2490</ele>
        <time>2018-09-02T11:55:45Z</time>
      </trkpt>
      <trkpt lat="42.39152" lon="2.12659">
        <ele>2495</ele>
        <time>2018-09-02T11:56:23Z</time>
      </trkpt>
      <trkpt lat="42.39149" lon="2.12651">
        <ele>2497</ele>
        <time>2018-09-02T11:56:35Z</time>
      </trkpt>
      <trkpt lat="42.39143" lon="2.12646">
        <ele>2498</ele>
        <time>2018-09-02T11:56:47Z</time>
      </trkpt>
      <trkpt lat="42.3914" lon="2.12641">
        <ele>2500</ele>
        <time>2018-09-02T11:56:59Z</time>
      </trkpt>
      <trkpt lat="42.39133" lon="2.12631">
        <ele>2502</ele>
        <time>2018-09-02T11:57:11Z</time>
      </trkpt>
      <trkpt lat="42.3913" lon="2.12625">
        <ele>2503</ele>
        <time>2018-09-02T11:57:23Z</time>
      </trkpt>
      <trkpt lat="42.39126" lon="2.1262">
        <ele>2506</ele>
        <time>2018-09-02T11:57:41Z</time>
      </trkpt>
      <trkpt lat="42.39124" lon="2.12612">
        <ele>2508</ele>
        <time>2018-09-02T11:57:59Z</time>
      </trkpt>
      <trkpt lat="42.39119" lon="2.12595">
        <ele>2511</ele>
        <time>2018-09-02T11:58:32Z</time>
      </trkpt>
      <trkpt lat="42.3912" lon="2.12586">
        <ele>2513</ele>
        <time>2018-09-02T11:58:44Z</time>
      </trkpt>
      <trkpt lat="42.39118" lon="2.12572">
        <ele>2513</ele>
        <time>2018-09-02T11:58:53Z</time>
      </trkpt>
      <trkpt lat="42.39119" lon="2.12565">
        <ele>2513</ele>
        <time>2018-09-02T11:58:58Z</time>
      </trkpt>
      <trkpt lat="42.39118" lon="2.12559">
        <ele>2514</ele>
        <time>2018-09-02T11:59:03Z</time>
      </trkpt>
      <trkpt lat="42.39117" lon="2.1255">
        <ele>2513</ele>
        <time>2018-09-02T11:59:11Z</time>
      </trkpt>
      <trkpt lat="42.39114" lon="2.12537">
        <ele>2514</ele>
        <time>2018-09-02T11:59:22Z</time>
      </trkpt>
      <trkpt lat="42.39113" lon="2.12531">
        <ele>2515</ele>
        <time>2018-09-02T11:59:30Z</time>
      </trkpt>
      <trkpt lat="42.39109" lon="2.12524">
        <ele>2516</ele>
        <time>2018-09-02T11:59:42Z</time>
      </trkpt>
      <trkpt lat="42.3911" lon="2.12511">
        <ele>2518</ele>
        <time>2018-09-02T12:00:06Z</time>
      </trkpt>
      <trkpt lat="42.39105" lon="2.12504">
        <ele>2519</ele>
        <time>2018-09-02T12:00:18Z</time>
      </trkpt>
      <trkpt lat="42.39101" lon="2.125">
        <ele>2519</ele>
        <time>2018-09-02T12:00:23Z</time>
      </trkpt>
      <trkpt lat="42.39097" lon="2.12494">
        <ele>2520</ele>
        <time>2018-09-02T12:00:30Z</time>
      </trkpt>
      <trkpt lat="42.39096" lon="2.12486">
        <ele>2521</ele>
        <time>2018-09-02T12:00:40Z</time>
      </trkpt>
      <trkpt lat="42.39093" lon="2.12481">
        <ele>2522</ele>
        <time>2018-09-02T12:00:45Z</time>
      </trkpt>
      <trkpt lat="42.39094" lon="2.12471">
        <ele>2523</ele>
        <time>2018-09-02T12:00:58Z</time>
      </trkpt>
      <trkpt lat="42.3909" lon="2.12467">
        <ele>2526</ele>
        <time>2018-09-02T12:01:16Z</time>
      </trkpt>
      <trkpt lat="42.39081" lon="2.12456">
        <ele>2526</ele>
        <time>2018-09-02T12:01:29Z</time>
      </trkpt>
      <trkpt lat="42.39077" lon="2.1245">
        <ele>2528</ele>
        <time>2018-09-02T12:01:43Z</time>
      </trkpt>
      <trkpt lat="42.39075" lon="2.12442">
        <ele>2530</ele>
        <time>2018-09-02T12:01:54Z</time>
      </trkpt>
      <trkpt lat="42.39072" lon="2.12436">
        <ele>2531</ele>
        <time>2018-09-02T12:02:03Z</time>
      </trkpt>
      <trkpt lat="42.3907" lon="2.1243">
        <ele>2532</ele>
        <time>2018-09-02T12:02:15Z</time>
      </trkpt>
      <trkpt lat="42.39066" lon="2.12422">
        <ele>2533</ele>
        <time>2018-09-02T12:02:27Z</time>
      </trkpt>
      <trkpt lat="42.39061" lon="2.1242">
        <ele>2533</ele>
        <time>2018-09-02T12:02:33Z</time>
      </trkpt>
      <trkpt lat="42.39058" lon="2.12416">
        <ele>2533</ele>
        <time>2018-09-02T12:02:37Z</time>
      </trkpt>
      <trkpt lat="42.39057" lon="2.12403">
        <ele>2534</ele>
        <time>2018-09-02T12:02:51Z</time>
      </trkpt>
      <trkpt lat="42.39054" lon="2.12395">
        <ele>2534</ele>
        <time>2018-09-02T12:03:00Z</time>
      </trkpt>
      <trkpt lat="42.39042" lon="2.12378">
        <ele>2540</ele>
        <time>2018-09-02T12:05:07Z</time>
      </trkpt>
      <trkpt lat="42.39036" lon="2.12375">
        <ele>2542</ele>
        <time>2018-09-02T12:05:21Z</time>
      </trkpt>
      <trkpt lat="42.39031" lon="2.12371">
        <ele>2544</ele>
        <time>2018-09-02T12:05:33Z</time>
      </trkpt>
      <trkpt lat="42.39024" lon="2.12366">
        <ele>2547</ele>
        <time>2018-09-02T12:05:51Z</time>
      </trkpt>
      <trkpt lat="42.39019" lon="2.1236">
        <ele>2550</ele>
        <time>2018-09-02T12:06:15Z</time>
      </trkpt>
      <trkpt lat="42.39016" lon="2.12355">
        <ele>2552</ele>
        <time>2018-09-02T12:06:27Z</time>
      </trkpt>
      <trkpt lat="42.3901" lon="2.12353">
        <ele>2554</ele>
        <time>2018-09-02T12:06:39Z</time>
      </trkpt>
      <trkpt lat="42.39" lon="2.1234">
        <ele>2558</ele>
        <time>2018-09-02T12:07:15Z</time>
      </trkpt>
      <trkpt lat="42.38995" lon="2.12337">
        <ele>2560</ele>
        <time>2018-09-02T12:07:33Z</time>
      </trkpt>
      <trkpt lat="42.38983" lon="2.12337">
        <ele>2566</ele>
        <time>2018-09-02T12:08:14Z</time>
      </trkpt>
      <trkpt lat="42.38977" lon="2.12337">
        <ele>2567</ele>
        <time>2018-09-02T12:08:24Z</time>
      </trkpt>
      <trkpt lat="42.38973" lon="2.12336">
        <ele>2568</ele>
        <time>2018-09-02T12:08:34Z</time>
      </trkpt>
      <trkpt lat="42.3897" lon="2.12329">
        <ele>2570</ele>
        <time>2018-09-02T12:08:49Z</time>
      </trkpt>
      <trkpt lat="42.38967" lon="2.12324">
        <ele>2573</ele>
        <time>2018-09-02T12:09:05Z</time>
      </trkpt>
      <trkpt lat="42.38961" lon="2.12324">
        <ele>2575</ele>
        <time>2018-09-02T12:09:17Z</time>
      </trkpt>
      <trkpt lat="42.38941" lon="2.1232">
        <ele>2581</ele>
        <time>2018-09-02T12:09:59Z</time>
      </trkpt>
      <trkpt lat="42.38935" lon="2.12324">
        <ele>2583</ele>
        <time>2018-09-02T12:10:11Z</time>
      </trkpt>
      <trkpt lat="42.38931" lon="2.12327">
        <ele>2585</ele>
        <time>2018-09-02T12:10:23Z</time>
      </trkpt>
      <trkpt lat="42.38928" lon="2.12321">
        <ele>2587</ele>
        <time>2018-09-02T12:10:41Z</time>
      </trkpt>
      <trkpt lat="42.38924" lon="2.12313">
        <ele>2591</ele>
        <time>2018-09-02T12:11:05Z</time>
      </trkpt>
      <trkpt lat="42.38917" lon="2.12312">
        <ele>2594</ele>
        <time>2018-09-02T12:11:23Z</time>
      </trkpt>
      <trkpt lat="42.38911" lon="2.12307">
        <ele>2599</ele>
        <time>2018-09-02T12:11:47Z</time>
      </trkpt>
      <trkpt lat="42.38904" lon="2.12301">
        <ele>2601</ele>
        <time>2018-09-02T12:11:59Z</time>
      </trkpt>
      <trkpt lat="42.38898" lon="2.12302">
        <ele>2602</ele>
        <time>2018-09-02T12:12:09Z</time>
      </trkpt>
      <trkpt lat="42.38891" lon="2.12306">
        <ele>2603</ele>
        <time>2018-09-02T12:12:21Z</time>
      </trkpt>
      <trkpt lat="42.38886" lon="2.12302">
        <ele>2606</ele>
        <time>2018-09-02T12:12:33Z</time>
      </trkpt>
      <trkpt lat="42.38881" lon="2.12302">
        <ele>2606</ele>
        <time>2018-09-02T12:12:45Z</time>
      </trkpt>
      <trkpt lat="42.38877" lon="2.12298">
        <ele>2611</ele>
        <time>2018-09-02T12:13:09Z</time>
      </trkpt>
      <trkpt lat="42.38873" lon="2.12298">
        <ele>2612</ele>
        <time>2018-09-02T12:13:21Z</time>
      </trkpt>
      <trkpt lat="42.38868" lon="2.12301">
        <ele>2615</ele>
        <time>2018-09-02T12:13:33Z</time>
      </trkpt>
      <trkpt lat="42.38863" lon="2.12305">
        <ele>2618</ele>
        <time>2018-09-02T12:13:51Z</time>
      </trkpt>
      <trkpt lat="42.38855" lon="2.12303">
        <ele>2620</ele>
        <time>2018-09-02T12:14:03Z</time>
      </trkpt>
      <trkpt lat="42.38853" lon="2.12308">
        <ele>2622</ele>
        <time>2018-09-02T12:14:15Z</time>
      </trkpt>
      <trkpt lat="42.38849" lon="2.12313">
        <ele>2624</ele>
        <time>2018-09-02T12:14:33Z</time>
      </trkpt>
      <trkpt lat="42.38844" lon="2.12314">
        <ele>2627</ele>
        <time>2018-09-02T12:14:51Z</time>
      </trkpt>
      <trkpt lat="42.38835" lon="2.12316">
        <ele>2632</ele>
        <time>2018-09-02T12:15:22Z</time>
      </trkpt>
      <trkpt lat="42.38831" lon="2.12312">
        <ele>2634</ele>
        <time>2018-09-02T12:15:42Z</time>
      </trkpt>
      <trkpt lat="42.38824" lon="2.12301">
        <ele>2641</ele>
        <time>2018-09-02T12:16:24Z</time>
      </trkpt>
      <trkpt lat="42.38819" lon="2.12298">
        <ele>2641</ele>
        <time>2018-09-02T12:17:30Z</time>
      </trkpt>
      <trkpt lat="42.38813" lon="2.12298">
        <ele>2645</ele>
        <time>2018-09-02T12:19:06Z</time>
      </trkpt>
      <trkpt lat="42.38808" lon="2.12296">
        <ele>2648</ele>
        <time>2018-09-02T12:19:24Z</time>
      </trkpt>
      <trkpt lat="42.38801" lon="2.12293">
        <ele>2650</ele>
        <time>2018-09-02T12:19:42Z</time>
      </trkpt>
      <trkpt lat="42.38796" lon="2.12283">
        <ele>2652</ele>
        <time>2018-09-02T12:20:01Z</time>
      </trkpt>
      <trkpt lat="42.38791" lon="2.12277">
        <ele>2654</ele>
        <time>2018-09-02T12:20:13Z</time>
      </trkpt>
      <trkpt lat="42.38785" lon="2.12265">
        <ele>2657</ele>
        <time>2018-09-02T12:20:37Z</time>
      </trkpt>
      <trkpt lat="42.38781" lon="2.12258">
        <ele>2660</ele>
        <time>2018-09-02T12:20:49Z</time>
      </trkpt>
      <trkpt lat="42.38774" lon="2.12256">
        <ele>2662</ele>
        <time>2018-09-02T12:21:07Z</time>
      </trkpt>
      <trkpt lat="42.38769" lon="2.12253">
        <ele>2663</ele>
        <time>2018-09-02T12:21:19Z</time>
      </trkpt>
      <trkpt lat="42.38768" lon="2.12244">
        <ele>2666</ele>
        <time>2018-09-02T12:21:37Z</time>
      </trkpt>
      <trkpt lat="42.38768" lon="2.12236">
        <ele>2669</ele>
        <time>2018-09-02T12:21:49Z</time>
      </trkpt>
      <trkpt lat="42.38766" lon="2.1223">
        <ele>2670</ele>
        <time>2018-09-02T12:22:01Z</time>
      </trkpt>
      <trkpt lat="42.38761" lon="2.12213">
        <ele>2675</ele>
        <time>2018-09-02T12:22:49Z</time>
      </trkpt>
      <trkpt lat="42.38756" lon="2.12202">
        <ele>2679</ele>
        <time>2018-09-02T12:23:19Z</time>
      </trkpt>
      <trkpt lat="42.38755" lon="2.12194">
        <ele>2682</ele>
        <time>2018-09-02T12:23:37Z</time>
      </trkpt>
      <trkpt lat="42.38749" lon="2.12181">
        <ele>2687</ele>
        <time>2018-09-02T12:24:26Z</time>
      </trkpt>
      <trkpt lat="42.3874" lon="2.12178">
        <ele>2689</ele>
        <time>2018-09-02T12:24:38Z</time>
      </trkpt>
      <trkpt lat="42.38736" lon="2.12173">
        <ele>2693</ele>
        <time>2018-09-02T12:25:04Z</time>
      </trkpt>
      <trkpt lat="42.38735" lon="2.12158">
        <ele>2697</ele>
        <time>2018-09-02T12:25:40Z</time>
      </trkpt>
      <trkpt lat="42.38732" lon="2.12151">
        <ele>2699</ele>
        <time>2018-09-02T12:25:55Z</time>
      </trkpt>
      <trkpt lat="42.38727" lon="2.12151">
        <ele>2701</ele>
        <time>2018-09-02T12:26:10Z</time>
      </trkpt>
      <trkpt lat="42.38726" lon="2.12144">
        <ele>2703</ele>
        <time>2018-09-02T12:26:25Z</time>
      </trkpt>
      <trkpt lat="42.38722" lon="2.1214">
        <ele>2705</ele>
        <time>2018-09-02T12:26:47Z</time>
      </trkpt>
      <trkpt lat="42.38721" lon="2.12119">
        <ele>2710</ele>
        <time>2018-09-02T12:27:29Z</time>
      </trkpt>
      <trkpt lat="42.38719" lon="2.12113">
        <ele>2711</ele>
        <time>2018-09-02T12:27:41Z</time>
      </trkpt>
      <trkpt lat="42.38713" lon="2.12117">
        <ele>2714</ele>
        <time>2018-09-02T12:28:05Z</time>
      </trkpt>
      <trkpt lat="42.3871" lon="2.12111">
        <ele>2716</ele>
        <time>2018-09-02T12:28:17Z</time>
      </trkpt>
      <trkpt lat="42.38705" lon="2.12105">
        <ele>2719</ele>
        <time>2018-09-02T12:28:35Z</time>
      </trkpt>
      <trkpt lat="42.38699" lon="2.12109">
        <ele>2720</ele>
        <time>2018-09-02T12:28:47Z</time>
      </trkpt>
      <trkpt lat="42.38696" lon="2.12101">
        <ele>2723</ele>
        <time>2018-09-02T12:29:11Z</time>
      </trkpt>
      <trkpt lat="42.38692" lon="2.12096">
        <ele>2725</ele>
        <time>2018-09-02T12:29:31Z</time>
      </trkpt>
      <trkpt lat="42.38688" lon="2.12093">
        <ele>2727</ele>
        <time>2018-09-02T12:29:47Z</time>
      </trkpt>
      <trkpt lat="42.38682" lon="2.12089">
        <ele>2728</ele>
        <time>2018-09-02T12:30:17Z</time>
      </trkpt>
      <trkpt lat="42.38679" lon="2.12096">
        <ele>2731</ele>
        <time>2018-09-02T12:30:29Z</time>
      </trkpt>
      <trkpt lat="42.38674" lon="2.12095">
        <ele>2733</ele>
        <time>2018-09-02T12:30:53Z</time>
      </trkpt>
      <trkpt lat="42.38668" lon="2.12091">
        <ele>2735</ele>
        <time>2018-09-02T12:31:09Z</time>
      </trkpt>
      <trkpt lat="42.38665" lon="2.12082">
        <ele>2739</ele>
        <time>2018-09-02T12:31:42Z</time>
      </trkpt>
      <trkpt lat="42.3866" lon="2.12074">
        <ele>2742</ele>
        <time>2018-09-02T12:32:00Z</time>
      </trkpt>
      <trkpt lat="42.38663" lon="2.12069">
        <ele>2744</ele>
        <time>2018-09-02T12:32:48Z</time>
      </trkpt>
      <trkpt lat="42.3866" lon="2.12063">
        <ele>2746</ele>
        <time>2018-09-02T12:33:00Z</time>
      </trkpt>
      <trkpt lat="42.38655" lon="2.12058">
        <ele>2748</ele>
        <time>2018-09-02T12:33:15Z</time>
      </trkpt>
      <trkpt lat="42.38648" lon="2.12048">
        <ele>2755</ele>
        <time>2018-09-02T12:33:59Z</time>
      </trkpt>
      <trkpt lat="42.38645" lon="2.12041">
        <ele>2756</ele>
        <time>2018-09-02T12:34:10Z</time>
      </trkpt>
      <trkpt lat="42.38641" lon="2.1204">
        <ele>2758</ele>
        <time>2018-09-02T12:34:22Z</time>
      </trkpt>
      <trkpt lat="42.38641" lon="2.12033">
        <ele>2760</ele>
        <time>2018-09-02T12:34:34Z</time>
      </trkpt>
      <trkpt lat="42.38635" lon="2.12029">
        <ele>2764</ele>
        <time>2018-09-02T12:34:58Z</time>
      </trkpt>
      <trkpt lat="42.3863" lon="2.12027">
        <ele>2768</ele>
        <time>2018-09-02T12:35:16Z</time>
      </trkpt>
      <trkpt lat="42.38625" lon="2.12024">
        <ele>2771</ele>
        <time>2018-09-02T12:35:40Z</time>
      </trkpt>
      <trkpt lat="42.38613" lon="2.12028">
        <ele>2775</ele>
        <time>2018-09-02T12:36:04Z</time>
      </trkpt>
      <trkpt lat="42.38606" lon="2.12024">
        <ele>2775</ele>
        <time>2018-09-02T12:36:16Z</time>
      </trkpt>
      <trkpt lat="42.38602" lon="2.12018">
        <ele>2777</ele>
        <time>2018-09-02T12:36:28Z</time>
      </trkpt>
      <trkpt lat="42.38596" lon="2.1202">
        <ele>2778</ele>
        <time>2018-09-02T12:36:40Z</time>
      </trkpt>
      <trkpt lat="42.38592" lon="2.12013">
        <ele>2780</ele>
        <time>2018-09-02T12:36:58Z</time>
      </trkpt>
      <trkpt lat="42.3859" lon="2.12007">
        <ele>2782</ele>
        <time>2018-09-02T12:37:10Z</time>
      </trkpt>
      <trkpt lat="42.38584" lon="2.12006">
        <ele>2784</ele>
        <time>2018-09-02T12:37:22Z</time>
      </trkpt>
      <trkpt lat="42.3858" lon="2.12002">
        <ele>2786</ele>
        <time>2018-09-02T12:37:34Z</time>
      </trkpt>
      <trkpt lat="42.38575" lon="2.12">
        <ele>2788</ele>
        <time>2018-09-02T12:37:50Z</time>
      </trkpt>
      <trkpt lat="42.3857" lon="2.12002">
        <ele>2790</ele>
        <time>2018-09-02T12:38:00Z</time>
      </trkpt>
      <trkpt lat="42.38565" lon="2.12005">
        <ele>2791</ele>
        <time>2018-09-02T12:38:15Z</time>
      </trkpt>
      <trkpt lat="42.38556" lon="2.12019">
        <ele>2795</ele>
        <time>2018-09-02T12:38:57Z</time>
      </trkpt>
      <trkpt lat="42.38552" lon="2.12024">
        <ele>2797</ele>
        <time>2018-09-02T12:39:09Z</time>
      </trkpt>
      <trkpt lat="42.38545" lon="2.12027">
        <ele>2798</ele>
        <time>2018-09-02T12:39:21Z</time>
      </trkpt>
      <trkpt lat="42.3854" lon="2.12033">
        <ele>2799</ele>
        <time>2018-09-02T12:39:33Z</time>
      </trkpt>
      <trkpt lat="42.38535" lon="2.12033">
        <ele>2801</ele>
        <time>2018-09-02T12:39:45Z</time>
      </trkpt>
      <trkpt lat="42.3853" lon="2.12029">
        <ele>2807</ele>
        <time>2018-09-02T12:40:21Z</time>
      </trkpt>
      <trkpt lat="42.38528" lon="2.12024">
        <ele>2808</ele>
        <time>2018-09-02T12:40:39Z</time>
      </trkpt>
      <trkpt lat="42.38524" lon="2.12019">
        <ele>2811</ele>
        <time>2018-09-02T12:41:03Z</time>
      </trkpt>
      <trkpt lat="42.38518" lon="2.12019">
        <ele>2814</ele>
        <time>2018-09-02T12:41:15Z</time>
      </trkpt>
      <trkpt lat="42.38514" lon="2.12015">
        <ele>2815</ele>
        <time>2018-09-02T12:41:27Z</time>
      </trkpt>
      <trkpt lat="42.3851" lon="2.12013">
        <ele>2817</ele>
        <time>2018-09-02T12:41:49Z</time>
      </trkpt>
      <trkpt lat="42.38503" lon="2.12007">
        <ele>2818</ele>
        <time>2018-09-02T12:41:59Z</time>
      </trkpt>
      <trkpt lat="42.38499" lon="2.12">
        <ele>2819</ele>
        <time>2018-09-02T12:42:09Z</time>
      </trkpt>
      <trkpt lat="42.38495" lon="2.11997">
        <ele>2820</ele>
        <time>2018-09-02T12:42:19Z</time>
      </trkpt>
      <trkpt lat="42.38491" lon="2.11993">
        <ele>2822</ele>
        <time>2018-09-02T12:42:30Z</time>
      </trkpt>
      <trkpt lat="42.38484" lon="2.11989">
        <ele>2823</ele>
        <time>2018-09-02T12:42:42Z</time>
      </trkpt>
      <trkpt lat="42.38474" lon="2.11978">
        <ele>2827</ele>
        <time>2018-09-02T12:43:18Z</time>
      </trkpt>
      <trkpt lat="42.3847" lon="2.11973">
        <ele>2831</ele>
        <time>2018-09-02T12:43:48Z</time>
      </trkpt>
      <trkpt lat="42.38465" lon="2.11972">
        <ele>2832</ele>
        <time>2018-09-02T12:44:00Z</time>
      </trkpt>
      <trkpt lat="42.38464" lon="2.11963">
        <ele>2835</ele>
        <time>2018-09-02T12:44:24Z</time>
      </trkpt>
      <trkpt lat="42.38466" lon="2.11956">
        <ele>2837</ele>
        <time>2018-09-02T12:44:36Z</time>
      </trkpt>
      <trkpt lat="42.38461" lon="2.11952">
        <ele>2839</ele>
        <time>2018-09-02T12:45:00Z</time>
      </trkpt>
      <trkpt lat="42.38463" lon="2.11946">
        <ele>2842</ele>
        <time>2018-09-02T12:45:18Z</time>
      </trkpt>
      <trkpt lat="42.3846" lon="2.11941">
        <ele>2843</ele>
        <time>2018-09-02T12:45:30Z</time>
      </trkpt>
      <trkpt lat="42.38456" lon="2.11937">
        <ele>2846</ele>
        <time>2018-09-02T12:45:48Z</time>
      </trkpt>
      <trkpt lat="42.38451" lon="2.11936">
        <ele>2848</ele>
        <time>2018-09-02T12:46:06Z</time>
      </trkpt>
      <trkpt lat="42.38446" lon="2.11939">
        <ele>2853</ele>
        <time>2018-09-02T12:46:36Z</time>
      </trkpt>
      <trkpt lat="42.38442" lon="2.11933">
        <ele>2855</ele>
        <time>2018-09-02T12:46:54Z</time>
      </trkpt>
      <trkpt lat="42.38437" lon="2.11929">
        <ele>2856</ele>
        <time>2018-09-02T12:47:07Z</time>
      </trkpt>
      <trkpt lat="42.38434" lon="2.11924">
        <ele>2857</ele>
        <time>2018-09-02T12:47:19Z</time>
      </trkpt>
      <trkpt lat="42.38434" lon="2.11914">
        <ele>2861</ele>
        <time>2018-09-02T12:47:55Z</time>
      </trkpt>
      <trkpt lat="42.38434" lon="2.11908">
        <ele>2863</ele>
        <time>2018-09-02T12:48:07Z</time>
      </trkpt>
      <trkpt lat="42.38429" lon="2.11907">
        <ele>2865</ele>
        <time>2018-09-02T12:48:25Z</time>
      </trkpt>
      <trkpt lat="42.38419" lon="2.11902">
        <ele>2869</ele>
        <time>2018-09-02T12:49:19Z</time>
      </trkpt>
      <trkpt lat="42.38414" lon="2.119">
        <ele>2872</ele>
        <time>2018-09-02T12:49:37Z</time>
      </trkpt>
      <trkpt lat="42.3841" lon="2.11893">
        <ele>2874</ele>
        <time>2018-09-02T12:49:55Z</time>
      </trkpt>
      <trkpt lat="42.38405" lon="2.1189">
        <ele>2877</ele>
        <time>2018-09-02T12:50:13Z</time>
      </trkpt>
      <trkpt lat="42.38401" lon="2.11885">
        <ele>2879</ele>
        <time>2018-09-02T12:50:37Z</time>
      </trkpt>
      <trkpt lat="42.38397" lon="2.11879">
        <ele>2880</ele>
        <time>2018-09-02T12:50:49Z</time>
      </trkpt>
      <trkpt lat="42.38389" lon="2.11862">
        <ele>2882</ele>
        <time>2018-09-02T12:51:09Z</time>
      </trkpt>
      <trkpt lat="42.38384" lon="2.1185">
        <ele>2881</ele>
        <time>2018-09-02T12:51:21Z</time>
      </trkpt>
      <trkpt lat="42.38381" lon="2.11844">
        <ele>2882</ele>
        <time>2018-09-02T12:51:27Z</time>
      </trkpt>
      <trkpt lat="42.38381" lon="2.11838">
        <ele>2882</ele>
        <time>2018-09-02T12:51:33Z</time>
      </trkpt>
      <trkpt lat="42.38379" lon="2.1183">
        <ele>2882</ele>
        <time>2018-09-02T12:51:39Z</time>
      </trkpt>
      <trkpt lat="42.38375" lon="2.11817">
        <ele>2881</ele>
        <time>2018-09-02T12:51:52Z</time>
      </trkpt>
      <trkpt lat="42.38369" lon="2.11808">
        <ele>2881</ele>
        <time>2018-09-02T12:52:02Z</time>
      </trkpt>
      <trkpt lat="42.38364" lon="2.11803">
        <ele>2882</ele>
        <time>2018-09-02T12:52:23Z</time>
      </trkpt>
      <trkpt lat="42.3836" lon="2.11794">
        <ele>2883</ele>
        <time>2018-09-02T12:52:35Z</time>
      </trkpt>
      <trkpt lat="42.38357" lon="2.11789">
        <ele>2882</ele>
        <time>2018-09-02T12:52:40Z</time>
      </trkpt>
      <trkpt lat="42.38355" lon="2.11783">
        <ele>2882</ele>
        <time>2018-09-02T12:52:45Z</time>
      </trkpt>
      <trkpt lat="42.3835" lon="2.11777">
        <ele>2883</ele>
        <time>2018-09-02T12:52:55Z</time>
      </trkpt>
      <trkpt lat="42.38345" lon="2.11773">
        <ele>2886</ele>
        <time>2018-09-02T12:53:13Z</time>
      </trkpt>
      <trkpt lat="42.38344" lon="2.11765">
        <ele>2890</ele>
        <time>2018-09-02T12:53:44Z</time>
      </trkpt>
      <trkpt lat="42.38346" lon="2.11755">
        <ele>2892</ele>
        <time>2018-09-02T12:54:04Z</time>
      </trkpt>
      <trkpt lat="42.38345" lon="2.11747">
        <ele>2895</ele>
        <time>2018-09-02T12:54:19Z</time>
      </trkpt>
      <trkpt lat="42.38341" lon="2.11742">
        <ele>2897</ele>
        <time>2018-09-02T12:54:46Z</time>
      </trkpt>
      <trkpt lat="42.38337" lon="2.11738">
        <ele>2898</ele>
        <time>2018-09-02T12:55:04Z</time>
      </trkpt>
      <trkpt lat="42.38332" lon="2.11731">
        <ele>2899</ele>
        <time>2018-09-02T12:55:16Z</time>
      </trkpt>
      <trkpt lat="42.38332" lon="2.11721">
        <ele>2900</ele>
        <time>2018-09-02T12:55:28Z</time>
      </trkpt>
      <trkpt lat="42.3833" lon="2.11713">
        <ele>2901</ele>
        <time>2018-09-02T12:55:40Z</time>
      </trkpt>
      <trkpt lat="42.38328" lon="2.11699">
        <ele>2903</ele>
        <time>2018-09-02T12:56:04Z</time>
      </trkpt>
      <trkpt lat="42.3833" lon="2.11693">
        <ele>2904</ele>
        <time>2018-09-02T12:56:16Z</time>
      </trkpt>
      <trkpt lat="42.38329" lon="2.11687">
        <ele>2905</ele>
        <time>2018-09-02T12:56:28Z</time>
      </trkpt>
      <trkpt lat="42.38325" lon="2.11681">
        <ele>2907</ele>
        <time>2018-09-02T12:59:04Z</time>
      </trkpt>
      <trkpt lat="42.38327" lon="2.11675">
        <ele>2906</ele>
        <time>2018-09-02T12:59:12Z</time>
      </trkpt>
      <trkpt lat="42.38326" lon="2.11675">
        <ele>2907</ele>
        <time>2018-09-02T13:12:24Z</time>
      </trkpt>
      <trkpt lat="42.38321" lon="2.11673">
        <ele>2904</ele>
        <time>2018-09-02T13:12:36Z</time>
      </trkpt>
      <trkpt lat="42.38324" lon="2.1166">
        <ele>2902</ele>
        <time>2018-09-02T13:13:01Z</time>
      </trkpt>
      <trkpt lat="42.38318" lon="2.11652">
        <ele>2901</ele>
        <time>2018-09-02T13:13:13Z</time>
      </trkpt>
      <trkpt lat="42.38313" lon="2.11651">
        <ele>2899</ele>
        <time>2018-09-02T13:13:19Z</time>
      </trkpt>
      <trkpt lat="42.3831" lon="2.11641">
        <ele>2897</ele>
        <time>2018-09-02T13:13:31Z</time>
      </trkpt>
      <trkpt lat="42.38305" lon="2.11638">
        <ele>2897</ele>
        <time>2018-09-02T13:13:37Z</time>
      </trkpt>
      <trkpt lat="42.383" lon="2.11628">
        <ele>2893</ele>
        <time>2018-09-02T13:13:49Z</time>
      </trkpt>
      <trkpt lat="42.38279" lon="2.11622">
        <ele>2888</ele>
        <time>2018-09-02T13:14:25Z</time>
      </trkpt>
      <trkpt lat="42.38275" lon="2.11619">
        <ele>2887</ele>
        <time>2018-09-02T13:14:30Z</time>
      </trkpt>
      <trkpt lat="42.38267" lon="2.11614">
        <ele>2886</ele>
        <time>2018-09-02T13:14:41Z</time>
      </trkpt>
      <trkpt lat="42.38266" lon="2.11605">
        <ele>2884</ele>
        <time>2018-09-02T13:14:53Z</time>
      </trkpt>
      <trkpt lat="42.38263" lon="2.11591">
        <ele>2883</ele>
        <time>2018-09-02T13:15:04Z</time>
      </trkpt>
      <trkpt lat="42.38255" lon="2.11583">
        <ele>2881</ele>
        <time>2018-09-02T13:15:15Z</time>
      </trkpt>
      <trkpt lat="42.38249" lon="2.11573">
        <ele>2881</ele>
        <time>2018-09-02T13:15:25Z</time>
      </trkpt>
      <trkpt lat="42.38251" lon="2.11566">
        <ele>2880</ele>
        <time>2018-09-02T13:15:30Z</time>
      </trkpt>
      <trkpt lat="42.38248" lon="2.11556">
        <ele>2881</ele>
        <time>2018-09-02T13:15:41Z</time>
      </trkpt>
      <trkpt lat="42.38248" lon="2.11549">
        <ele>2881</ele>
        <time>2018-09-02T13:15:53Z</time>
      </trkpt>
      <trkpt lat="42.38246" lon="2.11539">
        <ele>2879</ele>
        <time>2018-09-02T13:16:12Z</time>
      </trkpt>
      <trkpt lat="42.38242" lon="2.11532">
        <ele>2878</ele>
        <time>2018-09-02T13:16:23Z</time>
      </trkpt>
      <trkpt lat="42.38238" lon="2.11526">
        <ele>2878</ele>
        <time>2018-09-02T13:16:33Z</time>
      </trkpt>
      <trkpt lat="42.3823" lon="2.11515">
        <ele>2874</ele>
        <time>2018-09-02T13:16:53Z</time>
      </trkpt>
      <trkpt lat="42.38227" lon="2.1151">
        <ele>2871</ele>
        <time>2018-09-02T13:17:04Z</time>
      </trkpt>
      <trkpt lat="42.38223" lon="2.11505">
        <ele>2867</ele>
        <time>2018-09-02T13:17:34Z</time>
      </trkpt>
      <trkpt lat="42.3822" lon="2.11497">
        <ele>2862</ele>
        <time>2018-09-02T13:17:52Z</time>
      </trkpt>
      <trkpt lat="42.38215" lon="2.11491">
        <ele>2860</ele>
        <time>2018-09-02T13:18:10Z</time>
      </trkpt>
      <trkpt lat="42.38214" lon="2.11484">
        <ele>2856</ele>
        <time>2018-09-02T13:18:28Z</time>
      </trkpt>
      <trkpt lat="42.38212" lon="2.11478">
        <ele>2854</ele>
        <time>2018-09-02T13:18:46Z</time>
      </trkpt>
      <trkpt lat="42.38214" lon="2.1146">
        <ele>2848</ele>
        <time>2018-09-02T13:19:16Z</time>
      </trkpt>
      <trkpt lat="42.38213" lon="2.11452">
        <ele>2846</ele>
        <time>2018-09-02T13:19:34Z</time>
      </trkpt>
      <trkpt lat="42.38206" lon="2.11444">
        <ele>2843</ele>
        <time>2018-09-02T13:19:48Z</time>
      </trkpt>
      <trkpt lat="42.38209" lon="2.11437">
        <ele>2838</ele>
        <time>2018-09-02T13:20:00Z</time>
      </trkpt>
      <trkpt lat="42.38214" lon="2.11434">
        <ele>2835</ele>
        <time>2018-09-02T13:20:12Z</time>
      </trkpt>
      <trkpt lat="42.3822" lon="2.11435">
        <ele>2833</ele>
        <time>2018-09-02T13:20:42Z</time>
      </trkpt>
      <trkpt lat="42.38224" lon="2.11431">
        <ele>2831</ele>
        <time>2018-09-02T13:20:54Z</time>
      </trkpt>
      <trkpt lat="42.38224" lon="2.11422">
        <ele>2829</ele>
        <time>2018-09-02T13:21:06Z</time>
      </trkpt>
      <trkpt lat="42.38223" lon="2.11414">
        <ele>2825</ele>
        <time>2018-09-02T13:21:24Z</time>
      </trkpt>
      <trkpt lat="42.38226" lon="2.11406">
        <ele>2823</ele>
        <time>2018-09-02T13:21:36Z</time>
      </trkpt>
      <trkpt lat="42.38232" lon="2.11398">
        <ele>2818</ele>
        <time>2018-09-02T13:21:54Z</time>
      </trkpt>
      <trkpt lat="42.38235" lon="2.11393">
        <ele>2815</ele>
        <time>2018-09-02T13:22:06Z</time>
      </trkpt>
      <trkpt lat="42.38241" lon="2.11391">
        <ele>2813</ele>
        <time>2018-09-02T13:22:16Z</time>
      </trkpt>
      <trkpt lat="42.38247" lon="2.11383">
        <ele>2812</ele>
        <time>2018-09-02T13:22:26Z</time>
      </trkpt>
      <trkpt lat="42.38248" lon="2.11375">
        <ele>2811</ele>
        <time>2018-09-02T13:22:36Z</time>
      </trkpt>
      <trkpt lat="42.38252" lon="2.11369">
        <ele>2809</ele>
        <time>2018-09-02T13:22:51Z</time>
      </trkpt>
      <trkpt lat="42.38259" lon="2.11369">
        <ele>2808</ele>
        <time>2018-09-02T13:23:03Z</time>
      </trkpt>
      <trkpt lat="42.38263" lon="2.11362">
        <ele>2804</ele>
        <time>2018-09-02T13:23:21Z</time>
      </trkpt>
      <trkpt lat="42.38268" lon="2.11361">
        <ele>2800</ele>
        <time>2018-09-02T13:23:39Z</time>
      </trkpt>
      <trkpt lat="42.3828" lon="2.11358">
        <ele>2797</ele>
        <time>2018-09-02T13:23:57Z</time>
      </trkpt>
      <trkpt lat="42.38285" lon="2.11355">
        <ele>2795</ele>
        <time>2018-09-02T13:24:03Z</time>
      </trkpt>
      <trkpt lat="42.38288" lon="2.11351">
        <ele>2794</ele>
        <time>2018-09-02T13:24:15Z</time>
      </trkpt>
      <trkpt lat="42.38293" lon="2.11351">
        <ele>2793</ele>
        <time>2018-09-02T13:24:21Z</time>
      </trkpt>
      <trkpt lat="42.38298" lon="2.11348">
        <ele>2791</ele>
        <time>2018-09-02T13:24:29Z</time>
      </trkpt>
      <trkpt lat="42.38309" lon="2.11338">
        <ele>2790</ele>
        <time>2018-09-02T13:24:46Z</time>
      </trkpt>
      <trkpt lat="42.38312" lon="2.11332">
        <ele>2789</ele>
        <time>2018-09-02T13:24:54Z</time>
      </trkpt>
      <trkpt lat="42.38315" lon="2.11323">
        <ele>2787</ele>
        <time>2018-09-02T13:25:06Z</time>
      </trkpt>
      <trkpt lat="42.38315" lon="2.11313">
        <ele>2784</ele>
        <time>2018-09-02T13:25:24Z</time>
      </trkpt>
      <trkpt lat="42.38312" lon="2.11306">
        <ele>2783</ele>
        <time>2018-09-02T13:25:36Z</time>
      </trkpt>
      <trkpt lat="42.3831" lon="2.11299">
        <ele>2782</ele>
        <time>2018-09-02T13:25:43Z</time>
      </trkpt>
      <trkpt lat="42.38308" lon="2.11294">
        <ele>2782</ele>
        <time>2018-09-02T13:25:49Z</time>
      </trkpt>
      <trkpt lat="42.38303" lon="2.11279">
        <ele>2780</ele>
        <time>2018-09-02T13:26:03Z</time>
      </trkpt>
      <trkpt lat="42.38297" lon="2.11273">
        <ele>2778</ele>
        <time>2018-09-02T13:26:15Z</time>
      </trkpt>
      <trkpt lat="42.38294" lon="2.11266">
        <ele>2776</ele>
        <time>2018-09-02T13:26:27Z</time>
      </trkpt>
      <trkpt lat="42.38293" lon="2.11256">
        <ele>2774</ele>
        <time>2018-09-02T13:26:39Z</time>
      </trkpt>
      <trkpt lat="42.38292" lon="2.11249">
        <ele>2772</ele>
        <time>2018-09-02T13:26:44Z</time>
      </trkpt>
      <trkpt lat="42.38291" lon="2.1124">
        <ele>2772</ele>
        <time>2018-09-02T13:26:51Z</time>
      </trkpt>
      <trkpt lat="42.38288" lon="2.11234">
        <ele>2771</ele>
        <time>2018-09-02T13:26:59Z</time>
      </trkpt>
      <trkpt lat="42.38286" lon="2.11227">
        <ele>2770</ele>
        <time>2018-09-02T13:27:16Z</time>
      </trkpt>
      <trkpt lat="42.38282" lon="2.11223">
        <ele>2768</ele>
        <time>2018-09-02T13:27:30Z</time>
      </trkpt>
      <trkpt lat="42.38277" lon="2.11218">
        <ele>2765</ele>
        <time>2018-09-02T13:27:42Z</time>
      </trkpt>
      <trkpt lat="42.38271" lon="2.11191">
        <ele>2758</ele>
        <time>2018-09-02T13:28:16Z</time>
      </trkpt>
      <trkpt lat="42.38266" lon="2.11187">
        <ele>2757</ele>
        <time>2018-09-02T13:28:30Z</time>
      </trkpt>
      <trkpt lat="42.38263" lon="2.11182">
        <ele>2756</ele>
        <time>2018-09-02T13:28:35Z</time>
      </trkpt>
      <trkpt lat="42.38248" lon="2.1117">
        <ele>2753</ele>
        <time>2018-09-02T13:28:55Z</time>
      </trkpt>
      <trkpt lat="42.38248" lon="2.11151">
        <ele>2749</ele>
        <time>2018-09-02T13:29:19Z</time>
      </trkpt>
      <trkpt lat="42.3825" lon="2.11141">
        <ele>2746</ele>
        <time>2018-09-02T13:29:31Z</time>
      </trkpt>
      <trkpt lat="42.3825" lon="2.11134">
        <ele>2743</ele>
        <time>2018-09-02T13:29:55Z</time>
      </trkpt>
      <trkpt lat="42.38251" lon="2.11124">
        <ele>2742</ele>
        <time>2018-09-02T13:30:40Z</time>
      </trkpt>
      <trkpt lat="42.38249" lon="2.11116">
        <ele>2740</ele>
        <time>2018-09-02T13:30:51Z</time>
      </trkpt>
      <trkpt lat="42.38241" lon="2.11094">
        <ele>2738</ele>
        <time>2018-09-02T13:31:16Z</time>
      </trkpt>
      <trkpt lat="42.38237" lon="2.11078">
        <ele>2732</ele>
        <time>2018-09-02T13:31:41Z</time>
      </trkpt>
      <trkpt lat="42.38236" lon="2.11069">
        <ele>2730</ele>
        <time>2018-09-02T13:31:53Z</time>
      </trkpt>
      <trkpt lat="42.38232" lon="2.11065">
        <ele>2729</ele>
        <time>2018-09-02T13:31:58Z</time>
      </trkpt>
      <trkpt lat="42.38228" lon="2.11057">
        <ele>2729</ele>
        <time>2018-09-02T13:32:06Z</time>
      </trkpt>
      <trkpt lat="42.38224" lon="2.11053">
        <ele>2729</ele>
        <time>2018-09-02T13:32:12Z</time>
      </trkpt>
      <trkpt lat="42.3822" lon="2.11048">
        <ele>2728</ele>
        <time>2018-09-02T13:32:20Z</time>
      </trkpt>
      <trkpt lat="42.38217" lon="2.11038">
        <ele>2727</ele>
        <time>2018-09-02T13:32:32Z</time>
      </trkpt>
      <trkpt lat="42.38214" lon="2.11024">
        <ele>2726</ele>
        <time>2018-09-02T13:32:42Z</time>
      </trkpt>
      <trkpt lat="42.38202" lon="2.10998">
        <ele>2719</ele>
        <time>2018-09-02T13:33:13Z</time>
      </trkpt>
      <trkpt lat="42.38199" lon="2.10993">
        <ele>2718</ele>
        <time>2018-09-02T13:33:19Z</time>
      </trkpt>
      <trkpt lat="42.38198" lon="2.10987">
        <ele>2718</ele>
        <time>2018-09-02T13:33:24Z</time>
      </trkpt>
      <trkpt lat="42.38195" lon="2.10979">
        <ele>2715</ele>
        <time>2018-09-02T13:33:56Z</time>
      </trkpt>
      <trkpt lat="42.38198" lon="2.10959">
        <ele>2710</ele>
        <time>2018-09-02T13:34:20Z</time>
      </trkpt>
      <trkpt lat="42.38193" lon="2.1096">
        <ele>2709</ele>
        <time>2018-09-02T13:34:26Z</time>
      </trkpt>
      <trkpt lat="42.38194" lon="2.1095">
        <ele>2705</ele>
        <time>2018-09-02T13:34:38Z</time>
      </trkpt>
      <trkpt lat="42.38191" lon="2.10943">
        <ele>2703</ele>
        <time>2018-09-02T13:34:50Z</time>
      </trkpt>
      <trkpt lat="42.38194" lon="2.10939">
        <ele>2701</ele>
        <time>2018-09-02T13:34:56Z</time>
      </trkpt>
      <trkpt lat="42.38192" lon="2.10933">
        <ele>2701</ele>
        <time>2018-09-02T13:35:02Z</time>
      </trkpt>
      <trkpt lat="42.38186" lon="2.10927">
        <ele>2698</ele>
        <time>2018-09-02T13:35:14Z</time>
      </trkpt>
      <trkpt lat="42.38195" lon="2.10913">
        <ele>2693</ele>
        <time>2018-09-02T13:35:38Z</time>
      </trkpt>
      <trkpt lat="42.38189" lon="2.10906">
        <ele>2691</ele>
        <time>2018-09-02T13:35:51Z</time>
      </trkpt>
      <trkpt lat="42.38192" lon="2.109">
        <ele>2688</ele>
        <time>2018-09-02T13:36:03Z</time>
      </trkpt>
      <trkpt lat="42.38191" lon="2.10891">
        <ele>2687</ele>
        <time>2018-09-02T13:36:15Z</time>
      </trkpt>
      <trkpt lat="42.38197" lon="2.10884">
        <ele>2683</ele>
        <time>2018-09-02T13:36:25Z</time>
      </trkpt>
      <trkpt lat="42.382" lon="2.10878">
        <ele>2682</ele>
        <time>2018-09-02T13:36:34Z</time>
      </trkpt>
      <trkpt lat="42.382" lon="2.10872">
        <ele>2681</ele>
        <time>2018-09-02T13:36:39Z</time>
      </trkpt>
      <trkpt lat="42.38199" lon="2.10862">
        <ele>2678</ele>
        <time>2018-09-02T13:36:59Z</time>
      </trkpt>
      <trkpt lat="42.382" lon="2.10852">
        <ele>2675</ele>
        <time>2018-09-02T13:37:11Z</time>
      </trkpt>
      <trkpt lat="42.38204" lon="2.10844">
        <ele>2671</ele>
        <time>2018-09-02T13:37:23Z</time>
      </trkpt>
      <trkpt lat="42.38208" lon="2.10838">
        <ele>2670</ele>
        <time>2018-09-02T13:37:31Z</time>
      </trkpt>
      <trkpt lat="42.38209" lon="2.10831">
        <ele>2668</ele>
        <time>2018-09-02T13:37:43Z</time>
      </trkpt>
      <trkpt lat="42.38206" lon="2.10823">
        <ele>2666</ele>
        <time>2018-09-02T13:37:55Z</time>
      </trkpt>
      <trkpt lat="42.38199" lon="2.10813">
        <ele>2662</ele>
        <time>2018-09-02T13:38:12Z</time>
      </trkpt>
      <trkpt lat="42.38196" lon="2.10805">
        <ele>2658</ele>
        <time>2018-09-02T13:38:31Z</time>
      </trkpt>
      <trkpt lat="42.38193" lon="2.10799">
        <ele>2656</ele>
        <time>2018-09-02T13:38:43Z</time>
      </trkpt>
      <trkpt lat="42.3819" lon="2.10792">
        <ele>2654</ele>
        <time>2018-09-02T13:38:55Z</time>
      </trkpt>
      <trkpt lat="42.38191" lon="2.10785">
        <ele>2651</ele>
        <time>2018-09-02T13:39:07Z</time>
      </trkpt>
      <trkpt lat="42.38189" lon="2.10777">
        <ele>2649</ele>
        <time>2018-09-02T13:39:19Z</time>
      </trkpt>
      <trkpt lat="42.38193" lon="2.10765">
        <ele>2646</ele>
        <time>2018-09-02T13:39:37Z</time>
      </trkpt>
      <trkpt lat="42.38193" lon="2.10757">
        <ele>2644</ele>
        <time>2018-09-02T13:39:49Z</time>
      </trkpt>
      <trkpt lat="42.382" lon="2.10736">
        <ele>2639</ele>
        <time>2018-09-02T13:40:13Z</time>
      </trkpt>
      <trkpt lat="42.38203" lon="2.10733">
        <ele>2638</ele>
        <time>2018-09-02T13:40:18Z</time>
      </trkpt>
      <trkpt lat="42.38204" lon="2.10726">
        <ele>2638</ele>
        <time>2018-09-02T13:40:25Z</time>
      </trkpt>
      <trkpt lat="42.3821" lon="2.10712">
        <ele>2636</ele>
        <time>2018-09-02T13:40:43Z</time>
      </trkpt>
      <trkpt lat="42.38214" lon="2.10692">
        <ele>2634</ele>
        <time>2018-09-02T13:41:07Z</time>
      </trkpt>
      <trkpt lat="42.38224" lon="2.10683">
        <ele>2630</ele>
        <time>2018-09-02T13:41:25Z</time>
      </trkpt>
      <trkpt lat="42.38227" lon="2.10675">
        <ele>2629</ele>
        <time>2018-09-02T13:41:37Z</time>
      </trkpt>
      <trkpt lat="42.3823" lon="2.10669">
        <ele>2625</ele>
        <time>2018-09-02T13:41:55Z</time>
      </trkpt>
      <trkpt lat="42.3823" lon="2.10662">
        <ele>2625</ele>
        <time>2018-09-02T13:42:25Z</time>
      </trkpt>
      <trkpt lat="42.38235" lon="2.10658">
        <ele>2622</ele>
        <time>2018-09-02T13:42:40Z</time>
      </trkpt>
      <trkpt lat="42.38239" lon="2.10651">
        <ele>2621</ele>
        <time>2018-09-02T13:42:56Z</time>
      </trkpt>
      <trkpt lat="42.38241" lon="2.10642">
        <ele>2618</ele>
        <time>2018-09-02T13:43:20Z</time>
      </trkpt>
      <trkpt lat="42.38238" lon="2.10637">
        <ele>2618</ele>
        <time>2018-09-02T13:43:25Z</time>
      </trkpt>
      <trkpt lat="42.38239" lon="2.10627">
        <ele>2615</ele>
        <time>2018-09-02T13:43:34Z</time>
      </trkpt>
      <trkpt lat="42.38239" lon="2.10621">
        <ele>2614</ele>
        <time>2018-09-02T13:43:39Z</time>
      </trkpt>
      <trkpt lat="42.38244" lon="2.10618">
        <ele>2611</ele>
        <time>2018-09-02T13:43:47Z</time>
      </trkpt>
      <trkpt lat="42.38249" lon="2.10609">
        <ele>2609</ele>
        <time>2018-09-02T13:43:59Z</time>
      </trkpt>
      <trkpt lat="42.3825" lon="2.10597">
        <ele>2605</ele>
        <time>2018-09-02T13:44:11Z</time>
      </trkpt>
      <trkpt lat="42.38255" lon="2.10591">
        <ele>2603</ele>
        <time>2018-09-02T13:44:23Z</time>
      </trkpt>
      <trkpt lat="42.38259" lon="2.10583">
        <ele>2600</ele>
        <time>2018-09-02T13:44:41Z</time>
      </trkpt>
      <trkpt lat="42.38265" lon="2.10578">
        <ele>2598</ele>
        <time>2018-09-02T13:44:53Z</time>
      </trkpt>
      <trkpt lat="42.38266" lon="2.10567">
        <ele>2596</ele>
        <time>2018-09-02T13:45:04Z</time>
      </trkpt>
      <trkpt lat="42.38265" lon="2.10558">
        <ele>2594</ele>
        <time>2018-09-02T13:45:13Z</time>
      </trkpt>
      <trkpt lat="42.38265" lon="2.1054">
        <ele>2588</ele>
        <time>2018-09-02T13:45:37Z</time>
      </trkpt>
      <trkpt lat="42.38271" lon="2.10535">
        <ele>2585</ele>
        <time>2018-09-02T13:45:50Z</time>
      </trkpt>
      <trkpt lat="42.38274" lon="2.1053">
        <ele>2583</ele>
        <time>2018-09-02T13:45:56Z</time>
      </trkpt>
      <trkpt lat="42.38277" lon="2.10523">
        <ele>2581</ele>
        <time>2018-09-02T13:46:08Z</time>
      </trkpt>
      <trkpt lat="42.38276" lon="2.10515">
        <ele>2579</ele>
        <time>2018-09-02T13:46:20Z</time>
      </trkpt>
      <trkpt lat="42.38281" lon="2.10506">
        <ele>2576</ele>
        <time>2018-09-02T13:46:32Z</time>
      </trkpt>
      <trkpt lat="42.38282" lon="2.10499">
        <ele>2574</ele>
        <time>2018-09-02T13:46:38Z</time>
      </trkpt>
      <trkpt lat="42.38287" lon="2.105">
        <ele>2573</ele>
        <time>2018-09-02T13:46:44Z</time>
      </trkpt>
      <trkpt lat="42.3829" lon="2.10494">
        <ele>2572</ele>
        <time>2018-09-02T13:46:50Z</time>
      </trkpt>
      <trkpt lat="42.38288" lon="2.10488">
        <ele>2572</ele>
        <time>2018-09-02T13:46:54Z</time>
      </trkpt>
      <trkpt lat="42.3829" lon="2.10478">
        <ele>2569</ele>
        <time>2018-09-02T13:47:04Z</time>
      </trkpt>
      <trkpt lat="42.38298" lon="2.10472">
        <ele>2566</ele>
        <time>2018-09-02T13:47:16Z</time>
      </trkpt>
      <trkpt lat="42.38303" lon="2.1047">
        <ele>2565</ele>
        <time>2018-09-02T13:47:21Z</time>
      </trkpt>
      <trkpt lat="42.38309" lon="2.10463">
        <ele>2563</ele>
        <time>2018-09-02T13:47:35Z</time>
      </trkpt>
      <trkpt lat="42.38314" lon="2.10456">
        <ele>2562</ele>
        <time>2018-09-02T13:47:43Z</time>
      </trkpt>
      <trkpt lat="42.38324" lon="2.10442">
        <ele>2559</ele>
        <time>2018-09-02T13:48:04Z</time>
      </trkpt>
      <trkpt lat="42.3832" lon="2.10436">
        <ele>2557</ele>
        <time>2018-09-02T13:48:16Z</time>
      </trkpt>
      <trkpt lat="42.38319" lon="2.10428">
        <ele>2556</ele>
        <time>2018-09-02T13:48:28Z</time>
      </trkpt>
      <trkpt lat="42.38319" lon="2.1042">
        <ele>2555</ele>
        <time>2018-09-02T13:48:40Z</time>
      </trkpt>
      <trkpt lat="42.38319" lon="2.10413">
        <ele>2551</ele>
        <time>2018-09-02T13:48:52Z</time>
      </trkpt>
      <trkpt lat="42.38323" lon="2.10406">
        <ele>2549</ele>
        <time>2018-09-02T13:49:04Z</time>
      </trkpt>
      <trkpt lat="42.38329" lon="2.10404">
        <ele>2546</ele>
        <time>2018-09-02T13:49:16Z</time>
      </trkpt>
      <trkpt lat="42.38328" lon="2.10393">
        <ele>2543</ele>
        <time>2018-09-02T13:49:41Z</time>
      </trkpt>
      <trkpt lat="42.3833" lon="2.10385">
        <ele>2539</ele>
        <time>2018-09-02T13:49:59Z</time>
      </trkpt>
      <trkpt lat="42.38333" lon="2.10379">
        <ele>2538</ele>
        <time>2018-09-02T13:50:13Z</time>
      </trkpt>
      <trkpt lat="42.38329" lon="2.10374">
        <ele>2531</ele>
        <time>2018-09-02T13:51:16Z</time>
      </trkpt>
      <trkpt lat="42.38329" lon="2.10366">
        <ele>2529</ele>
        <time>2018-09-02T13:51:28Z</time>
      </trkpt>
      <trkpt lat="42.38328" lon="2.10359">
        <ele>2526</ele>
        <time>2018-09-02T13:51:50Z</time>
      </trkpt>
      <trkpt lat="42.38325" lon="2.10343">
        <ele>2520</ele>
        <time>2018-09-02T13:52:21Z</time>
      </trkpt>
      <trkpt lat="42.38323" lon="2.10337">
        <ele>2518</ele>
        <time>2018-09-02T13:52:33Z</time>
      </trkpt>
      <trkpt lat="42.3832" lon="2.10328">
        <ele>2515</ele>
        <time>2018-09-02T13:52:51Z</time>
      </trkpt>
      <trkpt lat="42.3832" lon="2.1032">
        <ele>2512</ele>
        <time>2018-09-02T13:53:03Z</time>
      </trkpt>
      <trkpt lat="42.3832" lon="2.10304">
        <ele>2506</ele>
        <time>2018-09-02T13:53:27Z</time>
      </trkpt>
      <trkpt lat="42.38325" lon="2.10301">
        <ele>2504</ele>
        <time>2018-09-02T13:53:49Z</time>
      </trkpt>
      <trkpt lat="42.3833" lon="2.10301">
        <ele>2503</ele>
        <time>2018-09-02T13:53:54Z</time>
      </trkpt>
      <trkpt lat="42.38331" lon="2.10293">
        <ele>2502</ele>
        <time>2018-09-02T13:54:01Z</time>
      </trkpt>
      <trkpt lat="42.3833" lon="2.10286">
        <ele>2499</ele>
        <time>2018-09-02T13:54:13Z</time>
      </trkpt>
      <trkpt lat="42.38334" lon="2.1028">
        <ele>2495</ele>
        <time>2018-09-02T13:54:31Z</time>
      </trkpt>
      <trkpt lat="42.38336" lon="2.10269">
        <ele>2494</ele>
        <time>2018-09-02T13:54:43Z</time>
      </trkpt>
      <trkpt lat="42.38339" lon="2.10265">
        <ele>2490</ele>
        <time>2018-09-02T13:55:13Z</time>
      </trkpt>
      <trkpt lat="42.38337" lon="2.10257">
        <ele>2488</ele>
        <time>2018-09-02T13:55:25Z</time>
      </trkpt>
      <trkpt lat="42.38338" lon="2.1025">
        <ele>2486</ele>
        <time>2018-09-02T13:55:37Z</time>
      </trkpt>
      <trkpt lat="42.38335" lon="2.10231">
        <ele>2483</ele>
        <time>2018-09-02T13:56:01Z</time>
      </trkpt>
      <trkpt lat="42.38338" lon="2.10222">
        <ele>2479</ele>
        <time>2018-09-02T13:56:26Z</time>
      </trkpt>
      <trkpt lat="42.38335" lon="2.10213">
        <ele>2478</ele>
        <time>2018-09-02T13:56:38Z</time>
      </trkpt>
      <trkpt lat="42.3834" lon="2.10197">
        <ele>2473</ele>
        <time>2018-09-02T13:56:57Z</time>
      </trkpt>
      <trkpt lat="42.38342" lon="2.10189">
        <ele>2470</ele>
        <time>2018-09-02T13:57:09Z</time>
      </trkpt>
      <trkpt lat="42.38346" lon="2.10178">
        <ele>2466</ele>
        <time>2018-09-02T13:57:26Z</time>
      </trkpt>
      <trkpt lat="42.38348" lon="2.10173">
        <ele>2464</ele>
        <time>2018-09-02T13:57:38Z</time>
      </trkpt>
      <trkpt lat="42.38348" lon="2.10166">
        <ele>2462</ele>
        <time>2018-09-02T13:57:48Z</time>
      </trkpt>
      <trkpt lat="42.3835" lon="2.1016">
        <ele>2460</ele>
        <time>2018-09-02T13:57:58Z</time>
      </trkpt>
      <trkpt lat="42.38345" lon="2.10139">
        <ele>2455</ele>
        <time>2018-09-02T13:58:27Z</time>
      </trkpt>
      <trkpt lat="42.38347" lon="2.10125">
        <ele>2448</ele>
        <time>2018-09-02T13:58:50Z</time>
      </trkpt>
      <trkpt lat="42.38351" lon="2.1012">
        <ele>2446</ele>
        <time>2018-09-02T13:58:58Z</time>
      </trkpt>
      <trkpt lat="42.38348" lon="2.10115">
        <ele>2445</ele>
        <time>2018-09-02T13:59:03Z</time>
      </trkpt>
      <trkpt lat="42.38349" lon="2.10107">
        <ele>2443</ele>
        <time>2018-09-02T13:59:11Z</time>
      </trkpt>
      <trkpt lat="42.38347" lon="2.1009">
        <ele>2439</ele>
        <time>2018-09-02T13:59:35Z</time>
      </trkpt>
      <trkpt lat="42.38346" lon="2.10075">
        <ele>2435</ele>
        <time>2018-09-02T13:59:53Z</time>
      </trkpt>
      <trkpt lat="42.3835" lon="2.10064">
        <ele>2432</ele>
        <time>2018-09-02T14:00:05Z</time>
      </trkpt>
      <trkpt lat="42.38354" lon="2.10059">
        <ele>2431</ele>
        <time>2018-09-02T14:00:11Z</time>
      </trkpt>
      <trkpt lat="42.38355" lon="2.10053">
        <ele>2429</ele>
        <time>2018-09-02T14:00:19Z</time>
      </trkpt>
      <trkpt lat="42.38356" lon="2.10046">
        <ele>2427</ele>
        <time>2018-09-02T14:00:31Z</time>
      </trkpt>
      <trkpt lat="42.3836" lon="2.10038">
        <ele>2425</ele>
        <time>2018-09-02T14:00:43Z</time>
      </trkpt>
      <trkpt lat="42.3836" lon="2.1003">
        <ele>2423</ele>
        <time>2018-09-02T14:00:55Z</time>
      </trkpt>
      <trkpt lat="42.38358" lon="2.10024">
        <ele>2422</ele>
        <time>2018-09-02T14:01:13Z</time>
      </trkpt>
      <trkpt lat="42.38353" lon="2.10026">
        <ele>2420</ele>
        <time>2018-09-02T14:01:25Z</time>
      </trkpt>
      <trkpt lat="42.38354" lon="2.1002">
        <ele>2414</ele>
        <time>2018-09-02T14:01:55Z</time>
      </trkpt>
      <trkpt lat="42.38366" lon="2.10007">
        <ele>2407</ele>
        <time>2018-09-02T14:02:56Z</time>
      </trkpt>
      <trkpt lat="42.38363" lon="2.10001">
        <ele>2402</ele>
        <time>2018-09-02T14:03:26Z</time>
      </trkpt>
      <trkpt lat="42.38357" lon="2.09996">
        <ele>2397</ele>
        <time>2018-09-02T14:03:51Z</time>
      </trkpt>
      <trkpt lat="42.38349" lon="2.09981">
        <ele>2391</ele>
        <time>2018-09-02T14:04:24Z</time>
      </trkpt>
      <trkpt lat="42.38346" lon="2.09976">
        <ele>2390</ele>
        <time>2018-09-02T14:04:32Z</time>
      </trkpt>
      <trkpt lat="42.38334" lon="2.09956">
        <ele>2384</ele>
        <time>2018-09-02T14:05:03Z</time>
      </trkpt>
      <trkpt lat="42.38334" lon="2.09949">
        <ele>2381</ele>
        <time>2018-09-02T14:05:13Z</time>
      </trkpt>
      <trkpt lat="42.3833" lon="2.09943">
        <ele>2378</ele>
        <time>2018-09-02T14:05:34Z</time>
      </trkpt>
      <trkpt lat="42.38333" lon="2.09933">
        <ele>2373</ele>
        <time>2018-09-02T14:05:58Z</time>
      </trkpt>
      <trkpt lat="42.38331" lon="2.09925">
        <ele>2370</ele>
        <time>2018-09-02T14:06:16Z</time>
      </trkpt>
      <trkpt lat="42.38327" lon="2.09912">
        <ele>2367</ele>
        <time>2018-09-02T14:06:30Z</time>
      </trkpt>
      <trkpt lat="42.38329" lon="2.09904">
        <ele>2364</ele>
        <time>2018-09-02T14:06:48Z</time>
      </trkpt>
      <trkpt lat="42.38335" lon="2.09904">
        <ele>2362</ele>
        <time>2018-09-02T14:07:00Z</time>
      </trkpt>
      <trkpt lat="42.38338" lon="2.09899">
        <ele>2360</ele>
        <time>2018-09-02T14:07:12Z</time>
      </trkpt>
      <trkpt lat="42.38338" lon="2.09893">
        <ele>2356</ele>
        <time>2018-09-02T14:07:37Z</time>
      </trkpt>
      <trkpt lat="42.38337" lon="2.09887">
        <ele>2353</ele>
        <time>2018-09-02T14:07:57Z</time>
      </trkpt>
      <trkpt lat="42.38338" lon="2.0988">
        <ele>2350</ele>
        <time>2018-09-02T14:08:15Z</time>
      </trkpt>
      <trkpt lat="42.38339" lon="2.09873">
        <ele>2346</ele>
        <time>2018-09-02T14:08:40Z</time>
      </trkpt>
      <trkpt lat="42.38341" lon="2.09865">
        <ele>2343</ele>
        <time>2018-09-02T14:09:04Z</time>
      </trkpt>
      <trkpt lat="42.38338" lon="2.0986">
        <ele>2341</ele>
        <time>2018-09-02T14:09:10Z</time>
      </trkpt>
      <trkpt lat="42.38339" lon="2.09849">
        <ele>2339</ele>
        <time>2018-09-02T14:09:20Z</time>
      </trkpt>
      <trkpt lat="42.38337" lon="2.09844">
        <ele>2339</ele>
        <time>2018-09-02T14:09:28Z</time>
      </trkpt>
      <trkpt lat="42.38339" lon="2.09837">
        <ele>2337</ele>
        <time>2018-09-02T14:09:47Z</time>
      </trkpt>
      <trkpt lat="42.38341" lon="2.09827">
        <ele>2333</ele>
        <time>2018-09-02T14:10:11Z</time>
      </trkpt>
      <trkpt lat="42.38346" lon="2.09816">
        <ele>2332</ele>
        <time>2018-09-02T14:10:23Z</time>
      </trkpt>
      <trkpt lat="42.38349" lon="2.09812">
        <ele>2331</ele>
        <time>2018-09-02T14:10:29Z</time>
      </trkpt>
      <trkpt lat="42.38348" lon="2.09806">
        <ele>2330</ele>
        <time>2018-09-02T14:10:42Z</time>
      </trkpt>
      <trkpt lat="42.38349" lon="2.098">
        <ele>2329</ele>
        <time>2018-09-02T14:11:30Z</time>
      </trkpt>
      <trkpt lat="42.38353" lon="2.09794">
        <ele>2326</ele>
        <time>2018-09-02T14:11:48Z</time>
      </trkpt>
      <trkpt lat="42.38358" lon="2.09789">
        <ele>2323</ele>
        <time>2018-09-02T14:12:06Z</time>
      </trkpt>
      <trkpt lat="42.38363" lon="2.09785">
        <ele>2320</ele>
        <time>2018-09-02T14:12:21Z</time>
      </trkpt>
      <trkpt lat="42.38368" lon="2.09778">
        <ele>2315</ele>
        <time>2018-09-02T14:12:57Z</time>
      </trkpt>
      <trkpt lat="42.38369" lon="2.09773">
        <ele>2312</ele>
        <time>2018-09-02T14:13:09Z</time>
      </trkpt>
      <trkpt lat="42.38366" lon="2.09767">
        <ele>2311</ele>
        <time>2018-09-02T14:13:21Z</time>
      </trkpt>
      <trkpt lat="42.38363" lon="2.0976">
        <ele>2307</ele>
        <time>2018-09-02T14:13:39Z</time>
      </trkpt>
      <trkpt lat="42.38359" lon="2.09757">
        <ele>2305</ele>
        <time>2018-09-02T14:13:51Z</time>
      </trkpt>
      <trkpt lat="42.38353" lon="2.09752">
        <ele>2303</ele>
        <time>2018-09-02T14:14:01Z</time>
      </trkpt>
      <trkpt lat="42.38355" lon="2.09742">
        <ele>2302</ele>
        <time>2018-09-02T14:14:09Z</time>
      </trkpt>
      <trkpt lat="42.38359" lon="2.09738">
        <ele>2298</ele>
        <time>2018-09-02T14:14:29Z</time>
      </trkpt>
      <trkpt lat="42.38367" lon="2.09734">
        <ele>2294</ele>
        <time>2018-09-02T14:14:47Z</time>
      </trkpt>
      <trkpt lat="42.38379" lon="2.09726">
        <ele>2290</ele>
        <time>2018-09-02T14:15:12Z</time>
      </trkpt>
      <trkpt lat="42.3838" lon="2.09719">
        <ele>2282</ele>
        <time>2018-09-02T14:16:01Z</time>
      </trkpt>
      <trkpt lat="42.38385" lon="2.0972">
        <ele>2280</ele>
        <time>2018-09-02T14:16:13Z</time>
      </trkpt>
      <trkpt lat="42.38391" lon="2.09711">
        <ele>2275</ele>
        <time>2018-09-02T14:16:37Z</time>
      </trkpt>
      <trkpt lat="42.38395" lon="2.09707">
        <ele>2274</ele>
        <time>2018-09-02T14:16:42Z</time>
      </trkpt>
      <trkpt lat="42.38399" lon="2.09701">
        <ele>2272</ele>
        <time>2018-09-02T14:16:56Z</time>
      </trkpt>
      <trkpt lat="42.38402" lon="2.09696">
        <ele>2269</ele>
        <time>2018-09-02T14:17:08Z</time>
      </trkpt>
      <trkpt lat="42.38406" lon="2.09691">
        <ele>2266</ele>
        <time>2018-09-02T14:17:26Z</time>
      </trkpt>
      <trkpt lat="42.38407" lon="2.09683">
        <ele>2262</ele>
        <time>2018-09-02T14:17:50Z</time>
      </trkpt>
      <trkpt lat="42.38411" lon="2.09678">
        <ele>2259</ele>
        <time>2018-09-02T14:18:02Z</time>
      </trkpt>
      <trkpt lat="42.38415" lon="2.09674">
        <ele>2256</ele>
        <time>2018-09-02T14:18:20Z</time>
      </trkpt>
      <trkpt lat="42.38417" lon="2.09667">
        <ele>2255</ele>
        <time>2018-09-02T14:18:32Z</time>
      </trkpt>
      <trkpt lat="42.38417" lon="2.09661">
        <ele>2253</ele>
        <time>2018-09-02T14:18:44Z</time>
      </trkpt>
      <trkpt lat="42.38423" lon="2.09656">
        <ele>2250</ele>
        <time>2018-09-02T14:18:56Z</time>
      </trkpt>
      <trkpt lat="42.38428" lon="2.09648">
        <ele>2247</ele>
        <time>2018-09-02T14:19:14Z</time>
      </trkpt>
      <trkpt lat="42.3843" lon="2.09638">
        <ele>2245</ele>
        <time>2018-09-02T14:19:25Z</time>
      </trkpt>
      <trkpt lat="42.38437" lon="2.09639">
        <ele>2242</ele>
        <time>2018-09-02T14:19:39Z</time>
      </trkpt>
      <trkpt lat="42.3844" lon="2.09634">
        <ele>2240</ele>
        <time>2018-09-02T14:19:46Z</time>
      </trkpt>
      <trkpt lat="42.38443" lon="2.09628">
        <ele>2238</ele>
        <time>2018-09-02T14:19:56Z</time>
      </trkpt>
      <trkpt lat="42.38447" lon="2.09624">
        <ele>2236</ele>
        <time>2018-09-02T14:20:06Z</time>
      </trkpt>
      <trkpt lat="42.38444" lon="2.09617">
        <ele>2233</ele>
        <time>2018-09-02T14:20:26Z</time>
      </trkpt>
      <trkpt lat="42.38451" lon="2.09603">
        <ele>2230</ele>
        <time>2018-09-02T14:20:49Z</time>
      </trkpt>
      <trkpt lat="42.38454" lon="2.09596">
        <ele>2227</ele>
        <time>2018-09-02T14:21:02Z</time>
      </trkpt>
      <trkpt lat="42.38459" lon="2.09578">
        <ele>2223</ele>
        <time>2018-09-02T14:21:34Z</time>
      </trkpt>
      <trkpt lat="42.38461" lon="2.09571">
        <ele>2221</ele>
        <time>2018-09-02T14:21:42Z</time>
      </trkpt>
      <trkpt lat="42.38458" lon="2.09552">
        <ele>2219</ele>
        <time>2018-09-02T14:22:06Z</time>
      </trkpt>
      <trkpt lat="42.38457" lon="2.09545">
        <ele>2217</ele>
        <time>2018-09-02T14:22:18Z</time>
      </trkpt>
      <trkpt lat="42.38453" lon="2.09528">
        <ele>2216</ele>
        <time>2018-09-02T14:22:36Z</time>
      </trkpt>
      <trkpt lat="42.38453" lon="2.09493">
        <ele>2211</ele>
        <time>2018-09-02T14:23:04Z</time>
      </trkpt>
      <trkpt lat="42.38453" lon="2.09487">
        <ele>2211</ele>
        <time>2018-09-02T14:23:08Z</time>
      </trkpt>
      <trkpt lat="42.38464" lon="2.0948">
        <ele>2209</ele>
        <time>2018-09-02T14:23:20Z</time>
      </trkpt>
      <trkpt lat="42.38469" lon="2.09473">
        <ele>2208</ele>
        <time>2018-09-02T14:23:30Z</time>
      </trkpt>
      <trkpt lat="42.38473" lon="2.09469">
        <ele>2207</ele>
        <time>2018-09-02T14:23:36Z</time>
      </trkpt>
      <trkpt lat="42.38477" lon="2.09468">
        <ele>2206</ele>
        <time>2018-09-02T14:23:41Z</time>
      </trkpt>
      <trkpt lat="42.38485" lon="2.09466">
        <ele>2204</ele>
        <time>2018-09-02T14:23:55Z</time>
      </trkpt>
      <trkpt lat="42.38489" lon="2.09459">
        <ele>2201</ele>
        <time>2018-09-02T14:24:13Z</time>
      </trkpt>
      <trkpt lat="42.38495" lon="2.09466">
        <ele>2199</ele>
        <time>2018-09-02T14:24:31Z</time>
      </trkpt>
      <trkpt lat="42.38499" lon="2.09468">
        <ele>2196</ele>
        <time>2018-09-02T14:24:51Z</time>
      </trkpt>
      <trkpt lat="42.38504" lon="2.0947">
        <ele>2195</ele>
        <time>2018-09-02T14:25:04Z</time>
      </trkpt>
      <trkpt lat="42.38507" lon="2.09479">
        <ele>2192</ele>
        <time>2018-09-02T14:25:18Z</time>
      </trkpt>
      <trkpt lat="42.38511" lon="2.09484">
        <ele>2191</ele>
        <time>2018-09-02T14:25:23Z</time>
      </trkpt>
      <trkpt lat="42.38515" lon="2.09488">
        <ele>2191</ele>
        <time>2018-09-02T14:25:27Z</time>
      </trkpt>
      <trkpt lat="42.38525" lon="2.09489">
        <ele>2189</ele>
        <time>2018-09-02T14:25:42Z</time>
      </trkpt>
      <trkpt lat="42.38532" lon="2.09485">
        <ele>2187</ele>
        <time>2018-09-02T14:25:54Z</time>
      </trkpt>
      <trkpt lat="42.38533" lon="2.09476">
        <ele>2186</ele>
        <time>2018-09-02T14:26:07Z</time>
      </trkpt>
      <trkpt lat="42.38533" lon="2.09466">
        <ele>2184</ele>
        <time>2018-09-02T14:26:16Z</time>
      </trkpt>
      <trkpt lat="42.38537" lon="2.09454">
        <ele>2182</ele>
        <time>2018-09-02T14:26:26Z</time>
      </trkpt>
      <trkpt lat="42.38538" lon="2.09445">
        <ele>2180</ele>
        <time>2018-09-02T14:26:35Z</time>
      </trkpt>
      <trkpt lat="42.38543" lon="2.09435">
        <ele>2178</ele>
        <time>2018-09-02T14:26:47Z</time>
      </trkpt>
      <trkpt lat="42.38546" lon="2.09431">
        <ele>2177</ele>
        <time>2018-09-02T14:26:52Z</time>
      </trkpt>
      <trkpt lat="42.38549" lon="2.09404">
        <ele>2172</ele>
        <time>2018-09-02T14:27:24Z</time>
      </trkpt>
      <trkpt lat="42.38545" lon="2.09389">
        <ele>2170</ele>
        <time>2018-09-02T14:27:41Z</time>
      </trkpt>
      <trkpt lat="42.38548" lon="2.09381">
        <ele>2168</ele>
        <time>2018-09-02T14:27:52Z</time>
      </trkpt>
      <trkpt lat="42.38552" lon="2.09343">
        <ele>2161</ele>
        <time>2018-09-02T14:28:24Z</time>
      </trkpt>
      <trkpt lat="42.3855" lon="2.09334">
        <ele>2159</ele>
        <time>2018-09-02T14:28:36Z</time>
      </trkpt>
      <trkpt lat="42.38551" lon="2.09327">
        <ele>2158</ele>
        <time>2018-09-02T14:28:41Z</time>
      </trkpt>
      <trkpt lat="42.38555" lon="2.09319">
        <ele>2156</ele>
        <time>2018-09-02T14:28:50Z</time>
      </trkpt>
      <trkpt lat="42.38559" lon="2.09314">
        <ele>2155</ele>
        <time>2018-09-02T14:28:55Z</time>
      </trkpt>
      <trkpt lat="42.38568" lon="2.09286">
        <ele>2150</ele>
        <time>2018-09-02T14:29:18Z</time>
      </trkpt>
      <trkpt lat="42.38574" lon="2.09276">
        <ele>2149</ele>
        <time>2018-09-02T14:29:28Z</time>
      </trkpt>
      <trkpt lat="42.3858" lon="2.09255">
        <ele>2144</ele>
        <time>2018-09-02T14:29:49Z</time>
      </trkpt>
      <trkpt lat="42.38601" lon="2.09236">
        <ele>2138</ele>
        <time>2018-09-02T14:30:19Z</time>
      </trkpt>
      <trkpt lat="42.386" lon="2.09225">
        <ele>2136</ele>
        <time>2018-09-02T14:30:32Z</time>
      </trkpt>
      <trkpt lat="42.38604" lon="2.09219">
        <ele>2134</ele>
        <time>2018-09-02T14:30:40Z</time>
      </trkpt>
      <trkpt lat="42.38608" lon="2.09216">
        <ele>2133</ele>
        <time>2018-09-02T14:30:44Z</time>
      </trkpt>
      <trkpt lat="42.38611" lon="2.0921">
        <ele>2132</ele>
        <time>2018-09-02T14:30:48Z</time>
      </trkpt>
      <trkpt lat="42.38617" lon="2.09205">
        <ele>2131</ele>
        <time>2018-09-02T14:30:55Z</time>
      </trkpt>
      <trkpt lat="42.38631" lon="2.09184">
        <ele>2128</ele>
        <time>2018-09-02T14:31:15Z</time>
      </trkpt>
      <trkpt lat="42.38639" lon="2.09178">
        <ele>2127</ele>
        <time>2018-09-02T14:31:23Z</time>
      </trkpt>
      <trkpt lat="42.38642" lon="2.0917">
        <ele>2126</ele>
        <time>2018-09-02T14:31:31Z</time>
      </trkpt>
      <trkpt lat="42.38646" lon="2.09167">
        <ele>2125</ele>
        <time>2018-09-02T14:31:36Z</time>
      </trkpt>
      <trkpt lat="42.3865" lon="2.09165">
        <ele>2124</ele>
        <time>2018-09-02T14:31:40Z</time>
      </trkpt>
      <trkpt lat="42.3866" lon="2.09154">
        <ele>2122</ele>
        <time>2018-09-02T14:31:54Z</time>
      </trkpt>
      <trkpt lat="42.38671" lon="2.09123">
        <ele>2119</ele>
        <time>2018-09-02T14:32:16Z</time>
      </trkpt>
      <trkpt lat="42.38675" lon="2.09119">
        <ele>2118</ele>
        <time>2018-09-02T14:32:21Z</time>
      </trkpt>
      <trkpt lat="42.38679" lon="2.09114">
        <ele>2117</ele>
        <time>2018-09-02T14:32:25Z</time>
      </trkpt>
      <trkpt lat="42.38685" lon="2.09107">
        <ele>2116</ele>
        <time>2018-09-02T14:32:32Z</time>
      </trkpt>
      <trkpt lat="42.38689" lon="2.09103">
        <ele>2115</ele>
        <time>2018-09-02T14:32:36Z</time>
      </trkpt>
      <trkpt lat="42.38694" lon="2.09096">
        <ele>2114</ele>
        <time>2018-09-02T14:32:44Z</time>
      </trkpt>
      <trkpt lat="42.38698" lon="2.09092">
        <ele>2113</ele>
        <time>2018-09-02T14:32:49Z</time>
      </trkpt>
      <trkpt lat="42.38698" lon="2.09083">
        <ele>2112</ele>
        <time>2018-09-02T14:32:55Z</time>
      </trkpt>
      <trkpt lat="42.38705" lon="2.0907">
        <ele>2109</ele>
        <time>2018-09-02T14:33:11Z</time>
      </trkpt>
      <trkpt lat="42.38715" lon="2.09061">
        <ele>2107</ele>
        <time>2018-09-02T14:33:23Z</time>
      </trkpt>
      <trkpt lat="42.38719" lon="2.09054">
        <ele>2106</ele>
        <time>2018-09-02T14:33:30Z</time>
      </trkpt>
      <trkpt lat="42.38725" lon="2.09045">
        <ele>2103</ele>
        <time>2018-09-02T14:33:42Z</time>
      </trkpt>
      <trkpt lat="42.38728" lon="2.0904">
        <ele>2102</ele>
        <time>2018-09-02T14:33:47Z</time>
      </trkpt>
      <trkpt lat="42.38731" lon="2.0903">
        <ele>2101</ele>
        <time>2018-09-02T14:33:54Z</time>
      </trkpt>
      <trkpt lat="42.3873" lon="2.09018">
        <ele>2100</ele>
        <time>2018-09-02T14:34:03Z</time>
      </trkpt>
      <trkpt lat="42.38736" lon="2.09004">
        <ele>2098</ele>
        <time>2018-09-02T14:34:15Z</time>
      </trkpt>
      <trkpt lat="42.38737" lon="2.08997">
        <ele>2097</ele>
        <time>2018-09-02T14:34:20Z</time>
      </trkpt>
      <trkpt lat="42.38741" lon="2.08989">
        <ele>2096</ele>
        <time>2018-09-02T14:34:29Z</time>
      </trkpt>
      <trkpt lat="42.38745" lon="2.08985">
        <ele>2095</ele>
        <time>2018-09-02T14:34:33Z</time>
      </trkpt>
      <trkpt lat="42.38754" lon="2.0897">
        <ele>2093</ele>
        <time>2018-09-02T14:34:48Z</time>
      </trkpt>
      <trkpt lat="42.38766" lon="2.08955">
        <ele>2090</ele>
        <time>2018-09-02T14:35:05Z</time>
      </trkpt>
      <trkpt lat="42.38784" lon="2.0892">
        <ele>2085</ele>
        <time>2018-09-02T14:35:34Z</time>
      </trkpt>
      <trkpt lat="42.38786" lon="2.08908">
        <ele>2084</ele>
        <time>2018-09-02T14:35:42Z</time>
      </trkpt>
      <trkpt lat="42.38788" lon="2.08902">
        <ele>2083</ele>
        <time>2018-09-02T14:35:46Z</time>
      </trkpt>
      <trkpt lat="42.38796" lon="2.08893">
        <ele>2083</ele>
        <time>2018-09-02T14:35:55Z</time>
      </trkpt>
      <trkpt lat="42.38814" lon="2.08879">
        <ele>2081</ele>
        <time>2018-09-02T14:36:10Z</time>
      </trkpt>
      <trkpt lat="42.38816" lon="2.08874">
        <ele>2080</ele>
        <time>2018-09-02T14:36:14Z</time>
      </trkpt>
      <trkpt lat="42.38815" lon="2.08867">
        <ele>2080</ele>
        <time>2018-09-02T14:36:19Z</time>
      </trkpt>
      <trkpt lat="42.38817" lon="2.08861">
        <ele>2079</ele>
        <time>2018-09-02T14:36:23Z</time>
      </trkpt>
      <trkpt lat="42.38824" lon="2.0885">
        <ele>2078</ele>
        <time>2018-09-02T14:36:31Z</time>
      </trkpt>
      <trkpt lat="42.38823" lon="2.08844">
        <ele>2078</ele>
        <time>2018-09-02T14:36:35Z</time>
      </trkpt>
      <trkpt lat="42.38853" lon="2.08817">
        <ele>2075</ele>
        <time>2018-09-02T14:37:05Z</time>
      </trkpt>
      <trkpt lat="42.38857" lon="2.08812">
        <ele>2074</ele>
        <time>2018-09-02T14:37:10Z</time>
      </trkpt>
      <trkpt lat="42.38866" lon="2.08803">
        <ele>2073</ele>
        <time>2018-09-02T14:37:18Z</time>
      </trkpt>
      <trkpt lat="42.38873" lon="2.08795">
        <ele>2072</ele>
        <time>2018-09-02T14:37:26Z</time>
      </trkpt>
      <trkpt lat="42.38876" lon="2.08788">
        <ele>2071</ele>
        <time>2018-09-02T14:37:33Z</time>
      </trkpt>
      <trkpt lat="42.38893" lon="2.08768">
        <ele>2069</ele>
        <time>2018-09-02T14:37:51Z</time>
      </trkpt>
      <trkpt lat="42.38898" lon="2.08764">
        <ele>2069</ele>
        <time>2018-09-02T14:37:54Z</time>
      </trkpt>
      <trkpt lat="42.38905" lon="2.08754">
        <ele>2068</ele>
        <time>2018-09-02T14:38:02Z</time>
      </trkpt>
      <trkpt lat="42.38907" lon="2.08743">
        <ele>2067</ele>
        <time>2018-09-02T14:38:12Z</time>
      </trkpt>
      <trkpt lat="42.38927" lon="2.08717">
        <ele>2065</ele>
        <time>2018-09-02T14:38:33Z</time>
      </trkpt>
      <trkpt lat="42.38929" lon="2.08711">
        <ele>2065</ele>
        <time>2018-09-02T14:38:37Z</time>
      </trkpt>
      <trkpt lat="42.38942" lon="2.08684">
        <ele>2063</ele>
        <time>2018-09-02T14:38:55Z</time>
      </trkpt>
      <trkpt lat="42.38941" lon="2.08678">
        <ele>2062</ele>
        <time>2018-09-02T14:39:00Z</time>
      </trkpt>
      <trkpt lat="42.38944" lon="2.08669">
        <ele>2062</ele>
        <time>2018-09-02T14:39:08Z</time>
      </trkpt>
      <trkpt lat="42.3897" lon="2.08627">
        <ele>2058</ele>
        <time>2018-09-02T14:39:43Z</time>
      </trkpt>
      <trkpt lat="42.38975" lon="2.08623">
        <ele>2058</ele>
        <time>2018-09-02T14:39:46Z</time>
      </trkpt>
      <trkpt lat="42.38994" lon="2.08603">
        <ele>2056</ele>
        <time>2018-09-02T14:40:03Z</time>
      </trkpt>
      <trkpt lat="42.38998" lon="2.08592">
        <ele>2055</ele>
        <time>2018-09-02T14:40:12Z</time>
      </trkpt>
      <trkpt lat="42.38996" lon="2.08583">
        <ele>2055</ele>
        <time>2018-09-02T14:40:17Z</time>
      </trkpt>
      <trkpt lat="42.38997" lon="2.0857">
        <ele>2054</ele>
        <time>2018-09-02T14:40:26Z</time>
      </trkpt>
      <trkpt lat="42.39001" lon="2.08557">
        <ele>2053</ele>
        <time>2018-09-02T14:40:33Z</time>
      </trkpt>
      <trkpt lat="42.3901" lon="2.08548">
        <ele>2052</ele>
        <time>2018-09-02T14:40:45Z</time>
      </trkpt>
      <trkpt lat="42.39017" lon="2.0853">
        <ele>2051</ele>
        <time>2018-09-02T14:40:57Z</time>
      </trkpt>
      <trkpt lat="42.39022" lon="2.08519">
        <ele>2050</ele>
        <time>2018-09-02T14:41:05Z</time>
      </trkpt>
      <trkpt lat="42.39026" lon="2.08507">
        <ele>2049</ele>
        <time>2018-09-02T14:41:15Z</time>
      </trkpt>
      <trkpt lat="42.39033" lon="2.08494">
        <ele>2048</ele>
        <time>2018-09-02T14:41:24Z</time>
      </trkpt>
      <trkpt lat="42.39035" lon="2.08487">
        <ele>2048</ele>
        <time>2018-09-02T14:41:28Z</time>
      </trkpt>
      <trkpt lat="42.39036" lon="2.08474">
        <ele>2047</ele>
        <time>2018-09-02T14:41:37Z</time>
      </trkpt>
      <trkpt lat="42.39039" lon="2.0847">
        <ele>2046</ele>
        <time>2018-09-02T14:41:40Z</time>
      </trkpt>
      <trkpt lat="42.39042" lon="2.08449">
        <ele>2045</ele>
        <time>2018-09-02T14:41:59Z</time>
      </trkpt>
      <trkpt lat="42.39057" lon="2.08432">
        <ele>2043</ele>
        <time>2018-09-02T14:42:17Z</time>
      </trkpt>
      <trkpt lat="42.39061" lon="2.08419">
        <ele>2042</ele>
        <time>2018-09-02T14:42:25Z</time>
      </trkpt>
      <trkpt lat="42.39061" lon="2.08408">
        <ele>2041</ele>
        <time>2018-09-02T14:42:35Z</time>
      </trkpt>
      <trkpt lat="42.39067" lon="2.08405">
        <ele>2041</ele>
        <time>2018-09-02T14:42:48Z</time>
      </trkpt>
    </trkseg>
  </trk>
</gpx>